[[{"header":{"parameterUnit":"m.s-1","parameterCategory":1,"la1":31.0,"la2":29.5877,"lo1":-88.7671,"lo2":-86.6584,"dy":0.0162,"dx":0.0185,"nx":115,"ny":88,"refTime":"2024-08-07T18:00:00:Z","depth":0,"parameterNumber":2,"parameterNumberName":"U-component_of_WINDS"},"data":[0.0,0.0,0.0,0.0,0.0,0.0,0.0,0.0,0.0,0.0,0.0,0.0,0.0,0.0,0.0,0.0,0.0,0.0,0.0,0.0,0.0,0.0,0.0,0.0,0.0,0.0,0.0,0.0,0.0,0.0,0.0,0.0,0.0,0.0,0.0,0.0,0.0,0.0,0.0,0.0,0.0,0.0,0.0,0.0,0.0,0.0,0.0,0.0,0.0,0.0,0.0,0.0,0.0,0.0,0.0,0.0,0.0,0.0,0.0,0.0,0.0,0.0,0.0,0.0,0.0,0.0,0.0,0.0,0.0,0.0,0.0,0.0,0.0,0.0,0.0,0.0,0.0,0.0,0.0,0.0,0.0,0.0,0.0,0.0,0.0,0.0,0.0,0.0,0.0,0.0,0.0,0.0,0.0,0.0,0.0,0.0,0.0,0.0,0.0,0.0,0.0,0.0,0.0,0.0,0.0,0.0,0.0,0.0,0.0,0.0,0.0,0.0,0.0,0.0,0.0,0.0,0.0,0.0,0.0,0.0,0.0,0.0,0.0,0.0,0.0,0.0,0.0,0.0,0.0,0.0,0.0,0.0,0.0,0.0,0.0,0.0,0.0,0.0,0.0,0.0,0.0,0.0,0.0,0.0,0.0,0.0,0.0,0.0,0.0,0.0,0.0,0.0,0.0,0.0,0.0,0.0,0.0,0.0,0.0,0.0,0.0,0.0,0.0,0.0,0.0,0.0,0.0,0.0,0.0,0.0,0.0,0.0,0.0,0.0,0.0,0.0,0.0,0.0,0.0,0.0,0.0,0.0,0.0,0.0,0.0,0.0,0.0,0.0,0.0,0.0,0.0,0.0,0.0,0.0,0.0,0.0,0.0,0.0,0.0,0.0,0.0,0.0,0.0,0.0,0.0,0.0,0.0,0.0,0.0,0.0,0.0,0.0,0.0,0.0,0.0,0.0,0.0,0.0,0.0,0.0,0.0,0.0,0.0,0.0,0.0,0.0,0.0,0.0,0.0,0.0,0.0,0.0,0.0,0.0,0.0,0.0,0.0,0.0,0.0,0.0,0.0,0.0,0.0,0.0,0.0,0.0,0.0,0.0,0.0,0.0,0.0,0.0,0.0,0.0,0.0,0.0,0.0,0.0,0.0,0.0,0.0,0.0,0.0,0.0,0.0,0.0,0.0,0.0,0.0,0.0,0.0,0.0,0.0,0.0,0.0,0.0,0.0,0.0,0.0,0.0,0.0,0.0,0.0,0.0,0.0,0.0,0.0,0.0,0.0,0.0,0.0,0.0,0.0,0.0,0.0,0.0,0.0,0.0,0.0,0.0,0.0,0.0,0.0,0.0,0.0,0.0,0.0,0.0,0.0,0.0,0.0,0.0,0.0,0.0,0.0,0.0,0.0,0.0,0.0,0.0,0.0,0.0,0.0,0.0,0.0,0.0,0.0,0.0,0.0,0.0,0.0,0.0,0.0,0.0,0.0,0.0,0.0,0.0,0.0,0.0,0.0,0.0,0.0,0.0,0.0,0.0,0.0,0.0,0.0,0.0,0.0,0.0,0.0,0.0,0.0,0.0,0.0,0.0,0.0,0.0,0.0,0.0,0.0,0.0,0.0,0.0,0.0,0.0,0.0,0.0,0.0,0.0,0.0,0.0,0.0,0.0,0.0,0.0,0.0,0.0,0.0,0.0,0.0,0.0,0.0,0.0,0.0,0.0,0.0,0.0,0.0,0.0,0.0,0.0,0.0,0.0,0.0,0.0,0.0,0.0,0.0,0.0,0.0,0.0,0.0,0.0,0.0,0.0,0.0,0.0,0.0,0.0,0.0,0.0,0.0,0.0,0.0,0.0,0.0,0.0,0.0,0.0,0.0,0.0,0.0,0.0,0.0,0.0,0.0,0.0,0.0,0.0,0.0,0.0,0.0,0.0,0.0,0.0,0.0,0.0,0.0,0.0,0.0,0.0,0.0,0.0,0.0,0.0,0.0,0.0,0.0,0.0,0.0,0.0,0.0,0.0,0.0,0.0,0.0,0.0,0.0,0.0,0.0,0.0,0.0,0.0,0.0,0.0,0.0,0.0,0.0,0.0,0.0,0.0,0.0,0.0,0.0,0.0,0.0,0.0,0.0,0.0,0.0,0.0,0.0,0.0,0.0,0.0,0.0,0.0,0.0,0.0,0.0,0.0,0.0,0.0,0.0,0.0,0.0,0.0,0.0,0.0,0.0,0.0,0.0,0.0,0.0,0.0,0.0,0.0,0.0,0.0,0.0,0.0,0.0,0.0,0.0,0.0,0.0,0.0,0.0,0.0,0.0,0.0,0.0,0.0,0.0,0.0,0.0,0.0,0.0,0.0,0.0,0.0,0.0,0.0,0.0,0.0,0.0,0.0,0.0,0.0,0.0,0.0,0.0,0.0,0.0,0.0,0.0,0.0,0.0,0.0,0.0,0.0,0.0,0.0,0.0,0.0,0.0,0.0,0.0,0.0,0.0,0.0,0.0,0.0,0.0,0.0,0.0,0.0,0.0,0.0,0.0,0.0,0.0,0.0,0.0,0.0,0.0,0.0,0.0,0.0,0.0,0.0,0.0,0.0,0.0,0.0,0.0,0.0,0.0,0.0,0.0,0.0,0.0,0.0,0.0,0.0,0.0,0.0,0.0,0.0,0.0,0.0,0.0,0.0,0.0,0.0,0.0,0.0,0.0,0.0,0.0,0.0,0.0,0.0,0.0,0.0,0.0,0.0,0.0,0.0,0.0,0.0,0.0,0.0,0.0,0.0,0.0,0.0,0.0,0.0,0.0,0.0,0.0,0.0,0.0,0.0,0.0,0.0,0.0,0.0,0.0,0.0,0.0,0.0,0.0,0.0,0.0,0.0,0.0,0.0,0.0,0.0,0.0,0.0,0.0,0.0,0.0,0.0,0.0,0.0,0.0,0.0,0.0,0.0,0.0,0.0,0.0,0.0,0.0,0.0,0.0,0.0,0.0,0.0,0.0,0.0,0.0,0.0,0.0,0.0,0.0,0.0,0.0,0.0,0.0,0.0,0.0,0.0,0.0,0.0,0.0,0.0,0.0,0.0,0.0,0.0,0.0,0.0,0.0,0.0,0.0,0.0,0.0,0.0,0.0,0.0,0.0,0.0,0.0,0.0,0.0,0.0,0.0,0.0,0.0,0.0,0.0,0.0,0.0,0.0,0.0,0.0,0.0,0.0,0.0,0.0,0.0,0.0,0.0,0.0,0.0,0.0,0.0,0.0,0.0,0.0,0.0,0.0,0.0,0.0,0.0,0.0,0.0,0.0,0.0,0.0,0.0,0.0,0.0,0.0,0.0,0.0,0.0,0.0,0.0,0.0,0.0,0.0,0.0,0.0,0.0,0.0,0.0,0.0,0.0,0.0,0.0,0.0,0.0,0.0,0.0,0.0,0.0,0.0,0.0,0.0,0.0,0.0,0.0,0.0,0.0,0.0,0.0,0.0,0.0,0.0,0.0,0.0,0.0,0.0,0.0,0.0,0.0,0.0,0.0,0.0,0.0,0.0,0.0,0.0,0.0,0.0,0.0,0.0,0.0,0.0,0.0,0.0,0.0,0.0,0.0,0.0,0.0,0.0,0.0,0.0,0.0,0.0,0.0,0.0,0.0,0.0,0.0,0.0,0.0,0.0,0.0,0.0,0.0,0.0,0.0,0.0,0.0,0.0,0.0,0.0,0.0,0.0,0.0,0.0,0.0,0.0,0.0,0.0,0.0,0.0,0.0,0.0,0.0,0.0,0.0,0.0,0.0,0.0,0.0,0.0,0.0,0.0,0.0,0.0,0.0,0.0,0.0,0.0,0.0,0.0,0.0,0.0,0.0,0.0,0.0,0.0,0.0,0.0,0.0,0.0,0.0,0.0,0.0,0.0,0.0,0.0,0.0,0.0,0.0,0.0,0.0,0.0,0.0,0.0,0.0,0.0,0.0,0.0,0.0,0.0,0.0,0.0,0.0,0.0,0.0,0.0,0.0,0.0,0.0,0.0,0.0,0.0,0.0,0.0,0.0,0.0,0.0,0.0,0.0,0.0,0.0,0.0,0.0,0.0,0.0,0.0,0.0,0.0,0.0,0.0,0.0,0.0,0.0,0.0,0.0,0.0,0.0,0.0,0.0,0.0,0.0,0.0,0.0,0.0,0.0,0.0,0.0,0.0,0.0,0.0,0.0,0.0,0.0,0.0,0.0,0.0,0.0,0.0,0.0,0.0,0.0,0.0,0.0,0.0,0.0,0.0,0.0,0.0,2.563,0.0,0.0,0.0,0.0,0.0,0.0,0.0,0.0,0.0,0.0,0.0,0.0,0.0,0.0,0.0,0.0,0.0,0.0,0.0,0.0,0.0,0.0,0.0,0.0,0.0,0.0,0.0,0.0,0.0,0.0,0.0,0.0,0.0,0.0,0.0,0.0,0.0,0.0,0.0,0.0,0.0,0.0,0.0,0.0,0.0,0.0,0.0,0.0,0.0,0.0,0.0,0.0,0.0,0.0,0.0,0.0,0.0,0.0,0.0,0.0,0.0,0.0,0.0,0.0,0.0,0.0,0.0,0.0,0.0,0.0,0.0,0.0,0.0,0.0,0.0,0.0,0.0,0.0,0.0,0.0,0.0,0.0,0.0,0.0,0.0,0.0,0.0,0.0,0.0,0.0,0.0,0.0,0.0,0.0,0.0,0.0,0.0,0.0,0.0,0.0,0.0,0.0,0.0,0.0,0.0,0.0,0.0,0.0,0.0,0.0,2.5662,2.5624,2.5609,2.5575,2.5536,0.0,0.0,0.0,0.0,0.0,0.0,0.0,0.0,0.0,0.0,0.0,0.0,0.0,0.0,0.0,0.0,0.0,0.0,0.0,0.0,0.0,0.0,0.0,0.0,0.0,0.0,0.0,0.0,0.0,0.0,0.0,0.0,0.0,0.0,0.0,0.0,0.0,0.0,0.0,0.0,0.0,0.0,0.0,0.0,0.0,0.0,0.0,0.0,0.0,0.0,0.0,0.0,0.0,0.0,0.0,0.0,0.0,0.0,0.0,0.0,0.0,0.0,0.0,0.0,0.0,0.0,0.0,0.0,0.0,0.0,0.0,0.0,0.0,0.0,0.0,0.0,0.0,0.0,0.0,0.0,0.0,0.0,0.0,0.0,0.0,0.0,0.0,0.0,0.0,0.0,0.0,0.0,0.0,0.0,0.0,0.0,0.0,0.0,0.0,0.0,0.0,0.0,0.0,0.0,0.0,0.0,0.0,0.0,0.0,0.0,0.0,0.0,2.5638,2.5401,2.5207,0.0,0.0,0.0,0.0,0.0,0.0,0.0,0.0,0.0,0.0,0.0,0.0,0.0,0.0,0.0,0.0,0.0,0.0,0.0,0.0,0.0,0.0,0.0,0.0,0.0,0.0,0.0,0.0,0.0,0.0,0.0,0.0,0.0,0.0,0.0,0.0,0.0,0.0,0.0,0.0,0.0,0.0,0.0,0.0,0.0,0.0,0.0,0.0,0.0,0.0,0.0,0.0,0.0,0.0,0.0,0.0,0.0,0.0,0.0,0.0,0.0,0.0,0.0,0.0,0.0,0.0,0.0,0.0,0.0,0.0,0.0,0.0,0.0,0.0,0.0,0.0,0.0,0.0,0.0,0.0,0.0,0.0,0.0,0.0,0.0,0.0,0.0,0.0,0.0,0.0,0.0,0.0,0.0,0.0,0.0,0.0,0.0,0.0,0.0,0.0,0.0,0.0,0.0,0.0,0.0,0.0,0.0,0.0,0.0,0.0,2.5948,2.666,2.589,0.0,2.4435,0.0,0.0,0.0,0.0,0.0,0.0,0.0,0.0,0.0,0.0,0.0,0.0,0.0,0.0,0.0,0.0,0.0,0.0,0.0,0.0,0.0,0.0,0.0,0.0,0.0,0.0,0.0,0.0,0.0,0.0,0.0,0.0,0.0,0.0,0.0,0.0,0.0,0.0,0.0,0.0,0.0,0.0,0.0,0.0,0.0,0.0,0.0,0.0,0.0,0.0,0.0,0.0,0.0,0.0,0.0,0.0,0.0,0.0,0.0,0.0,0.0,0.0,0.0,0.0,0.0,0.0,0.0,0.0,0.0,0.0,0.0,0.0,0.0,0.0,0.0,0.0,0.0,0.0,0.0,0.0,0.0,0.0,0.0,0.0,0.0,0.0,0.0,0.0,0.0,0.0,0.0,0.0,0.0,0.0,0.0,0.0,0.0,0.0,0.0,0.0,0.0,0.0,0.0,0.0,0.0,0.0,0.0,0.0,0.0,0.0,0.0,2.5986,2.513,2.4514,0.0,0.0,0.0,0.0,0.0,0.0,0.0,0.0,0.0,0.0,0.0,0.0,0.0,0.0,0.0,0.0,0.0,0.0,0.0,0.0,0.0,0.0,0.0,0.0,0.0,0.0,0.0,0.0,0.0,0.0,0.0,0.0,0.0,0.0,0.0,0.0,0.0,0.0,0.0,0.0,0.0,0.0,0.0,0.0,0.0,0.0,0.0,0.0,0.0,0.0,0.0,0.0,0.0,0.0,0.0,0.0,0.0,0.0,0.0,0.0,0.0,0.0,0.0,0.0,0.0,0.0,0.0,0.0,0.0,0.0,0.0,0.0,0.0,0.0,0.0,0.0,0.0,0.0,0.0,0.0,0.0,0.0,0.0,0.0,0.0,0.0,0.0,0.0,0.0,0.0,0.0,0.0,0.0,0.0,0.0,0.0,0.0,0.0,0.0,0.0,0.0,0.0,0.0,0.0,0.0,0.0,0.0,0.0,0.0,0.0,2.6283,0.0,2.539,2.4774,2.4206,2.3744,0.0,0.0,0.0,0.0,0.0,0.0,0.0,0.0,0.0,0.0,0.0,0.0,0.0,0.0,0.0,0.0,0.0,0.0,0.0,0.0,0.0,0.0,0.0,0.0,0.0,0.0,0.0,0.0,0.0,0.0,0.0,0.0,0.0,0.0,0.0,0.0,0.0,0.0,0.0,0.0,0.0,0.0,0.0,0.0,0.0,0.0,0.0,0.0,0.0,0.0,0.0,0.0,0.0,0.0,0.0,0.0,0.0,0.0,0.0,0.0,0.0,0.0,0.0,0.0,0.0,0.0,0.0,0.0,0.0,0.0,0.0,0.0,0.0,0.0,0.0,0.0,0.0,0.0,0.0,0.0,0.0,0.0,0.0,0.0,0.0,0.0,0.0,0.0,0.0,0.0,0.0,0.0,0.0,0.0,0.0,0.0,0.0,0.0,0.0,0.0,0.0,0.0,0.0,0.0,0.0,0.0,0.0,0.0,0.0,2.6303,2.5428,2.5341,2.5264,2.4505,0.0,0.0,0.0,0.0,0.0,0.0,0.0,0.0,0.0,0.0,0.0,0.0,0.0,0.0,0.0,0.0,0.0,0.0,0.0,0.0,0.0,0.0,0.0,0.0,0.0,0.0,0.0,0.0,0.0,0.0,0.0,0.0,0.0,0.0,0.0,0.0,0.0,0.0,0.0,0.0,0.0,0.0,0.0,0.0,0.0,0.0,0.0,0.0,0.0,0.0,0.0,0.0,0.0,0.0,0.0,0.0,0.0,0.0,0.0,0.0,0.0,0.0,0.0,0.0,0.0,0.0,0.0,0.0,0.0,0.0,0.0,0.0,0.0,0.0,0.0,0.0,0.0,0.0,0.0,0.0,0.0,0.0,0.0,0.0,0.0,0.0,0.0,0.0,0.0,0.0,0.0,0.0,0.0,0.0,0.0,0.0,0.0,0.0,0.0,0.0,0.0,0.0,0.0,0.0,0.0,0.0,0.0,0.0,0.0,2.6226,2.5649,2.5582,2.6043,2.4543,2.3389,0.0,0.0,0.0,0.0,0.0,0.0,0.0,0.0,0.0,0.0,0.0,0.0,0.0,0.0,0.0,0.0,0.0,0.0,0.0,0.0,0.0,0.0,0.0,0.0,0.0,0.0,0.0,0.0,0.0,0.0,0.0,0.0,0.0,0.0,0.0,0.0,0.0,0.0,0.0,0.0,0.0,0.0,0.0,0.0,0.0,0.0,0.0,0.0,0.0,0.0,0.0,0.0,0.0,0.0,0.0,0.0,0.0,0.0,0.0,0.0,0.0,0.0,0.0,0.0,0.0,0.0,0.0,0.0,0.0,0.0,0.0,0.0,0.0,0.0,0.0,0.0,0.0,0.0,0.0,0.0,0.0,0.0,0.0,0.0,0.0,0.0,0.0,0.0,0.0,0.0,0.0,0.0,0.0,0.0,0.0,0.0,0.0,0.0,0.0,0.0,0.0,0.0,0.0,0.0,0.0,0.0,0.0,0.0,0.0,2.5303,0.0,2.589,0.0,2.4543,2.3351,0.0,0.0,0.0,0.0,0.0,0.0,0.0,0.0,0.0,0.0,0.0,0.0,0.0,0.0,0.0,0.0,0.0,0.0,0.0,0.0,0.0,0.0,0.0,0.0,0.0,0.0,0.0,0.0,0.0,0.0,0.0,0.0,0.0,0.0,0.0,0.0,0.0,0.0,0.0,0.0,0.0,0.0,0.0,0.0,0.0,0.0,0.0,0.0,0.0,0.0,0.0,0.0,0.0,0.0,0.0,0.0,0.0,0.0,0.0,0.0,0.0,0.0,0.0,0.0,0.0,0.0,0.0,0.0,0.0,0.0,0.0,0.0,0.0,0.0,0.0,0.0,0.0,0.0,0.0,0.0,0.0,0.0,0.0,0.0,0.0,0.0,0.0,0.0,0.0,0.0,0.0,0.0,0.0,0.0,0.0,0.0,0.0,0.0,0.0,0.0,0.0,0.0,0.0,0.0,0.0,0.0,0.0,0.0,2.5313,2.5341,2.612,2.6159,2.5341,2.5264,2.4466,0.0,0.0,0.0,0.0,0.0,0.0,0.0,0.0,0.0,0.0,0.0,0.0,0.0,0.0,0.0,0.0,0.0,0.0,0.0,0.0,0.0,0.0,0.0,0.0,0.0,0.0,0.0,0.0,0.0,0.0,0.0,0.0,0.0,0.0,0.0,0.0,0.0,0.0,0.0,0.0,0.0,0.0,0.0,0.0,0.0,0.0,0.0,0.0,0.0,0.0,0.0,0.0,0.0,0.0,0.0,0.0,0.0,0.0,0.0,0.0,0.0,0.0,0.0,0.0,0.0,0.0,0.0,0.0,0.0,0.0,0.0,0.0,0.0,0.0,0.0,0.0,0.0,0.0,0.0,0.0,0.0,0.0,0.0,0.0,0.0,0.0,0.0,0.0,0.0,0.0,0.0,0.0,0.0,0.0,0.0,0.0,0.0,0.0,0.0,0.0,0.0,0.0,0.0,0.0,0.0,0.0,0.0,0.0,0.0,2.5303,2.5572,2.589,2.6159,2.5082,2.4466,0.0,0.0,0.0,0.0,0.0,0.0,0.0,0.0,0.0,0.0,0.0,0.0,0.0,0.0,0.0,0.0,0.0,0.0,0.0,0.0,0.0,0.0,0.0,0.0,0.0,0.0,0.0,0.0,0.0,0.0,0.0,0.0,0.0,0.0,0.0,0.0,0.0,0.0,0.0,0.0,0.0,0.0,0.0,0.0,0.0,0.0,0.0,0.0,0.0,0.0,0.0,0.0,0.0,0.0,0.0,0.0,0.0,0.0,0.0,0.0,0.0,0.0,0.0,0.0,0.0,0.0,0.0,0.0,0.0,0.0,0.0,0.0,0.0,0.0,0.0,0.0,0.0,0.0,0.0,0.0,0.0,0.0,0.0,0.0,0.0,0.0,0.0,0.0,0.0,0.0,0.0,0.0,0.0,0.0,0.0,0.0,0.0,0.0,0.0,0.0,0.0,0.0,0.0,0.0,0.0,0.0,0.0,0.0,0.0,2.5774,2.5774,2.589,2.611,2.539,2.4966,2.4812,0.0,0.0,0.0,0.0,0.0,0.0,0.0,0.0,0.0,0.0,0.0,0.0,0.0,0.0,0.0,0.0,0.0,0.0,0.0,0.0,0.0,0.0,0.0,0.0,0.0,0.0,0.0,0.0,0.0,0.0,0.0,0.0,0.0,0.0,0.0,0.0,0.0,0.0,0.0,0.0,0.0,0.0,0.0,0.0,0.0,0.0,0.0,0.0,0.0,0.0,0.0,0.0,0.0,0.0,0.0,0.0,0.0,0.0,0.0,0.0,0.0,0.0,0.0,0.0,0.0,0.0,0.0,0.0,0.0,0.0,0.0,0.0,0.0,0.0,0.0,0.0,0.0,0.0,0.0,0.0,0.0,0.0,0.0,0.0,0.0,0.0,0.0,0.0,0.0,0.0,0.0,0.0,0.0,0.0,0.0,0.0,0.0,0.0,0.0,0.0,0.0,0.0,0.0,0.0,0.0,0.0,0.0,0.0,2.6621,2.6659,2.6313,2.5534,2.6197,2.5851,0.0,0.0,0.0,0.0,0.0,0.0,0.0,0.0,0.0,0.0,0.0,0.0,0.0,0.0,0.0,0.0,0.0,0.0,0.0,0.0,0.0,0.0,0.0,0.0,0.0,0.0,0.0,0.0,0.0,0.0,0.0,0.0,0.0,0.0,0.0,0.0,0.0,0.0,0.0,0.0,0.0,0.0,0.0,0.0,0.0,0.0,0.0,0.0,0.0,0.0,0.0,0.0,0.0,0.0,0.0,0.0,0.0,0.0,0.0,0.0,0.0,0.0,0.0,0.0,0.0,0.0,0.0,0.0,0.0,0.0,0.0,0.0,0.0,0.0,0.0,0.0,0.0,0.0,0.0,0.0,0.0,0.0,0.0,0.0,0.0,0.0,0.0,0.0,0.0,0.0,0.0,0.0,0.0,0.0,0.0,0.0,0.0,0.0,0.0,0.0,0.0,0.0,0.0,0.0,0.0,0.0,0.0,0.0,0.0,2.6621,2.7236,2.7467,2.7198,2.6813,2.639,0.0,0.0,0.0,0.0,0.0,0.0,0.0,0.0,0.0,0.0,0.0,0.0,0.0,0.0,0.0,0.0,0.0,0.0,0.0,0.0,0.0,0.0,0.0,0.0,0.0,0.0,0.0,0.0,0.0,0.0,0.0,0.0,0.0,0.0,0.0,0.0,0.0,0.0,0.0,0.0,0.0,0.0,0.0,0.0,0.0,0.0,0.0,0.0,0.0,0.0,0.0,0.0,0.0,0.0,0.0,0.0,0.0,0.0,0.0,0.0,0.0,0.0,0.0,0.0,0.0,0.0,0.0,0.0,0.0,0.0,0.0,0.0,0.0,0.0,0.0,0.0,0.0,0.0,0.0,0.0,0.0,0.0,0.0,0.0,0.0,0.0,0.0,0.0,0.0,0.0,0.0,0.0,0.0,0.0,0.0,0.0,0.0,0.0,0.0,0.0,0.0,0.0,0.0,0.0,0.0,0.0,0.0,0.0,2.7159,2.7159,2.7967,2.8368,2.8298,2.7443,2.6638,0.0,0.0,0.0,0.0,0.0,0.0,0.0,0.0,0.0,0.0,0.0,0.0,0.0,0.0,0.0,0.0,0.0,0.0,0.0,0.0,0.0,0.0,0.0,0.0,0.0,0.0,0.0,0.0,0.0,0.0,0.0,0.0,0.0,0.0,0.0,0.0,0.0,0.0,0.0,0.0,0.0,0.0,0.0,0.0,0.0,0.0,0.0,0.0,0.0,0.0,0.0,0.0,0.0,0.0,0.0,0.0,0.0,0.0,0.0,0.0,0.0,0.0,0.0,0.0,0.0,0.0,0.0,0.0,0.0,0.0,0.0,0.0,0.0,0.0,0.0,0.0,0.0,0.0,0.0,0.0,0.0,0.0,0.0,0.0,0.0,0.0,0.0,0.0,0.0,0.0,0.0,0.0,0.0,0.0,0.0,0.0,0.0,0.0,0.0,0.0,0.0,0.0,0.0,0.0,0.0,0.0,0.0,0.0,2.7928,2.8005,2.8632,2.8898,2.8654,2.7826,2.6669,0.0,0.0,0.0,0.0,0.0,0.0,0.0,0.0,0.0,0.0,0.0,0.0,0.0,0.0,0.0,0.0,0.0,0.0,0.0,0.0,0.0,0.0,0.0,0.0,0.0,0.0,0.0,0.0,0.0,0.0,0.0,0.0,0.0,0.0,0.0,0.0,0.0,0.0,0.0,0.0,0.0,0.0,0.0,0.0,0.0,0.0,0.0,0.0,0.0,0.0,0.0,0.0,0.0,0.0,0.0,0.0,0.0,0.0,0.0,0.0,0.0,0.0,0.0,0.0,0.0,0.0,0.0,0.0,0.0,0.0,0.0,0.0,0.0,0.0,0.0,0.0,0.0,0.0,0.0,0.0,0.0,0.0,0.0,0.0,0.0,0.0,0.0,0.0,0.0,0.0,0.0,0.0,0.0,0.0,0.0,0.0,0.0,0.0,0.0,0.0,0.0,0.0,0.0,0.0,0.0,0.0,0.0,0.0,2.8198,2.8813,2.839,2.8053,2.7866,2.7014,2.6312,0.0,0.0,0.0,0.0,0.0,0.0,0.0,0.0,0.0,0.0,0.0,0.0,0.0,0.0,0.0,0.0,0.0,0.0,0.0,0.0,0.0,0.0,0.0,0.0,0.0,0.0,0.0,0.0,0.0,0.0,0.0,0.0,0.0,0.0,0.0,0.0,0.0,0.0,0.0,0.0,0.0,0.0,0.0,0.0,0.0,0.0,0.0,0.0,2.0193,0.0,0.0,0.0,0.0,0.0,0.0,0.0,0.0,0.0,0.0,0.0,0.0,0.0,0.0,0.0,0.0,0.0,0.0,0.0,0.0,0.0,0.0,0.0,0.0,0.0,0.0,0.0,0.0,0.0,0.0,0.0,0.0,0.0,0.0,0.0,0.0,0.0,0.0,0.0,0.0,0.0,0.0,0.0,0.0,0.0,0.0,0.0,0.0,0.0,0.0,0.0,0.0,0.0,0.0,0.0,0.0,0.0,0.0,0.0,2.7941,2.8375,2.7941,2.7586,2.7267,2.619,2.5546,0.0,0.0,0.0,0.0,0.0,0.0,0.0,0.0,0.0,0.0,0.0,0.0,0.0,0.0,0.0,0.0,0.0,0.0,0.0,0.0,0.0,0.0,0.0,0.0,0.0,0.0,0.0,0.0,0.0,0.0,0.0,0.0,0.0,0.0,0.0,0.0,0.0,0.0,0.0,0.0,0.0,0.0,0.0,0.0,0.0,0.0,0.0,0.0,0.0,0.0,0.0,0.0,0.0,0.0,0.0,0.0,0.0,0.0,0.0,0.0,0.0,0.0,0.0,0.0,0.0,0.0,0.0,0.0,0.0,0.0,0.0,0.0,0.0,0.0,0.0,0.0,0.0,0.0,0.0,0.0,0.0,0.0,0.0,0.0,0.0,0.0,0.0,0.0,0.0,0.0,0.0,0.0,0.0,0.0,0.0,0.0,0.0,0.0,0.0,0.0,0.0,0.0,0.0,0.0,0.0,0.0,0.0,2.7205,2.7445,2.7712,2.7418,2.7108,2.6764,2.5474,2.4746,2.4783,0.0,0.0,0.0,0.0,0.0,0.0,0.0,0.0,0.0,0.0,0.0,0.0,0.0,0.0,0.0,0.0,0.0,0.0,0.0,0.0,0.0,0.0,0.0,0.0,0.0,0.0,0.0,0.0,0.0,0.0,0.0,0.0,0.0,0.0,0.0,0.0,0.0,0.0,2.1093,2.1373,0.0,0.0,0.0,0.0,0.0,0.0,0.0,0.0,1.994,0.0,0.0,0.0,0.0,0.0,0.0,0.0,0.0,0.0,0.0,0.0,0.0,0.0,0.0,0.0,0.0,0.0,0.0,0.0,0.0,0.0,0.0,0.0,0.0,0.0,0.0,0.0,0.0,0.0,0.0,0.0,0.0,0.0,0.0,0.0,0.0,0.0,0.0,0.0,0.0,0.0,0.0,0.0,0.0,0.0,0.0,0.0,0.0,0.0,0.0,0.0,0.0,0.0,0.0,0.0,0.0,2.7161,2.6705,2.7124,2.8282,2.6964,2.6216,2.6117,2.511,2.4543,2.4526,0.0,0.0,0.0,0.0,0.0,0.0,0.0,0.0,0.0,0.0,0.0,0.0,0.0,0.0,0.0,0.0,0.0,0.0,0.0,0.0,0.0,0.0,0.0,0.0,0.0,0.0,0.0,0.0,0.0,0.0,0.0,0.0,0.0,0.0,0.0,0.0,0.0,0.0,0.0,2.107,2.0905,0.0,0.0,0.0,0.0,0.0,0.0,0.0,0.0,1.9551,0.0,0.0,0.0,0.0,0.0,0.0,0.0,0.0,0.0,0.0,0.0,0.0,0.0,0.0,0.0,0.0,0.0,0.0,0.0,0.0,0.0,0.0,0.0,0.0,0.0,0.0,0.0,0.0,0.0,0.0,0.0,0.0,0.0,0.0,0.0,0.0,0.0,0.0,0.0,0.0,0.0,0.0,0.0,0.0,0.0,0.0,0.0,0.0,0.0,0.0,0.0,0.0,0.0,0.0,0.0,2.7077,2.6405,2.6537,2.7599,2.6476,2.5585,2.5089,2.47,2.4425,0.0,0.0,0.0,0.0,0.0,0.0,0.0,0.0,0.0,0.0,0.0,0.0,0.0,0.0,0.0,0.0,0.0,0.0,0.0,0.0,0.0,0.0,0.0,0.0,0.0,0.0,0.0,0.0,0.0,0.0,0.0,0.0,0.0,0.0,0.0,0.0,0.0,0.0,0.0,0.0,2.0624,2.037,1.966,0.0,0.0,0.0,0.0,0.0,0.0,1.9014,1.8893,0.0,0.0,0.0,0.0,0.0,0.0,0.0,0.0,0.0,0.0,0.0,0.0,0.0,0.0,0.0,0.0,0.0,0.0,0.0,0.0,0.0,0.0,0.0,0.0,0.0,0.0,0.0,0.0,0.0,0.0,0.0,0.0,0.0,0.0,0.0,0.0,0.0,0.0,0.0,0.0,0.0,0.0,0.0,0.0,0.0,0.0,0.0,0.0,0.0,0.0,0.0,0.0,0.0,0.0,0.0,2.6531,2.586,2.5819,2.6507,2.582,2.5005,2.4246,2.4357,2.4357,0.0,0.0,0.0,0.0,0.0,0.0,0.0,0.0,0.0,0.0,0.0,0.0,0.0,0.0,0.0,0.0,0.0,0.0,0.0,0.0,0.0,0.0,0.0,0.0,0.0,0.0,0.0,0.0,0.0,0.0,0.0,0.0,0.0,0.0,0.0,0.0,0.0,0.0,0.0,0.0,0.0,1.9908,1.9064,1.9258,0.0,0.0,0.0,0.0,1.9059,1.8493,0.0,0.0,0.0,0.0,0.0,0.0,0.0,0.0,0.0,0.0,0.0,0.0,0.0,0.0,0.0,0.0,0.0,0.0,0.0,0.0,0.0,0.0,0.0,0.0,0.0,0.0,0.0,0.0,0.0,0.0,0.0,0.0,0.0,0.0,0.0,0.0,0.0,0.0,0.0,0.0,0.0,0.0,0.0,0.0,0.0,0.0,0.0,0.0,0.0,0.0,0.0,0.0,0.0,0.0,0.0,0.0,2.4537,2.4608,2.4947,2.5518,2.4799,2.4338,2.419,2.4228,2.4228,0.0,0.0,0.0,0.0,0.0,0.0,0.0,0.0,0.0,0.0,0.0,0.0,0.0,0.0,0.0,0.0,0.0,0.0,0.0,0.0,0.0,0.0,0.0,0.0,0.0,0.0,0.0,0.0,0.0,0.0,0.0,0.0,0.0,0.0,0.0,0.0,0.0,0.0,0.0,0.0,0.0,1.9711,1.9017,1.8968,1.9142,0.0,0.0,1.8398,1.7076,1.7558,0.0,0.0,0.0,0.0,0.0,0.0,0.0,0.0,0.0,0.0,0.0,0.0,0.0,0.0,0.0,0.0,0.0,0.0,0.0,0.0,0.0,0.0,0.0,0.0,0.0,0.0,0.0,0.0,0.0,0.0,0.0,0.0,0.0,0.0,0.0,0.0,0.0,0.0,0.0,0.0,0.0,0.0,0.0,0.0,0.0,0.0,0.0,0.0,0.0,0.0,0.0,0.0,0.0,0.0,0.0,2.4098,2.4209,2.4284,2.4672,2.5348,2.4593,2.419,2.419,2.419,2.3969,0.0,0.0,0.0,0.0,0.0,0.0,0.0,0.0,0.0,0.0,0.0,0.0,0.0,0.0,0.0,0.0,0.0,0.0,0.0,0.0,0.0,0.0,0.0,0.0,0.0,0.0,0.0,0.0,0.0,0.0,0.0,0.0,0.0,0.0,0.0,0.0,0.0,0.0,0.0,0.0,0.0,0.0,1.85,1.8703,0.0,0.0,0.0,1.7993,1.6678,0.0,0.0,0.0,0.0,0.0,0.0,0.0,0.0,0.0,0.0,0.0,0.0,0.0,0.0,0.0,0.0,0.0,0.0,0.0,0.0,0.0,0.0,0.0,0.0,0.0,0.0,0.0,0.0,0.0,0.0,0.0,0.0,0.0,0.0,0.0,0.0,0.0,0.0,0.0,0.0,0.0,0.0,0.0,0.0,0.0,0.0,0.0,0.0,0.0,0.0,0.0,0.0,0.0,0.0,0.0,0.0,0.0,2.4192,2.421,2.4483,2.5034,2.452,2.419,2.419,2.419,0.0,0.0,0.0,0.0,0.0,0.0,0.0,0.0,0.0,0.0,0.0,0.0,0.0,0.0,0.0,0.0,0.0,0.0,0.0,0.0,0.0,0.0,0.0,0.0,0.0,0.0,0.0,1.393,0.0,0.0,0.0,0.0,0.0,0.0,0.0,0.0,0.0,0.0,0.0,0.0,0.0,0.0,1.8862,1.8016,1.8349,1.8556,0.0,0.0,1.729,1.6196,1.6069,1.6238,0.0,0.0,0.0,0.0,0.0,0.0,0.0,0.0,0.0,0.0,0.0,0.0,0.0,0.0,0.0,0.0,0.0,0.0,0.0,0.0,0.0,0.0,0.0,0.0,0.0,0.0,0.0,0.0,0.0,0.0,0.0,0.0,0.0,0.0,0.0,0.0,0.0,0.0,0.0,0.0,0.0,0.0,0.0,0.0,0.0,0.0,0.0,0.0,0.0,0.0,0.0,0.0,0.0,0.0,0.0,2.4172,2.419,2.4226,2.4263,2.4226,2.419,2.419,2.419,2.3823,0.0,0.0,0.0,0.0,0.0,0.0,0.0,0.0,0.0,0.0,0.0,0.0,0.0,0.0,0.0,0.0,0.0,0.0,0.0,0.0,0.0,0.0,0.0,0.0,0.0,0.0,0.0,0.0,0.0,0.0,0.0,0.0,0.0,0.0,0.0,0.0,0.0,0.0,0.0,0.0,0.0,1.9189,1.7595,1.7872,1.8216,0.0,0.0,1.6132,1.5005,1.4812,1.5017,1.562,0.0,0.0,0.0,0.0,0.0,0.0,0.0,0.0,0.0,0.0,0.0,0.0,0.0,0.0,0.0,0.0,0.0,0.0,0.0,0.0,0.0,0.0,0.0,0.0,0.0,0.0,0.0,0.0,0.0,0.0,0.0,0.0,0.0,0.0,0.0,0.0,0.0,0.0,0.0,0.0,0.0,0.0,0.0,0.0,0.0,0.0,0.0,0.0,0.0,0.0,0.0,0.0,0.0,2.2975,2.4153,2.419,2.419,2.419,2.419,2.419,2.419,2.3996,2.3515,0.0,0.0,0.0,0.0,0.0,0.0,0.0,0.0,0.0,0.0,0.0,0.0,0.0,0.0,0.0,0.0,0.0,0.0,0.0,0.0,0.0,0.0,0.0,0.0,0.0,0.0,0.0,0.0,1.5774,1.5914,1.5771,0.0,0.0,0.0,0.0,0.0,0.0,0.0,0.0,0.0,0.0,1.8636,1.7955,1.8077,0.0,0.0,1.6961,1.6054,1.3939,1.4812,1.566,1.5603,1.5608,0.0,0.0,0.0,0.0,0.0,0.0,0.0,0.0,0.0,0.0,0.0,0.0,0.0,0.0,0.0,0.0,0.0,0.0,0.0,0.0,0.0,0.0,0.0,0.0,0.0,0.0,0.0,0.0,0.0,0.0,0.0,0.0,0.0,0.0,0.0,0.0,0.0,0.0,0.0,0.0,0.0,0.0,0.0,0.0,0.0,0.0,0.0,0.0,0.0,0.0,0.0,0.0,2.307,2.489,2.4466,2.43,2.4557,2.43,2.4151,2.4036,2.3816,2.3271,0.0,0.0,0.0,0.0,0.0,0.0,0.0,0.0,0.0,0.0,0.0,0.0,0.0,0.0,0.0,0.0,0.0,0.0,0.0,0.0,0.0,0.0,0.0,0.0,0.0,0.0,0.0,0.0,1.6216,1.6129,1.5855,0.0,0.0,0.0,0.0,0.0,0.0,0.0,0.0,0.0,0.0,1.845,1.7766,1.797,1.7874,1.6974,1.6727,1.5996,1.4227,1.4922,1.5658,1.5498,0.0,0.0,0.0,0.0,0.0,0.0,0.0,0.0,0.0,0.0,0.0,0.0,0.0,0.0,0.0,0.0,0.0,0.0,0.0,0.0,0.0,0.0,0.0,0.0,0.0,0.0,0.0,0.0,0.0,0.0,2.0304,0.0,0.0,0.0,0.0,0.0,0.0,0.0,0.0,0.0,0.0,0.0,0.0,0.0,0.0,0.0,0.0,0.0,0.0,0.0,0.0,0.0,0.0,2.4118,2.6462,2.4983,2.4593,2.5311,2.4593,2.4036,2.3753,2.371,2.3163,2.2011,0.0,0.0,0.0,0.0,0.0,0.0,0.0,0.0,0.0,0.0,0.0,0.0,0.0,0.0,0.0,0.0,0.0,0.0,0.0,0.0,0.0,0.0,0.0,0.0,0.0,0.0,1.726,1.6933,1.645,0.0,0.0,0.0,0.0,0.0,0.0,0.0,0.0,0.0,0.0,1.9108,1.8958,1.681,1.7429,1.7959,1.7567,1.6466,1.579,1.6149,1.5248,1.4637,0.0,0.0,0.0,0.0,0.0,0.0,0.0,0.0,0.0,0.0,0.0,0.0,0.0,0.0,0.0,0.0,0.0,0.0,0.0,0.0,0.0,0.0,0.0,0.0,0.0,0.0,0.0,2.2828,2.1931,0.0,0.0,0.0,0.0,0.0,0.0,0.0,0.0,0.0,0.0,0.0,2.4168,2.3745,0.0,0.0,0.0,0.0,0.0,0.0,0.0,0.0,0.0,0.0,0.0,0.0,2.421,2.6388,2.5019,2.4593,2.5348,2.4613,2.4036,2.3696,2.35,2.2835,2.1683,0.0,0.0,0.0,0.0,0.0,0.0,0.0,0.0,0.0,0.0,0.0,0.0,0.0,0.0,0.0,0.0,0.0,0.0,0.0,0.0,0.0,0.0,0.0,0.0,0.0,1.7984,0.0,0.0,0.0,0.0,0.0,0.0,0.0,0.0,0.0,0.0,0.0,1.9072,1.86,1.8537,1.8084,1.682,1.7019,1.7148,0.0,0.0,0.0,0.0,0.0,0.0,0.0,0.0,0.0,0.0,0.0,0.0,0.0,0.0,1.156,1.1671,1.1804,1.1864,1.1703,0.0,0.0,0.0,0.0,0.0,0.0,0.0,0.0,0.0,0.0,0.0,0.0,0.0,0.0,2.4592,0.0,2.1921,0.0,0.0,0.0,0.0,0.0,0.0,0.0,0.0,2.3933,2.4598,2.5034,2.5034,2.5034,0.0,2.5034,2.4541,0.0,0.0,0.0,0.0,0.0,0.0,0.0,0.0,2.4779,2.6458,2.5294,2.4957,2.557,2.4584,2.3816,2.3387,2.3056,2.2434,2.143,2.1003,2.0399,0.0,0.0,0.0,0.0,0.0,0.0,0.0,0.0,0.0,0.0,0.0,0.0,0.0,0.0,0.0,0.0,0.0,0.0,0.0,0.0,0.0,0.0,0.0,1.8085,0.0,0.0,0.0,0.0,0.0,0.0,0.0,0.0,0.0,1.9458,1.9353,1.9092,1.8494,1.8293,1.779,1.6633,0.0,0.0,0.0,0.0,0.0,0.0,0.0,1.5995,1.614,1.5821,1.5495,1.535,1.3847,1.2533,1.2093,0.0,0.0,1.154,1.1673,1.1776,1.16,1.2104,1.2274,1.1556,1.0661,0.9822,0.0,0.0,0.0,0.0,0.0,0.0,0.0,0.0,2.6427,2.5884,0.0,2.3046,0.0,0.0,0.0,0.0,0.0,2.434,0.0,0.0,2.5832,2.6649,2.6686,2.6612,2.6591,2.6591,2.6554,2.6497,2.6387,2.4188,0.0,0.0,0.0,0.0,0.0,0.0,2.5841,2.6591,2.5821,2.5622,2.6007,2.454,2.3387,2.2746,2.248,2.1955,2.1305,2.1885,2.1591,2.0094,1.872,0.0,0.0,0.0,0.0,0.0,0.0,0.0,0.0,0.0,0.0,0.0,0.0,0.0,0.0,0.0,0.0,0.0,0.0,0.0,0.0,1.7782,0.0,0.0,0.0,0.0,0.0,0.0,0.0,0.0,0.0,0.0,1.9047,1.9456,1.9316,1.8109,0.0,0.0,0.0,0.0,1.6567,1.5997,1.5985,1.6321,1.7203,1.6821,1.6519,1.6894,0.0,0.0,1.3544,1.2332,1.1695,1.1963,1.1694,1.1396,1.1424,1.1708,1.1848,1.1514,1.1723,1.1591,1.0479,0.9604,0.8509,2.7705,0.0,0.0,0.0,0.0,2.6169,2.6539,2.7224,2.6783,2.6393,2.6004,2.4949,0.0,0.0,0.0,0.0,0.0,0.0,2.5931,2.5941,2.6387,2.719,2.8255,2.7153,2.6447,2.6172,2.6186,2.6033,2.5815,2.5147,2.464,2.4373,0.0,0.0,0.0,0.0,2.6413,2.738,2.6177,2.5551,2.5679,2.4657,2.3658,2.2721,2.2453,2.2226,2.1989,2.2201,2.1827,2.0873,2.096,0.0,0.0,0.0,0.0,0.0,0.0,0.0,0.0,0.0,0.0,0.0,0.0,0.0,0.0,0.0,0.0,0.0,0.0,0.0,1.8262,1.8181,1.8264,0.0,0.0,0.0,0.0,0.0,0.0,0.0,0.0,0.0,1.9888,1.9793,1.9434,0.0,0.0,1.7664,1.6915,1.6532,1.6272,1.6038,1.6035,0.0,1.6026,1.6077,1.6317,1.6713,1.7025,1.6665,1.4921,1.4377,1.3731,1.2515,1.2128,1.2037,1.2042,1.1736,1.1587,1.1421,1.1708,1.1833,1.1408,1.0159,0.902,2.8448,2.753,2.72,2.7273,2.7471,2.6863,2.7046,2.7787,2.7647,2.739,2.7016,2.6209,2.5768,2.5621,2.5805,0.0,0.0,0.0,2.7112,2.7255,2.7292,2.7798,2.8585,2.7585,2.7079,2.6945,2.6785,2.664,2.6462,2.6262,2.6118,2.5922,0.0,0.0,2.5213,2.5888,2.6759,2.7661,2.6588,2.5914,2.577,2.4592,2.3604,2.3,2.2541,2.2327,2.2327,2.2327,2.209,2.1651,2.2044,2.1558,0.0,0.0,0.0,0.0,0.0,0.0,0.0,0.0,0.0,0.0,0.0,1.7148,1.7007,0.0,0.0,0.0,1.6818,1.7512,1.8098,1.8344,0.0,0.0,0.0,0.0,0.0,0.0,0.0,2.0532,2.0425,2.0243,1.9755,1.954,1.9183,1.8414,1.7801,1.7357,1.7042,0.0,1.6269,1.6154,1.6135,1.6037,1.5723,1.5898,1.6166,1.6354,1.6607,1.6381,1.4944,1.4294,1.3667,1.2613,1.2305,1.2305,1.2305,1.2011,1.1726,1.1761,1.1912,1.2056,1.205,1.0595,0.9342,2.9159,2.9195,2.8301,2.8338,2.8828,2.7405,2.7207,2.7934,2.8625,2.8529,2.7801,2.7061,2.7112,2.7757,2.7061,0.0,2.7793,2.7793,2.796,2.818,2.8314,2.8252,2.8118,2.7966,2.8029,2.8298,2.801,2.784,2.7747,2.7391,2.7078,2.6697,2.5965,2.5906,2.6526,2.6666,2.6992,2.7429,2.6929,2.6492,2.613,2.433,2.341,2.3376,2.2699,2.2327,2.2327,2.2327,2.2327,2.2327,2.2289,2.1949,2.1177,0.0,0.0,0.0,0.0,0.0,0.0,0.0,0.0,0.0,0.0,0.0,0.0,0.0,0.0,0.0,1.704,0.0,1.742,1.8367,0.0,0.0,0.0,2.1019,2.1638,2.1622,2.0963,1.9438,0.0,0.0,1.9136,1.8939,1.8632,1.7886,1.7492,1.7124,1.6877,1.6806,1.6641,1.6269,1.6213,1.6174,1.6096,1.6174,1.6215,1.6218,1.5633,1.5137,1.4128,1.3186,1.2526,1.2305,1.2305,1.2305,1.2305,1.2278,1.2305,1.2278,1.2291,1.2291,1.2191,1.0708,0.9342,3.065,3.1568,2.9549,2.8828,2.8938,2.8608,2.8535,2.8682,2.8312,2.8178,2.8214,2.7815,2.7683,2.7826,2.7683,2.7683,2.7861,2.7861,2.7977,2.8208,2.8073,2.7903,2.767,2.7819,2.7783,2.7572,2.7452,2.7303,2.6987,2.6856,2.6788,2.6681,2.6478,2.6312,2.6106,2.6813,2.7048,2.6879,2.6774,2.6377,2.5734,2.4215,2.341,2.341,2.2699,2.2327,2.2327,2.2327,2.2327,2.2327,2.2287,2.1804,2.0699,2.0075,0.0,0.0,0.0,0.0,0.0,0.0,0.0,0.0,0.0,1.7595,1.6909,0.0,1.8297,0.0,1.6831,1.7161,1.8385,1.8821,0.0,0.0,2.1296,2.1938,2.193,2.206,2.2159,2.2116,2.1326,2.0674,2.0257,1.9315,1.8489,1.7981,1.7816,1.7789,1.7969,1.7553,1.7187,1.7051,1.6777,1.6445,1.6172,1.6348,1.6728,1.7398,1.677,1.5982,1.4969,1.402,1.3153,1.2479,1.2305,1.2305,1.2305,1.2305,1.2305,1.2305,1.2305,1.2305,1.2231,1.072,0.9342,3.0703,3.139,3.0062,2.9304,2.8995,2.9004,2.8905,2.8688,2.8139,2.7994,2.8139,2.7982,2.7897,2.7897,2.7897,2.7897,2.7897,2.7897,2.7847,2.7771,2.7672,2.7566,2.7432,2.7387,2.7334,2.7303,2.7115,2.6923,2.6691,2.6691,2.6691,2.6691,2.7029,2.7028,2.6764,2.6946,2.6918,2.6715,2.669,2.6488,2.6082,2.4661,2.3883,2.3849,2.2868,2.2327,2.2327,2.2327,2.2327,2.2327,2.2327,2.1922,2.1048,2.0495,1.9849,0.0,0.0,0.0,0.0,0.0,0.0,0.0,0.0,0.0,0.0,0.0,1.919,1.7974,1.7693,1.8179,1.9519,1.9751,2.0116,2.0936,2.185,2.205,2.1313,2.1791,2.1839,2.0903,2.0455,2.0023,1.9509,1.8792,1.8268,1.8056,1.7927,1.8002,1.8192,1.7899,1.7598,1.7402,1.7187,1.6875,1.6426,1.6719,1.7019,1.7006,1.6437,1.567,1.4725,1.3741,1.2889,1.2392,1.2305,1.2305,1.2305,1.2305,1.2305,1.2305,1.2305,1.2305,1.2305,1.1202,1.011,3.0317,3.0388,3.0176,2.9819,2.9272,2.8959,2.8662,2.8324,2.7896,2.7788,2.7895,2.7895,2.7965,2.8035,2.8035,2.8035,2.8035,2.793,2.7717,2.7379,2.7276,2.7241,2.721,2.6891,2.6891,2.721,2.6891,2.6691,2.6691,2.6691,2.6725,2.686,2.7468,2.784,2.7943,2.73,2.6928,2.6826,2.6725,2.6691,2.6691,2.5338,2.4594,2.4455,2.3173,2.2429,2.2327,2.2338,2.2343,2.2315,2.2286,2.2049,2.1591,2.0839,2.0235,0.0,1.9116,0.0,0.0,0.0,0.0,0.0,0.0,0.0,0.0,1.9104,1.9585,1.8981,1.9123,1.9598,2.0533,2.0765,2.1082,2.1537,2.2096,2.1938,2.0878,2.1497,2.1197,1.8908,1.9162,1.9177,1.8596,1.8212,1.8008,1.8008,1.7988,1.7988,1.8008,1.7988,1.7852,1.75,1.7422,1.7187,1.6934,1.7129,1.71,1.6236,1.5633,1.4821,1.396,1.2977,1.2305,1.2305,1.2305,1.2305,1.2305,1.2331,1.2385,1.2364,1.239,1.2438,1.2358,1.1727,1.1265,3.1441,3.1901,3.0635,3.0419,3.0733,2.8916,2.8059,2.7946,2.7227,2.7279,2.7811,2.7811,2.8152,2.8801,2.8801,2.88,2.8767,2.8118,2.7743,2.7674,2.7097,2.6825,2.6825,2.6725,2.6758,2.6825,2.6725,2.6691,2.6691,2.6691,2.6996,2.7604,2.7705,2.8146,2.8721,0.0,0.0,0.0,2.7029,2.6691,2.6657,2.5845,2.5101,2.4523,2.3646,0.0,2.2333,2.2482,2.2533,2.2533,2.2248,0.0,0.0,0.0,0.0,0.0,0.0,0.0,0.0,0.0,0.0,0.0,1.9778,1.8884,1.8655,1.9364,1.9748,1.9661,2.0092,2.045,2.068,2.1452,2.2046,2.2163,2.2648,2.283,2.2625,2.2724,2.2652,2.2237,2.1055,2.0268,1.9944,1.8911,1.8008,1.8008,1.8008,1.8008,1.8008,1.8008,1.7969,1.7871,1.7617,1.7383,1.7266,1.7344,1.7207,1.6551,1.5721,1.4871,1.3814,1.2903,1.2305,1.2305,1.2305,1.2318,1.2318,1.2492,1.2732,1.2726,1.2857,1.2983,1.275,1.1877,1.1313,3.146,0.0,3.0974,3.0698,0.0,2.9868,2.911,2.8412,2.8004,2.8048,2.8383,2.8383,2.8619,2.8994,2.8994,2.8994,2.8994,2.8586,2.8383,2.8349,2.7604,2.7469,2.7807,2.7435,2.7435,2.7807,2.7807,2.7807,2.7841,2.7842,2.801,2.8383,2.8755,2.9127,2.9533,2.9533,2.8991,2.7806,2.7435,2.7063,2.6691,2.5981,2.5439,2.5033,2.4323,0.0,0.0,0.0,0.0,0.0,0.0,0.0,0.0,0.0,0.0,2.0466,2.0127,2.0218,2.0886,2.079,2.0831,2.1175,2.0302,1.9596,1.9335,1.9607,1.9961,2.0246,2.0754,2.1197,2.1494,2.2026,2.2416,2.2689,2.2915,2.2944,2.2555,2.2125,2.1667,2.1227,2.0074,1.9309,1.9309,1.8596,1.8008,1.8008,1.8008,1.8008,1.8008,1.8008,1.8008,1.8008,1.7852,1.7695,1.7695,1.7695,1.7196,1.6228,1.5542,1.4633,1.3257,1.264,1.2305,1.2318,1.2412,1.2532,1.2536,1.2812,1.2961,1.3002,1.3094,1.3225,1.316,1.2725,1.2251,3.119,3.119,3.119,3.0852,3.0345,3.0938,3.053,2.9367,0.0,0.0,0.0,2.9194,2.9299,2.9401,2.9364,2.9364,2.9401,2.9265,2.9194,2.9161,2.8383,2.8383,2.8924,2.8315,2.8349,2.8994,2.8994,2.8994,2.8994,2.8994,2.9059,2.9228,2.9803,3.0176,3.0277,3.0311,2.96,2.8245,2.8112,2.7638,2.6894,2.6319,2.5879,2.5609,2.5,2.4563,2.4365,2.3984,2.3749,2.3614,2.3187,2.278,2.2371,2.224,2.2026,2.1734,2.1695,2.1754,2.1844,2.1764,2.1469,2.0912,2.0305,1.9946,1.9809,1.9907,2.0215,2.083,2.1322,2.1848,2.2381,2.2455,2.2625,2.304,2.3125,2.2823,2.2187,2.1353,2.0719,1.9814,1.9044,1.824,1.8335,1.8172,1.8008,1.8027,1.8125,1.8125,1.8105,1.8066,1.8008,1.8008,1.7969,1.7988,1.8008,1.7988,1.7235,1.5579,1.5242,1.4514,1.2879,1.2385,1.2438,1.2412,1.2625,1.2852,1.2908,1.3081,1.3267,1.329,1.3305,1.3454,1.3654,1.3682,1.3296,3.119,3.119,3.119,3.1123,3.1055,3.1162,3.1094,3.0784,2.9539,2.9333,2.9939,2.9939,3.0311,3.0886,3.0886,3.0886,3.0818,3.0243,2.9939,2.9939,2.9161,2.8856,2.8994,2.8856,2.8856,2.8994,2.9028,2.8994,2.9028,2.9028,2.9296,2.9905,3.0074,3.0412,3.1021,3.1021,3.0615,2.9803,2.9161,2.845,2.7671,2.7536,2.686,2.5676,2.5507,2.4909,2.3852,2.3967,2.3851,2.3359,2.2989,2.2697,2.2626,2.2144,2.1774,2.1695,2.1695,2.1934,2.2503,2.2043,2.1655,2.1546,2.1,2.039,1.9889,2.0263,2.0785,2.135,2.1869,2.2392,2.293,2.2955,2.2955,2.3065,2.3125,2.3065,2.2884,2.2187,2.1565,2.14,2.0074,1.9093,1.8968,1.8516,1.8066,1.8086,1.8337,1.8531,1.8465,1.8242,1.8027,1.8008,1.8008,1.8008,1.8105,1.8008,1.7292,1.5508,1.5259,1.4689,1.2815,1.2629,1.2725,1.2719,1.2933,1.3094,1.3106,1.3332,1.3503,1.3522,1.3715,1.3908,1.3991,1.3948,1.351,3.119,3.119,3.119,3.119,3.119,3.119,3.119,3.1123,3.048,3.0378,3.0683,3.0683,3.0886,3.119,3.119,3.119,3.119,3.0852,3.0717,3.0649,2.9939,2.9803,3.0108,2.9803,2.9803,3.0176,3.0176,3.0176,3.0176,3.0176,3.0345,3.0683,3.0683,3.0852,3.119,3.119,3.1021,3.0717,2.9973,2.9228,2.8484,2.845,2.7943,2.6826,2.6793,2.6184,2.4972,2.4802,2.4435,2.3915,2.3455,2.3191,2.3161,2.2892,2.2712,2.2742,2.2742,2.2862,2.3161,2.2233,2.1769,2.1925,2.1222,2.0836,2.0965,2.1087,2.1381,2.1896,2.2431,2.2845,2.3065,2.3125,2.3125,2.3125,2.3125,2.3125,2.3005,2.2372,2.1808,2.1445,2.0445,1.9582,1.9306,1.894,1.8696,1.8734,1.8874,1.8972,1.899,1.8828,1.8613,1.8418,1.8535,1.8691,1.8691,1.8711,1.8105,1.6863,1.6134,1.5218,1.3872,1.343,1.3028,1.3053,1.324,1.336,1.3398,1.3652,1.3838,1.3917,1.3984,1.4082,1.3997,1.3222,1.2049,3.136,3.119,3.119,3.119,3.119,3.119,3.119,3.119,3.119,3.119,3.119,3.119,3.119,3.119,3.119,3.119,3.119,3.119,3.119,3.1123,3.0615,3.0649,3.1089,3.0615,3.0649,3.1157,3.119,3.119,3.119,3.119,3.119,3.119,3.119,3.119,3.119,3.119,3.119,3.1157,3.0649,3.0006,2.9262,2.9228,2.8856,2.8146,2.7902,2.7381,2.6339,2.5779,2.513,2.4471,2.4036,2.3759,2.361,2.361,2.361,2.361,2.361,2.3539,2.3348,2.2283,2.1745,2.1904,2.1268,2.1294,2.2089,2.1872,2.1857,2.2293,2.2735,2.3065,2.3125,2.3125,2.3125,2.309,2.319,2.3351,2.3265,2.2663,2.2034,2.1464,2.0608,1.9948,1.9422,1.9273,1.9271,1.9402,1.9445,1.9469,1.9422,1.9492,1.9394,1.9102,1.9141,1.9219,1.9277,1.9258,1.8708,1.7766,1.6753,1.5643,1.4545,1.365,1.3347,1.328,1.3547,1.3721,1.3761,1.3908,1.4055,1.4082,1.4082,1.4095,1.4095,1.273,1.0926,3.1799,3.1224,3.1258,3.119,3.1224,3.1224,3.1258,3.1224,3.119,3.119,3.119,3.119,3.119,3.119,3.119,3.119,3.119,3.119,3.119,3.119,3.1123,3.1123,3.119,3.1089,3.1123,3.119,3.119,3.119,3.119,3.119,3.119,3.119,3.119,3.119,3.119,3.119,3.119,3.119,3.1123,3.0751,3.004,3.0006,2.9634,2.889,2.8339,2.7807,2.7089,2.6596,2.5782,2.4687,2.4582,2.4268,2.3699,2.361,2.361,2.364,2.364,2.3333,2.2728,2.2019,2.1459,2.1087,2.1343,2.1873,2.2815,2.2545,2.2217,2.2402,2.282,2.3065,2.3125,2.3115,2.319,2.3326,2.3653,2.3929,2.3829,2.3563,2.2971,2.2026,2.1172,2.0327,1.9581,1.937,1.9531,1.981,1.987,1.9889,1.9905,2.0117,2.0176,1.971,1.9457,1.9355,1.9355,1.9297,1.8712,1.711,1.6319,1.5605,1.4516,1.3858,1.3561,1.3585,1.3814,1.3988,1.4015,1.4082,1.4082,1.4082,1.4095,1.4179,1.4202,1.3153,1.161,3.278,3.251,3.251,3.2334,3.2124,3.2367,3.2347,3.2083,3.1907,3.1596,3.1224,3.119,3.119,3.119,3.119,3.119,3.119,3.119,3.119,3.119,3.119,3.119,3.119,3.119,3.119,3.119,3.119,3.119,3.119,3.119,3.119,3.119,3.119,3.119,3.119,3.119,3.0858,3.0186,3.0501,3.0344,2.9831,3.0046,2.9876,2.917,2.8559,2.7753,2.6848,2.651,2.603,2.5272,2.5196,2.5076,2.4807,2.4777,2.4777,2.4731,2.4381,2.3856,2.3252,2.2483,2.1975,2.1731,2.1863,2.2311,2.3025,2.2883,2.2783,2.283,2.2955,2.3251,2.3577,2.3642,2.3729,2.4067,2.4356,2.4481,2.4506,2.3855,2.3115,2.2475,2.1553,2.0834,2.0262,2.0039,2.0099,2.0294,2.0353,2.0256,2.0332,2.0449,2.0469,2.0312,2.0137,2.0059,2.0019,2.0039,1.9545,1.8819,1.7631,1.6379,1.5743,1.442,1.3931,1.3908,1.4001,1.4082,1.4068,1.4082,1.4082,1.4122,1.4277,1.4277,1.3802,1.27,1.1248,3.3592,3.3423,3.3389,3.3212,3.2925,3.3246,3.3228,3.2897,3.2686,3.2273,3.1833,3.1799,3.1664,3.1495,3.1292,3.119,3.119,3.119,3.119,3.119,3.119,3.119,3.119,3.119,3.119,3.119,3.119,3.119,3.119,3.119,3.119,3.119,3.1072,3.1026,3.1167,3.0905,3.0336,2.9717,2.988,2.9848,2.9496,2.9673,2.9664,2.9261,2.8682,2.7929,2.7009,2.6796,2.6457,2.5884,2.5884,2.5794,2.5615,2.5615,2.5615,2.5491,2.4742,2.4154,2.381,2.291,2.2429,2.2506,2.2548,2.2698,2.3015,2.324,2.3304,2.3343,2.3462,2.3771,2.3927,2.4137,2.4386,2.4731,2.4928,2.4968,2.4641,2.4232,2.3792,2.2728,2.1923,2.1308,2.0777,2.0527,2.0547,2.0547,2.0566,2.0644,2.0723,2.0762,2.0742,2.0625,2.0644,2.0664,2.0605,2.0508,2.0566,1.9982,1.8593,1.7553,1.7172,1.534,1.4277,1.4196,1.4166,1.4148,1.4242,1.4229,1.4282,1.4408,1.4507,1.4521,1.4216,1.257,1.1376,3.4032,3.3457,3.3423,3.3491,3.3423,3.3457,3.3423,3.3389,3.3355,3.3322,3.3186,3.322,3.2882,3.2205,3.1596,3.119,3.119,3.119,3.119,3.119,3.119,3.119,3.119,3.119,3.119,3.119,3.1292,3.1258,3.1151,3.1151,3.119,3.1151,3.0601,3.0634,3.0907,3.0098,2.9669,2.9733,2.956,2.9406,2.9271,2.881,2.8826,2.9175,2.8748,2.8387,2.8261,2.7838,2.722,2.6572,2.6542,2.6303,2.5734,2.5627,2.5657,2.5533,2.4405,2.3865,2.4121,2.3076,2.2556,2.2949,2.3025,2.31,2.309,2.3566,2.3866,2.3934,2.438,2.4519,2.4198,2.4558,2.4803,2.4944,2.5301,2.5093,2.4414,2.5153,2.4823,2.2787,2.2071,2.1659,2.0722,2.0566,2.0586,2.0605,2.0605,2.0762,2.1113,2.1211,2.1012,2.0893,2.0953,2.1074,2.0703,2.0566,2.0157,1.9706,1.9256,1.8224,1.683,1.5565,1.5007,1.4514,1.4399,1.4309,1.4442,1.4549,1.4656,1.4723,1.4878,1.4803,1.4397,1.2819,1.1628,3.5047,3.481,3.481,3.481,3.481,3.481,3.4539,3.4134,3.41,3.3829,3.3457,3.3389,3.3254,3.2983,3.2747,3.207,3.1258,3.119,3.119,3.119,3.119,3.119,3.1258,3.1805,3.1772,3.1326,3.1664,3.147,3.0675,3.0601,3.0435,3.0064,2.9848,2.9858,2.9955,2.9637,2.9116,2.8576,2.867,2.8654,2.8288,2.8027,2.8027,2.8222,2.8057,2.7959,2.7959,2.771,2.749,2.723,2.725,2.7111,2.6852,2.6394,2.6192,2.6039,2.4856,2.4144,2.4193,2.3386,2.2924,2.304,2.3125,2.315,2.3201,2.3649,2.3979,2.414,2.4863,2.5149,2.509,2.5236,2.5492,2.5753,2.5453,2.5126,2.4637,2.4322,2.3431,2.2231,2.1624,2.1031,2.0839,2.0566,2.0684,2.0957,2.1012,2.1144,2.1481,2.166,2.1559,2.1539,2.1539,2.1602,2.1465,2.0859,2.043,2.033,1.9874,1.894,1.7664,1.6601,1.595,1.4878,1.465,1.4603,1.4776,1.4856,1.4977,1.5124,1.5281,1.4734,1.4507,1.2756,1.157,3.5622,3.5622,3.5622,3.5622,3.5622,3.5622,3.5318,3.4878,3.4844,3.4573,3.4167,3.4134,3.3998,3.3795,3.3761,3.3119,3.1968,3.1901,3.1901,3.1901,3.1759,3.1645,3.1724,3.236,3.2202,3.1432,3.1722,3.1506,3.0773,3.0663,3.0441,3.011,2.9702,2.9422,2.9391,2.9234,2.8587,2.7887,2.8229,2.8252,2.767,2.756,2.756,2.761,2.756,2.756,2.756,2.756,2.756,2.756,2.756,2.7509,2.7255,2.6759,2.639,2.6068,2.5021,2.4279,2.4221,2.3543,2.3065,2.309,2.3326,2.3376,2.3447,2.4086,2.4478,2.4725,2.5281,2.5852,2.5921,2.5895,2.6058,2.6346,2.5886,2.5134,2.4564,2.3497,2.2553,2.17,2.1171,2.086,2.0801,2.0957,2.1135,2.1364,2.1441,2.1587,2.2006,2.209,2.2193,2.2212,2.2193,2.2197,2.1875,2.1244,2.041,2.0242,1.9633,1.8894,1.8275,1.7293,1.644,1.5431,1.5003,1.503,1.5084,1.5164,1.5311,1.5471,1.4968,1.4359,1.3566,1.2459,1.1217,3.5622,3.5622,3.5622,3.5622,3.5622,3.5622,3.5577,3.5554,3.5554,3.5453,3.5318,3.5487,3.5047,3.4607,3.4506,3.41,3.3525,3.3339,3.3204,3.3026,3.2774,3.2474,3.2241,3.243,3.2232,3.1486,3.1454,3.1406,3.123,3.1198,3.115,3.1005,2.998,2.9366,2.9327,2.8888,2.8427,2.8122,2.8539,2.8359,2.773,2.779,2.782,2.776,2.7679,2.7649,2.7619,2.759,2.756,2.756,2.756,2.7255,2.6707,2.6443,2.6122,2.5384,2.4681,2.4279,2.4163,2.3543,2.309,2.3215,2.3678,2.3952,2.4101,2.4887,2.5394,2.5506,2.5965,2.6458,2.6458,2.6302,2.6327,2.644,2.6164,2.5276,2.4036,2.3452,2.2734,2.1286,2.1056,2.117,2.1269,2.1471,2.179,2.187,2.1864,2.2073,2.2368,2.2519,2.2644,2.2853,2.2729,2.2565,2.2058,2.1473,2.0624,1.984,1.9085,1.8364,1.773,1.6992,1.6501,1.5626,1.5244,1.5271,1.5378,1.5471,1.5297,1.5308,1.4584,1.3755,1.2587,1.1424,1.0627,3.5622,3.5622,3.5622,3.5622,3.5622,3.5622,3.5622,3.5622,3.5622,3.5622,3.5622,3.5622,3.5487,3.5318,3.5284,3.5104,3.4901,3.4442,3.3715,3.2895,3.3057,3.2667,3.1901,3.1821,3.1983,3.2045,3.1613,3.1177,3.0861,3.081,3.0576,3.0134,2.978,2.9049,2.8432,2.8919,2.9522,3.0152,2.9606,2.9146,2.8966,2.8936,2.8936,2.8906,2.8517,2.8278,2.8278,2.7829,2.764,2.756,2.756,2.7255,2.6578,2.6014,2.5412,2.4681,2.3872,2.3484,2.3484,2.333,2.3326,2.3653,2.3904,2.4167,2.4582,2.5174,2.5594,2.5629,2.6108,2.6533,2.6421,2.5825,2.5754,2.6421,2.5276,2.4325,2.357,2.2637,2.1883,2.165,2.1627,2.168,2.1699,2.1927,2.2063,2.2305,2.2303,2.2476,2.2756,2.291,2.2949,2.3075,2.293,2.2573,2.1892,2.0916,1.9851,1.9205,1.8485,1.7731,1.7161,1.68,1.6392,1.6006,1.5617,1.5524,1.5645,1.5631,1.5507,1.4829,1.4159,1.298,1.1549,1.0538,0.964,3.5622,3.5622,3.5622,3.5622,3.5622,3.5622,3.5622,3.5622,3.5622,3.5622,3.5622,3.5622,3.5622,3.5622,3.5622,3.5453,3.5144,3.4544,3.3616,3.2692,3.3145,3.2848,3.1899,3.1581,3.1852,3.2269,3.18,3.1248,3.0907,3.0853,3.0721,3.0338,3.0043,2.9754,2.9072,2.964,3.0473,3.1226,3.0443,2.9804,2.9624,2.9594,2.9594,2.9535,2.9175,2.8966,2.8936,2.8547,2.8098,2.7629,2.7357,2.6707,2.5769,2.5217,2.4681,2.393,2.3424,2.3125,2.315,2.3351,2.3577,2.3979,2.4356,2.4757,2.5169,2.5627,2.5827,2.5526,2.5664,2.5753,2.5335,2.4897,2.4748,2.5228,2.4319,2.3519,2.326,2.2154,2.171,2.199,2.2205,2.2134,2.2129,2.2305,2.2422,2.2648,2.2737,2.2785,2.3038,2.3125,2.3057,2.2862,2.2454,2.2026,2.153,2.0373,1.9007,1.8407,1.7856,1.7204,1.6593,1.6504,1.6183,1.5954,1.5685,1.5671,1.5765,1.5684,1.5534,1.4626,1.3527,1.2159,1.09,0.9682,0.8855,3.569,3.5656,3.5622,3.5622,3.5622,3.5622,3.5622,3.5622,3.5622,3.5622,3.5622,3.5487,3.5487,3.5532,3.5316,3.5005,3.4544,3.382,3.3255,3.2845,3.3014,3.2867,3.2276,3.1723,3.184,3.2259,3.1758,3.1504,3.1384,3.1357,3.1482,3.13,3.0821,3.0851,3.0917,3.0821,3.0874,3.1283,3.0844,3.0313,2.9864,2.9804,2.9804,2.9804,2.9684,2.9624,2.9624,2.9415,2.8876,2.7838,2.7068,2.5964,2.4872,2.4443,2.4197,2.3558,2.3251,2.3326,2.3376,2.3778,2.4104,2.4305,2.4983,2.5652,2.5703,2.5877,2.5787,2.5111,2.5013,2.4584,2.3979,2.3559,2.3599,2.3393,2.3372,2.3326,2.3199,2.2025,2.2029,2.2656,2.2709,2.2539,2.2559,2.2832,2.3008,2.2979,2.3018,2.3038,2.295,2.295,2.295,2.2492,2.1747,2.0962,2.0248,1.9521,1.8319,1.7995,1.7442,1.6743,1.625,1.6211,1.6157,1.594,1.5832,1.5832,1.5724,1.5534,1.4949,1.3776,1.2587,1.1414,1.0164,0.9023,0.8443,3.6468,3.64,3.5859,3.5622,3.5622,3.5622,3.5622,3.5622,3.5622,3.5622,3.5532,3.5052,3.4958,3.4783,3.4399,3.4003,3.3719,3.3182,3.2788,3.2516,3.216,3.1992,3.1796,3.1625,3.1567,3.1739,3.1625,3.1482,3.1482,3.1482,3.1482,3.1482,3.133,3.13,3.1422,3.133,3.13,3.1447,3.1387,3.118,3.1001,3.0971,3.1031,3.0971,3.0522,3.0283,3.0193,2.9516,2.9188,2.8949,2.6969,2.6159,2.6163,2.5708,2.5013,2.4381,2.433,2.4356,2.4381,2.4506,2.4757,2.5134,2.5435,2.5762,2.6257,2.5693,2.53,2.4874,2.4399,2.3921,2.3841,2.3328,2.2855,2.2453,2.272,2.2583,2.1868,2.1964,2.2414,2.2928,2.2992,2.2891,2.2969,2.3027,2.3144,2.3144,2.3144,2.295,2.2775,2.2315,2.2031,2.1266,2.0515,1.9636,1.891,1.8272,1.7762,1.7591,1.7001,1.625,1.5994,1.5927,1.5927,1.5832,1.5832,1.5832,1.5439,1.5045,1.398,1.2813,1.1628,1.0449,0.9296,0.8137,0.8137,3.6772,3.6705,3.5926,3.5622,3.5622,3.5622,3.5622,3.5622,3.5622,3.5622,3.5532,3.5191,3.483,3.4559,3.4202,3.37,3.3182,3.2788,3.2437,3.2048,3.1739,3.1539,3.1539,3.1482,3.1482,3.1482,3.1482,3.1482,3.1482,3.1482,3.1482,3.1482,3.1482,3.1482,3.1482,3.1482,3.1482,3.1509,3.1482,3.1482,3.1482,3.1482,3.1452,3.1422,3.1063,3.0798,3.0452,3.0104,2.9667,2.8683,2.7484,2.6699,2.6126,2.5746,2.5231,2.4833,2.4833,2.4808,2.4883,2.5008,2.5285,2.5586,2.5787,2.5884,2.5812,2.5253,2.4873,2.3965,2.3444,2.322,2.3112,2.2716,2.2316,2.2099,2.2351,2.219,2.1221,2.1967,2.2585,2.2952,2.3103,2.3144,2.3144,2.3144,2.3144,2.3144,2.3144,2.2775,2.2315,2.1658,2.0819,2.0048,1.9232,1.8394,1.7719,1.7145,1.6936,1.6842,1.6763,1.5818,1.5832,1.5832,1.5724,1.5724,1.5724,1.5534,1.4854,1.4076,1.3199,1.193,1.0654,0.9583,0.8619,0.8038,0.8038,3.7009,3.6941,3.6197,3.5746,3.5791,3.5645,3.5611,3.5622,3.5622,3.5622,3.5532,3.5407,3.4864,3.4496,3.3921,3.3515,3.2492,3.2382,3.2048,3.1739,3.1539,3.1482,3.1482,3.1482,3.1482,3.1482,3.1482,3.1482,3.1482,3.1482,3.1482,3.1482,3.1482,3.1482,3.1482,3.1482,3.1482,3.1482,3.1482,3.1482,3.1482,3.1482,3.1482,3.1452,3.1218,3.0719,3.0416,3.0459,2.9922,2.7363,2.7973,2.7093,2.5396,2.5228,2.5059,2.5109,2.5159,2.5134,2.5109,2.5511,2.5686,2.5837,2.6195,2.6099,2.5397,2.4894,2.4197,2.3238,2.273,2.2533,2.233,2.2078,2.2178,2.222,2.2467,2.2344,2.2207,2.2344,2.2703,2.3057,2.3075,2.3105,2.3144,2.3144,2.3144,2.3057,2.2901,2.2213,2.1535,2.0674,1.972,1.876,1.7949,1.7145,1.6584,1.6021,1.6075,1.6103,1.6103,1.5832,1.5832,1.5724,1.5629,1.5534,1.514,1.4555,1.3692,1.2909,1.2037,1.1161,0.9887,0.9106,0.8329,0.8137,0.8038,3.8531,3.8464,3.7719,3.7077,3.6502,3.5891,3.5621,3.5622,3.5577,3.5498,3.5362,3.4544,3.4003,3.3719,3.2864,3.1992,3.1853,3.1796,3.1597,3.1567,3.1482,3.1482,3.1482,3.1482,3.1482,3.1482,3.1482,3.1482,3.1482,3.1482,3.1482,3.1482,3.1482,3.1482,3.1482,3.1482,3.1482,3.1482,3.1482,3.1482,3.1482,3.1482,3.1482,3.1394,3.0837,3.0058,2.9442,2.9422,2.8839,2.7873,2.722,2.6882,2.6712,2.6324,2.6055,2.5988,2.6038,2.6063,2.6113,2.6138,2.6289,2.6177,2.5895,2.5756,2.5465,2.4371,2.3677,2.3008,2.2542,2.229,2.2369,2.262,2.2737,2.2746,2.2871,2.293,2.2891,2.293,2.2969,2.3027,2.3066,2.3144,2.3144,2.3018,2.295,2.2989,2.2391,2.1644,2.0671,1.9588,1.8732,1.7687,1.7051,1.6438,1.625,1.5778,1.5792,1.5832,1.5832,1.5465,1.5465,1.5439,1.5153,1.4758,1.4268,1.3488,1.2619,1.1648,1.0681,0.9895,0.9213,0.8627,0.8131,0.8038,0.8006,3.9005,3.887,3.7821,3.7144,3.6705,3.5971,3.5633,3.5464,3.491,3.4851,3.4878,3.4053,3.3443,3.3077,3.2382,3.191,3.1539,3.1482,3.1539,3.1482,3.1482,3.1482,3.1482,3.1482,3.1482,3.1482,3.1482,3.1482,3.1482,3.1482,3.1482,3.1482,3.1482,3.1482,3.1482,3.1482,3.1482,3.1482,3.1482,3.1482,3.1482,3.1482,3.1219,3.0718,2.9842,2.8812,2.8427,2.7999,2.763,2.7178,2.6713,2.6688,2.6976,2.6782,2.6508,2.6533,2.6533,2.6533,2.644,2.6119,2.5819,2.6088,2.5512,2.4906,2.4664,2.3928,2.3557,2.296,2.2574,2.2332,2.2765,2.2911,2.3057,2.3144,2.3144,2.3144,2.3144,2.3144,2.3144,2.3144,2.3125,2.3144,2.3038,2.2698,2.2302,2.2002,2.0979,2.0309,1.9379,1.8411,1.7669,1.6922,1.6278,1.5913,1.5913,1.5818,1.5818,1.5832,1.5832,1.5204,1.4762,1.4712,1.458,1.3992,1.3199,1.2231,1.1365,1.0386,0.9608,0.8916,0.8428,0.8137,0.8045,0.7952,0.7971,3.9174,3.9039,3.7787,3.7212,3.7009,3.632,3.5857,3.545,3.4164,3.4038,3.4235,3.3719,3.3108,3.268,3.2437,3.2023,3.1625,3.1482,3.1482,3.1482,3.1482,3.1482,3.1482,3.1482,3.1482,3.1482,3.1482,3.1482,3.1482,3.1482,3.1482,3.1482,3.1482,3.1482,3.1482,3.1482,3.1482,3.1482,3.1482,3.1336,3.1219,3.1219,3.0777,2.9628,2.8748,2.7802,2.7471,2.7027,2.6577,2.6533,2.6533,2.6533,2.6533,2.6533,2.6533,2.6533,2.6533,2.6302,2.6074,2.5632,2.5349,2.546,2.4861,2.4193,2.3823,2.3752,2.3433,2.3041,2.2589,2.2716,2.3075,2.3144,2.3144,2.3144,2.3144,2.3144,2.3057,2.295,2.2775,2.3144,2.3038,2.3038,2.2553,2.202,2.1535,2.0884,1.987,1.8964,1.8133,1.7311,1.6763,1.648,1.6008,1.5832,1.5832,1.5629,1.5724,1.5292,1.5399,1.4604,1.3796,1.3105,1.277,1.2727,1.2037,1.1072,1.0297,0.9509,0.8825,0.8137,0.8038,0.8038,0.7945,0.7965,0.8037,3.9884,3.9884,3.9614,3.9174,3.8565,3.7846,3.6783,3.5563,3.4137,3.3695,3.37,3.3055,3.268,3.2437,3.191,3.1567,3.1509,3.1482,3.1569,3.1599,3.1629,3.1629,3.1779,3.1689,3.1629,3.1482,3.1511,3.1571,3.1541,3.1482,3.1719,3.1541,3.1541,3.1541,3.1482,3.1482,3.1452,3.1306,3.1336,3.1102,3.0569,3.0329,2.978,2.8492,2.7868,2.7338,2.6824,2.6577,2.6533,2.6533,2.6533,2.6533,2.6465,2.6465,2.6446,2.654,2.6471,2.6148,2.5634,2.5444,2.5024,2.4672,2.4219,2.4211,2.3826,2.3551,2.3268,2.3176,2.2938,2.3024,2.3086,2.3144,2.3144,2.3144,2.3144,2.3144,2.2969,2.2403,2.212,2.258,2.2736,2.2591,2.1789,2.0979,2.0348,1.9602,1.8675,1.8087,1.7546,1.6828,1.6197,1.6008,1.5832,1.5832,1.5832,1.5629,1.5412,1.4564,1.4183,1.338,1.2467,1.1246,1.0753,1.0895,1.0681,0.9903,0.9221,0.8733,0.8457,0.8085,0.8065,0.8045,0.8072,0.8126,0.8033,4.0087,4.002,3.9681,3.9343,3.8922,3.8221,3.7269,3.5923,3.3666,3.2917,3.3091,3.2536,3.2023,3.1966,3.1682,3.1482,3.1482,3.1482,3.1749,3.2018,3.2078,3.2406,3.2586,3.2347,3.2317,3.2347,3.2258,3.2048,3.2108,3.2437,3.2287,3.2078,3.2048,3.1898,3.1541,3.1482,3.1131,3.0896,3.0748,3.045,2.9628,2.9254,2.8363,2.7934,2.7297,2.6918,2.6645,2.6533,2.6533,2.6533,2.6533,2.6533,2.6402,2.6272,2.6279,2.6681,2.6374,2.6069,2.5436,2.5164,2.4271,2.4104,2.3598,2.3321,2.3373,2.3248,2.3125,2.3144,2.3144,2.3144,2.3144,2.3144,2.3144,2.3144,2.3057,2.3057,2.2775,2.1943,2.1658,2.164,2.1105,2.0713,2.0518,1.9737,1.9239,1.8365,1.7421,1.7131,1.6893,1.6452,1.5832,1.5832,1.5832,1.5629,1.5534,1.514,1.4518,1.3683,1.3014,1.22,1.1423,1.0328,0.949,0.9229,0.8825,0.8885,0.8634,0.8244,0.8185,0.814,0.816,0.8174,0.8147,0.8119,0.7824,4.0087,4.002,3.9445,3.9208,3.9158,3.8605,3.7727,3.6214,3.3388,3.2471,3.3043,3.2249,3.1779,3.1779,3.1869,3.187,3.1721,3.1869,3.2258,3.2526,3.2706,3.3186,3.3487,3.3366,3.2916,3.3155,3.3215,3.2826,3.2796,3.3095,3.3095,3.2856,3.2706,3.2288,3.1783,3.1486,3.0775,3.0176,2.9879,2.9566,2.8748,2.7934,2.7497,2.7404,2.685,2.6533,2.6533,2.6533,2.6533,2.6421,2.6238,2.6148,2.6177,2.578,2.592,2.6578,2.5944,2.5808,2.5256,2.4645,2.3777,2.3557,2.2715,2.2668,2.2882,2.3193,2.3144,2.3144,2.3144,2.3144,2.3144,2.3144,2.3144,2.3038,2.2862,2.2599,2.2138,2.1302,2.0099,1.9827,1.9281,1.9076,1.8938,1.8832,1.8317,1.7542,1.6592,1.6483,1.6264,1.6183,1.5832,1.5832,1.5724,1.5534,1.514,1.4459,1.3634,1.2406,1.1686,1.1072,1.0319,0.954,0.8989,0.8477,0.8491,0.8526,0.814,0.8099,0.8201,0.8269,0.8296,0.8303,0.8296,0.7559,0.6781,4.0087,4.0087,3.9986,3.9952,3.9935,3.9807,3.8614,3.6589,3.427,3.2968,3.2884,3.2526,3.2407,3.2497,3.2946,3.2856,3.2706,3.2826,3.2946,3.2886,3.3185,3.3514,3.3666,3.3484,3.3514,3.3754,3.4023,3.3844,3.3511,3.3481,3.3483,3.3272,3.3028,3.2877,3.1777,3.1401,3.0734,2.9923,2.9315,2.8684,2.7894,2.7172,2.6858,2.6746,2.6703,2.6684,2.6666,2.6666,2.6615,2.6382,2.5565,2.5347,2.5486,2.5158,2.5224,2.547,2.5215,2.4525,2.4111,2.3843,2.3494,2.3128,2.2812,2.294,2.3018,2.3144,2.3144,2.3144,2.3144,2.3144,2.3057,2.3057,2.3057,2.2599,2.2031,2.1676,2.1212,2.0223,1.9023,1.838,1.7933,1.7842,1.7675,1.7598,1.7383,1.6584,1.594,1.5832,1.5832,1.5832,1.5832,1.5832,1.5343,1.5045,1.4364,1.3788,1.2673,1.125,1.0547,0.9962,0.9462,0.8984,0.8827,0.8411,0.8397,0.833,0.833,0.8337,0.8446,0.8508,0.8438,0.8452,0.8347,0.7315,0.6364,4.0087,4.0087,4.0087,4.0087,4.0087,4.0138,3.9088,3.7259,3.5455,3.4273,3.3636,3.3215,3.3066,3.3185,3.3425,3.3335,3.3185,3.3425,3.3604,3.3604,3.3903,3.4262,3.4502,3.4292,3.4173,3.4409,3.4468,3.4179,3.3903,3.3674,3.3644,3.32,3.2724,3.1971,3.1433,3.1012,3.019,2.9173,2.8146,2.7613,2.7413,2.7221,2.7067,2.7344,2.7369,2.7344,2.7318,2.7151,2.689,2.6554,2.5914,2.5512,2.5142,2.4701,2.4471,2.4581,2.4135,2.393,2.4096,2.3716,2.3288,2.3024,2.3027,2.3105,2.3144,2.3144,2.3144,2.3144,2.3144,2.3057,2.2901,2.2447,2.2143,2.1731,2.1033,2.0584,1.9951,1.8764,1.787,1.7217,1.6749,1.6757,1.6793,1.6714,1.6729,1.6317,1.5832,1.5832,1.5832,1.5832,1.5832,1.5832,1.514,1.4459,1.3488,1.2716,1.1619,1.0422,0.96,0.9045,0.882,0.8533,0.8481,0.8481,0.8554,0.8563,0.8536,0.8474,0.8486,0.8533,0.8581,0.8508,0.8448,0.8112,0.6679,3.9506,3.9558,3.9901,4.0003,3.9848,3.9982,3.9101,3.7413,3.6014,3.5055,3.4505,3.3963,3.3814,3.3993,3.4053,3.4023,3.3754,3.3903,3.4143,3.4442,3.4711,3.4981,3.5006,3.4822,3.4534,3.5133,3.4076,3.3781,3.3539,3.335,3.2986,3.2947,3.2414,3.1598,3.0964,3.0554,2.9912,2.8525,2.7633,2.7379,2.749,2.7566,2.772,2.7946,2.8097,2.8122,2.8024,2.7459,2.6916,2.6566,2.5592,2.4937,2.4596,2.4093,2.3825,2.3804,2.3413,2.3574,2.3705,2.3527,2.3212,2.3144,2.3144,2.3144,2.3144,2.3144,2.3144,2.3144,2.3144,2.2969,2.2568,2.1807,2.1302,2.0671,1.977,1.9405,1.8856,1.7762,1.7044,1.6669,1.6292,1.6103,1.6075,1.59,1.5913,1.5818,1.5832,1.5832,1.5724,1.5629,1.5343,1.5248,1.4675,1.363,1.2247,1.1334,1.0314,0.9731,0.8892,0.8582,0.8567,0.8608,0.8553,0.8642,0.8703,0.8682,0.8721,0.8615,0.8621,0.871,0.8791,0.8722,0.8673,0.8084,-0.0,3.7994,3.8108,3.9506,3.961,3.9028,3.9813,3.875,3.6783,3.5858,3.5145,3.4655,3.4442,3.4741,3.513,3.507,3.4861,3.4442,3.507,3.4921,3.4861,3.507,3.521,3.4978,3.4522,3.3994,3.3945,3.3403,3.2975,3.2593,3.2092,3.2136,3.2396,3.1973,3.1739,3.1135,3.0322,2.9568,2.8507,2.7893,2.7871,2.7996,2.8047,2.8122,2.8172,2.8172,2.8122,2.8049,2.7233,2.65,2.624,2.493,2.403,2.3971,2.3608,2.3342,2.3229,2.3181,2.3299,2.328,2.328,2.3125,2.3144,2.3144,2.3144,2.3144,2.3057,2.3057,2.2813,2.253,2.2208,2.175,2.1157,2.0337,1.9563,1.8656,1.8041,1.7576,1.6936,1.6197,1.6021,1.5927,1.5832,1.5899,1.5912,1.5858,1.5845,1.5737,1.5724,1.5439,1.5235,1.4663,1.4376,1.3908,1.2824,1.0907,1.002,0.9625,0.9353,0.8787,0.8618,0.8689,0.8666,0.8673,0.8776,0.8838,0.8872,0.8893,0.8832,0.8825,0.8816,0.8759,0.8282,0.6391,0.463,-0.0,3.7822,3.7879,3.8446,3.8469,3.8254,3.8558,3.7865,3.66,3.5852,3.5409,3.507,3.513,3.525,3.5459,3.5489,3.54,3.516,3.534,3.528,3.4961,3.4883,3.461,3.4245,3.3768,3.3087,3.3017,3.2664,3.2164,3.1683,3.1241,3.0921,3.0996,3.1071,3.0696,3.0239,2.9931,2.9223,2.8847,2.8348,2.8247,2.8599,2.8624,2.8775,2.9126,2.8313,2.8135,2.7927,2.7041,2.6222,2.5414,2.4513,2.4011,2.3499,2.3221,2.3125,2.3144,2.3144,2.3144,2.3144,2.3144,2.3144,2.3144,2.3144,2.3038,2.2824,2.2403,2.206,2.1789,2.1373,2.0838,2.0348,1.9494,1.8722,1.8164,1.7546,1.6936,1.648,1.6021,1.598,1.5912,1.5967,1.5927,1.6021,1.6115,1.5939,1.5872,1.575,1.5547,1.5178,1.452,1.387,1.3149,1.2594,1.2063,1.0323,0.9571,0.9109,0.8848,0.8675,0.8669,0.8783,0.8809,0.8816,0.894,0.8836,0.8712,0.8719,0.8856,0.8876,0.889,0.8103,0.7187,0.4739,-0.0,-0.0,3.7115,3.7115,3.7115,3.7235,3.7476,3.771,3.7219,3.6289,3.5718,3.5489,3.5489,3.5489,3.5489,3.5489,3.5489,3.5489,3.5429,3.5489,3.5264,3.4876,3.4351,3.3876,3.3394,3.2735,3.2164,3.2191,3.1756,3.1267,3.0846,3.0771,3.0495,3.0062,2.9779,2.9856,2.9756,2.9428,2.9176,2.9076,2.8925,2.875,2.9176,2.8795,2.8691,2.8929,2.8092,2.7589,2.7221,2.6386,2.5583,2.5019,2.432,2.3846,2.3367,2.3144,2.3144,2.3144,2.3144,2.3144,2.3144,2.3144,2.3144,2.3144,2.258,2.2328,2.1882,2.123,2.0828,2.0687,2.0019,1.9329,1.9039,1.8365,1.7675,1.7246,1.6734,1.6103,1.6103,1.5832,1.5925,1.5992,1.6061,1.6088,1.5932,1.5953,1.5699,1.5473,1.5281,1.5005,1.4461,1.3803,1.2734,1.1924,1.1208,1.0467,0.9721,0.9302,0.8885,0.8883,0.8817,0.8852,0.8886,0.892,0.8947,0.8954,0.8739,0.8412,0.8196,0.7979,0.8444,0.891,0.7086,-0.0,-0.0,-0.0,-0.0,3.5619,3.5554,3.5619,3.6006,3.6662,3.7466,3.6908,3.5683,3.5554,3.5489,3.5489,3.5489,3.5489,3.5489,3.5489,3.5489,3.5489,3.5424,3.5067,3.4312,3.3876,3.3366,3.2593,3.1829,3.1267,3.097,3.0696,3.0292,2.9934,3.0062,2.9856,2.9856,2.9779,2.9779,2.9779,2.9779,2.9754,2.9754,2.9654,2.9474,2.9217,2.8464,2.8116,2.782,2.7116,2.6543,2.6295,2.5378,2.4702,2.4467,2.38,2.3299,2.3144,2.3144,2.3144,2.3144,2.3144,2.3144,2.3144,2.3057,2.2862,2.2668,2.2013,2.1246,2.0095,1.9519,1.9553,1.9493,1.9124,1.8593,1.8164,1.7646,1.6918,1.647,1.6088,1.5992,1.6019,1.6032,1.6166,1.6233,1.633,1.6246,1.5973,1.5706,1.5407,1.5108,1.4802,1.4252,1.3644,1.2773,1.1711,1.0875,1.0054,0.9727,0.9279,0.8962,0.8743,0.8859,0.8906,0.8899,0.8913,0.8954,0.8863,0.8856,0.8765,0.8555,0.7768,0.698,0.715,0.6625,0.3372,-0.0,-0.0,-0.0,-0.0,3.5489,3.5489,3.5489,3.5619,3.591,3.6125,3.5933,3.5584,3.5489,3.5489,3.5489,3.5489,3.5489,3.5489,3.5489,3.5489,3.5489,3.5424,3.4971,3.4041,3.3366,3.2522,3.1683,3.0921,3.0368,3.0216,2.9856,2.9779,2.9856,2.9779,2.9779,2.9779,2.9779,2.9779,2.9779,2.9779,2.9779,2.9624,2.916,2.8585,2.853,2.7706,2.7035,2.6953,2.5964,2.5378,2.5294,2.4296,2.3887,2.38,2.3232,2.3144,2.3144,2.3144,2.3144,2.3057,2.3057,2.3144,2.2862,2.2492,2.1817,2.1533,2.1159,2.0266,1.902,1.8454,1.8365,1.8142,1.7725,1.7124,1.6494,1.6718,1.638,1.6433,1.6249,1.646,1.6473,1.6473,1.6513,1.654,1.654,1.5859,1.5466,1.4504,1.4079,1.3724,1.318,1.2557,1.1885,1.1373,1.057,0.9704,0.9053,0.9041,0.881,0.8771,0.8818,0.8893,0.8933,0.8933,0.896,0.8876,0.8084,0.751,0.8103,0.8588,0.7166,0.5847,0.5092,0.3824,-0.0,-0.0,-0.0,-0.0,-0.0,3.5489,3.5489,3.5489,3.5489,3.5489,3.5489,3.5489,3.5489,3.5489,3.5489,3.5489,3.5489,3.5489,3.5489,3.5489,3.5489,3.5424,3.5067,3.4476,3.3463,3.255,3.1609,3.0771,3.0139,3.0011,2.9779,2.9779,2.9779,2.9779,2.9779,2.9779,2.9779,2.9779,2.9802,2.9671,2.9489,2.9106,2.8767,2.8187,2.7545,2.7197,2.6625,2.588,2.563,2.4978,2.4211,2.4059,2.3627,2.3144,2.3144,2.3144,2.3144,2.3144,2.3144,2.3144,2.3057,2.2606,2.2568,2.2157,2.1302,2.0459,1.972,1.9918,1.9167,1.7812,1.7165,1.7044,1.6767,1.6265,1.6171,1.6048,1.6308,1.6426,1.6465,1.6566,1.6666,1.6714,1.67,1.6666,1.6693,1.5935,1.5354,1.456,1.3371,1.2471,1.2075,1.1557,1.0949,1.0451,1.0128,0.9828,0.9161,0.8676,0.8858,0.892,0.8859,0.8899,0.8933,0.894,0.8947,0.8863,0.889,0.7522,0.5958,0.5435,0.5138,0.5322,-0.0,-0.0,-0.0,-0.0,-0.0,-0.0,-0.0,-0.0,3.5489,3.5489,3.5489,3.5489,3.5489,3.5489,3.5489,3.5489,3.5489,3.5489,3.5489,3.5489,3.5489,3.5489,3.5424,3.5359,3.5067,3.4341,3.3463,3.2621,3.1829,3.0846,3.0216,2.9856,2.9779,2.9779,2.9779,2.9779,2.9779,2.9779,2.9779,2.9624,2.9443,2.9357,2.9114,2.8354,2.7924,2.7452,2.7012,2.6461,2.6213,2.5378,2.4872,2.4467,2.3973,2.3474,2.3299,2.3144,2.3144,2.3144,2.3144,2.3144,2.3144,2.3144,2.3144,2.2744,2.1896,2.1446,2.1069,2.0133,1.9222,1.8395,1.7855,1.6999,1.648,1.6248,1.6252,1.6334,1.617,1.6252,1.6334,1.6526,1.6688,1.679,1.6777,1.6826,1.686,1.6773,1.6764,1.6305,1.5104,1.4173,1.3153,1.2064,1.1176,1.0716,1.0434,1.0293,0.98,0.9463,0.9277,0.9145,0.8859,0.8893,0.8933,0.8927,0.8933,0.8947,0.8947,0.8954,0.887,0.8495,0.6951,0.5036,0.241,-0.0,-0.0,-0.0,-0.0,-0.0,-0.0,-0.0,-0.0,-0.0,-0.0,3.5489,3.5489,3.5489,3.5489,3.5489,3.5489,3.5489,3.5489,3.5489,3.5489,3.5489,3.5489,3.5359,3.5424,3.4773,3.4476,3.4041,3.3435,3.2522,3.1756,3.1267,3.057,3.0062,2.9779,2.9779,2.9779,2.9779,2.9779,2.9804,2.9779,2.9184,2.8688,2.8688,2.8482,2.7778,2.6678,2.6333,2.5997,2.5565,2.5357,2.5062,2.4296,2.3887,2.356,2.3387,2.3144,2.3144,2.3144,2.3144,2.3144,2.3144,2.3144,2.3144,2.3057,2.2862,2.1765,2.0817,2.0002,1.977,1.8856,1.7948,1.7498,1.6951,1.6372,1.5927,1.5886,1.5909,1.6126,1.6319,1.6415,1.6687,1.6834,1.6975,1.7054,1.6937,1.6808,1.6742,1.6678,1.6548,1.5164,1.4049,1.2782,1.1746,1.0789,0.9904,0.9588,0.9361,0.9332,0.9311,0.8955,0.8845,0.892,0.894,0.894,0.894,0.8933,0.8947,0.8954,0.896,0.8798,0.8704,0.7973,0.6392,-0.0,-0.0,-0.0,-0.0,-0.0,-0.0,-0.0,-0.0,-0.0,-0.0,-0.0,-0.2233,3.5489,3.5489,3.5489,3.5489,3.5489,3.5489,3.5294,3.5067,3.5359,3.5359,3.4935,3.4905,3.4706,3.4177,3.3671,3.3463,3.3394,3.2522,3.1729,3.1389,3.082,3.0343,2.9934,2.9779,2.9779,2.9779,2.9779,2.9779,2.9702,2.9209,2.8609,2.8187,2.7763,2.7382,2.6813,2.5866,2.483,2.4534,2.432,2.419,2.3887,2.3474,2.3212,2.3144,2.3144,2.3144,2.3144,2.3144,2.3144,2.3144,2.3144,2.3144,2.2931,2.2698,2.1799,2.0639,1.9504,1.8936,1.8627,1.7576,1.7124,1.6763,1.6305,1.6116,1.5994,1.6061,1.6149,1.6249,1.6464,1.6785,1.6995,1.7168,1.7251,1.7331,1.7015,1.6698,1.6605,1.6405,1.5423,1.4008,1.2586,1.1276,1.0218,0.9361,0.894,0.9044,0.9044,0.9037,0.9023,0.9016,0.8899,0.8927,0.894,0.894,0.8836,0.8752,0.868,0.8798,0.889,0.8864,0.859,-0.0,-0.0,-0.0,-0.0,-0.0,-0.0,-0.0,-0.0,-0.0,-0.2347,-0.0,-0.0,-0.0,-0.6545,3.5489,3.5489,3.5489,3.5489,3.5519,3.5359,3.4839,3.4081,3.4773,3.4773,3.3945,3.3905,3.3463,3.3017,3.2664,3.2522,3.2236,3.1536,3.1044,3.1044,3.0343,2.9856,2.9856,2.9779,2.9779,2.9779,2.9702,2.9624,2.9287,2.8767,2.8187,2.7844,2.6871,2.6179,2.5658,2.4913,2.4104,2.3607,2.3434,2.3387,2.3299,2.3144,2.3144,2.3144,2.3144,2.3144,2.3144,2.3144,2.3144,2.3144,2.295,2.2862,2.2171,2.1386,2.0321,1.9447,1.8241,1.7665,1.734,1.6669,1.6197,1.6021,1.5845,1.5967,1.6143,1.6182,1.6255,1.6539,1.6827,1.7055,1.7265,1.6821,1.6698,1.6324,1.598,1.5541,1.5209,1.4685,1.3383,1.2181,1.1202,0.9998,0.9684,0.894,0.894,0.894,0.894,0.894,0.8954,0.8954,0.896,0.896,0.8954,0.8856,0.8568,0.8488,0.8426,0.8539,0.8527,0.7127,0.5768,-0.0,-0.0,-0.0,-0.0,-0.0,-0.0,-0.0,-0.0,-0.0,-0.5571,-0.8711,-0.9804,-0.9292,-0.9014,3.5489,3.5489,3.5489,3.5489,3.5359,3.4677,3.4245,3.3945,3.3463,3.3185,3.2947,3.2876,3.2735,3.2379,3.1756,3.1536,3.1315,3.0771,3.0216,3.0216,2.9856,2.9779,2.9779,2.9779,2.9779,2.9779,2.9702,2.9287,2.8688,2.8108,2.7093,2.5775,2.521,2.4977,2.4288,2.3734,2.3474,2.3144,2.3144,2.3144,2.3144,2.3144,2.3144,2.3144,2.3144,2.3144,2.3057,2.3038,2.3057,2.3057,2.212,2.1302,2.0404,1.9282,1.8589,1.7918,1.7088,1.6616,1.6319,1.6116,1.594,1.5925,1.5979,1.617,1.6238,1.6276,1.646,1.6887,1.7141,1.7271,1.7158,1.6554,1.5982,1.5409,1.4719,1.4256,1.3696,1.2507,1.1311,1.0554,0.9786,0.9361,0.9051,0.894,0.894,0.894,0.894,0.8947,0.8981,0.8883,0.8917,0.891,0.887,0.8772,0.8045,0.7897,0.7612,0.7432,0.7322,0.5412,-0.0,-0.0,-0.0,-0.0,-0.0,-0.0,-0.0,-0.0,-0.0,-0.5208,-0.7192,-0.9848,-1.0399,-0.9908,-0.9818,3.5489,3.5489,3.5489,3.5228,3.4773,3.4245,3.3533,3.2735,3.2164,3.1756,3.1462,3.1756,3.1756,3.1489,3.0771,3.062,3.0545,3.0062,2.9934,2.9856,2.9779,2.9779,2.9779,2.9779,2.9779,2.9779,2.9184,2.8609,2.7924,2.6767,2.5692,2.4787,2.4361,2.38,2.3144,2.3144,2.3144,2.3144,2.3144,2.3144,2.3144,2.3144,2.3144,2.3144,2.3144,2.3057,2.2862,2.2668,2.2315,2.1943,2.1123,1.9935,1.8991,1.83,1.7505,1.6879,1.6292,1.5832,1.5832,1.5845,1.5899,1.6032,1.6139,1.6346,1.6728,1.6806,1.6773,1.7158,1.7341,1.7499,1.7121,1.6562,1.5982,1.5378,1.3583,1.2191,1.1538,1.0562,0.9911,0.9691,0.9161,0.9203,0.8988,0.9078,0.9113,0.9178,0.9144,0.9017,0.9017,0.8527,0.8652,0.8904,0.8897,0.6616,0.4032,0.4998,0.656,0.6364,-0.0,-0.0,-0.0,-0.0,-0.0,-0.0,-0.0,-0.0,-0.0,-0.0,-0.4611,-0.8284,-0.9392,-1.0362,-1.044,-1.052,-1.0293,3.5424,3.5294,3.5294,3.4706,3.3876,3.3699,3.2763,3.1389,3.1018,3.062,3.0139,3.0771,3.0419,3.0062,2.9804,2.9779,2.9779,2.9856,2.9779,2.9779,2.9779,2.9779,2.9779,2.9779,2.9624,2.9184,2.8688,2.7947,2.7256,2.6025,2.5041,2.4447,2.38,2.3144,2.3144,2.3144,2.3144,2.3144,2.3144,2.3144,2.3144,2.3144,2.3144,2.3144,2.3057,2.3038,2.258,2.2031,2.1391,2.0584,1.9951,1.8672,1.7825,1.7272,1.6836,1.6156,1.6008,1.5832,1.5845,1.5912,1.6046,1.6192,1.6299,1.6599,1.7082,1.7225,1.7198,1.7213,1.741,1.7213,1.6842,1.6053,1.5355,1.4339,1.2202,1.057,0.9699,0.9051,0.9051,0.894,0.8994,0.9035,0.9042,0.914,0.9257,0.932,0.9422,0.9298,0.8923,0.8037,0.7547,0.8286,0.8897,0.586,0.1647,-0.0,-0.0,-0.0,-0.0,-0.0,-0.0,-0.0,-0.0,-0.0,-0.0,-0.0,-0.0,-0.0,-0.886,-1.044,-1.0545,-1.0524,-1.0503,-1.0568,-1.0616,3.5001,3.4312,3.4245,3.3739,3.2904,3.24,3.1716,3.1119,3.0343,2.9934,2.9856,2.9856,2.9934,2.9779,2.9779,2.9779,2.9779,2.9779,2.9779,2.9779,2.9779,2.9779,2.9702,2.9521,2.9184,2.8609,2.7924,2.7093,2.6191,2.5189,2.4296,2.3541,2.3474,2.3144,2.3144,2.3144,2.3144,2.3144,2.3144,2.3144,2.3057,2.3057,2.3144,2.3144,2.3144,2.2492,2.1854,2.148,2.0747,1.9844,1.8672,1.7483,1.6828,1.6425,1.6156,1.5981,1.5832,1.5858,1.5899,1.6032,1.6219,1.6406,1.6567,1.6975,1.7319,1.7378,1.7357,1.7187,1.7121,1.674,1.6013,1.4578,1.3604,1.2211,1.0398,0.9713,0.9154,0.8954,0.8967,0.9015,0.9069,0.9123,0.9178,0.9319,0.9401,0.9469,0.942,0.9287,0.9163,0.7943,0.6627,0.7622,0.8747,0.526,-0.0,-0.0,-0.0,-0.0,-0.0,-0.0,-0.0,-0.0,-0.0,-0.0,-0.0,-0.0,-0.0,-0.8287,-0.9621,-1.0565,-1.0572,-1.0586,-1.0663,-1.0616,-1.0649]},{"header":{"parameterUnit":"m.s-1","parameterCategory":1,"la1":31.0,"la2":29.5877,"lo1":-88.7671,"lo2":-86.6584,"dy":0.0162,"dx":0.0185,"nx":115,"ny":88,"refTime":"2024-08-07T18:00:00:Z","depth":0,"parameterNumber":3,"parameterNumberName":"V-component_of_WINDS"},"data":[0.0,0.0,0.0,0.0,0.0,0.0,0.0,0.0,0.0,0.0,0.0,0.0,0.0,0.0,0.0,0.0,0.0,0.0,0.0,0.0,0.0,0.0,0.0,0.0,0.0,0.0,0.0,0.0,0.0,0.0,0.0,0.0,0.0,0.0,0.0,0.0,0.0,0.0,0.0,0.0,0.0,0.0,0.0,0.0,0.0,0.0,0.0,0.0,0.0,0.0,0.0,0.0,0.0,0.0,0.0,0.0,0.0,0.0,0.0,0.0,0.0,0.0,0.0,0.0,0.0,0.0,0.0,0.0,0.0,0.0,0.0,0.0,0.0,0.0,0.0,0.0,0.0,0.0,0.0,0.0,0.0,0.0,0.0,0.0,0.0,0.0,0.0,0.0,0.0,0.0,0.0,0.0,0.0,0.0,0.0,0.0,0.0,0.0,0.0,0.0,0.0,0.0,0.0,0.0,0.0,0.0,0.0,0.0,0.0,0.0,0.0,0.0,0.0,0.0,0.0,0.0,0.0,0.0,0.0,0.0,0.0,0.0,0.0,0.0,0.0,0.0,0.0,0.0,0.0,0.0,0.0,0.0,0.0,0.0,0.0,0.0,0.0,0.0,0.0,0.0,0.0,0.0,0.0,0.0,0.0,0.0,0.0,0.0,0.0,0.0,0.0,0.0,0.0,0.0,0.0,0.0,0.0,0.0,0.0,0.0,0.0,0.0,0.0,0.0,0.0,0.0,0.0,0.0,0.0,0.0,0.0,0.0,0.0,0.0,0.0,0.0,0.0,0.0,0.0,0.0,0.0,0.0,0.0,0.0,0.0,0.0,0.0,0.0,0.0,0.0,0.0,0.0,0.0,0.0,0.0,0.0,0.0,0.0,0.0,0.0,0.0,0.0,0.0,0.0,0.0,0.0,0.0,0.0,0.0,0.0,0.0,0.0,0.0,0.0,0.0,0.0,0.0,0.0,0.0,0.0,0.0,0.0,0.0,0.0,0.0,0.0,0.0,0.0,0.0,0.0,0.0,0.0,0.0,0.0,0.0,0.0,0.0,0.0,0.0,0.0,0.0,0.0,0.0,0.0,0.0,0.0,0.0,0.0,0.0,0.0,0.0,0.0,0.0,0.0,0.0,0.0,0.0,0.0,0.0,0.0,0.0,0.0,0.0,0.0,0.0,0.0,0.0,0.0,0.0,0.0,0.0,0.0,0.0,0.0,0.0,0.0,0.0,0.0,0.0,0.0,0.0,0.0,0.0,0.0,0.0,0.0,0.0,0.0,0.0,0.0,0.0,0.0,0.0,0.0,0.0,0.0,0.0,0.0,0.0,0.0,0.0,0.0,0.0,0.0,0.0,0.0,0.0,0.0,0.0,0.0,0.0,0.0,0.0,0.0,0.0,0.0,0.0,0.0,0.0,0.0,0.0,0.0,0.0,0.0,0.0,0.0,0.0,0.0,0.0,0.0,0.0,0.0,0.0,0.0,0.0,0.0,0.0,0.0,0.0,0.0,0.0,0.0,0.0,0.0,0.0,0.0,0.0,0.0,0.0,0.0,0.0,0.0,0.0,0.0,0.0,0.0,0.0,0.0,0.0,0.0,0.0,0.0,0.0,0.0,0.0,0.0,0.0,0.0,0.0,0.0,0.0,0.0,0.0,0.0,0.0,0.0,0.0,0.0,0.0,0.0,0.0,0.0,0.0,0.0,0.0,0.0,0.0,0.0,0.0,0.0,0.0,0.0,0.0,0.0,0.0,0.0,0.0,0.0,0.0,0.0,0.0,0.0,0.0,0.0,0.0,0.0,0.0,0.0,0.0,0.0,0.0,0.0,0.0,0.0,0.0,0.0,0.0,0.0,0.0,0.0,0.0,0.0,0.0,0.0,0.0,0.0,0.0,0.0,0.0,0.0,0.0,0.0,0.0,0.0,0.0,0.0,0.0,0.0,0.0,0.0,0.0,0.0,0.0,0.0,0.0,0.0,0.0,0.0,0.0,0.0,0.0,0.0,0.0,0.0,0.0,0.0,0.0,0.0,0.0,0.0,0.0,0.0,0.0,0.0,0.0,0.0,0.0,0.0,0.0,0.0,0.0,0.0,0.0,0.0,0.0,0.0,0.0,0.0,0.0,0.0,0.0,0.0,0.0,0.0,0.0,0.0,0.0,0.0,0.0,0.0,0.0,0.0,0.0,0.0,0.0,0.0,0.0,0.0,0.0,0.0,0.0,0.0,0.0,0.0,0.0,0.0,0.0,0.0,0.0,0.0,0.0,0.0,0.0,0.0,0.0,0.0,0.0,0.0,0.0,0.0,0.0,0.0,0.0,0.0,0.0,0.0,0.0,0.0,0.0,0.0,0.0,0.0,0.0,0.0,0.0,0.0,0.0,0.0,0.0,0.0,0.0,0.0,0.0,0.0,0.0,0.0,0.0,0.0,0.0,0.0,0.0,0.0,0.0,0.0,0.0,0.0,0.0,0.0,0.0,0.0,0.0,0.0,0.0,0.0,0.0,0.0,0.0,0.0,0.0,0.0,0.0,0.0,0.0,0.0,0.0,0.0,0.0,0.0,0.0,0.0,0.0,0.0,0.0,0.0,0.0,0.0,0.0,0.0,0.0,0.0,0.0,0.0,0.0,0.0,0.0,0.0,0.0,0.0,0.0,0.0,0.0,0.0,0.0,0.0,0.0,0.0,0.0,0.0,0.0,0.0,0.0,0.0,0.0,0.0,0.0,0.0,0.0,0.0,0.0,0.0,0.0,0.0,0.0,0.0,0.0,0.0,0.0,0.0,0.0,0.0,0.0,0.0,0.0,0.0,0.0,0.0,0.0,0.0,0.0,0.0,0.0,0.0,0.0,0.0,0.0,0.0,0.0,0.0,0.0,0.0,0.0,0.0,0.0,0.0,0.0,0.0,0.0,0.0,0.0,0.0,0.0,0.0,0.0,0.0,0.0,0.0,0.0,0.0,0.0,0.0,0.0,0.0,0.0,0.0,0.0,0.0,0.0,0.0,0.0,0.0,0.0,0.0,0.0,0.0,0.0,0.0,0.0,0.0,0.0,0.0,0.0,0.0,0.0,0.0,0.0,0.0,0.0,0.0,0.0,0.0,0.0,0.0,0.0,0.0,0.0,0.0,0.0,0.0,0.0,0.0,0.0,0.0,0.0,0.0,0.0,0.0,0.0,0.0,0.0,0.0,0.0,0.0,0.0,0.0,0.0,0.0,0.0,0.0,0.0,0.0,0.0,0.0,0.0,0.0,0.0,0.0,0.0,0.0,0.0,0.0,0.0,0.0,0.0,0.0,0.0,0.0,0.0,0.0,0.0,0.0,0.0,0.0,0.0,0.0,0.0,0.0,0.0,0.0,0.0,0.0,0.0,0.0,0.0,0.0,0.0,0.0,0.0,0.0,0.0,0.0,0.0,0.0,0.0,0.0,0.0,0.0,0.0,0.0,0.0,0.0,0.0,0.0,0.0,0.0,0.0,0.0,0.0,0.0,0.0,0.0,0.0,0.0,0.0,0.0,0.0,0.0,0.0,0.0,0.0,0.0,0.0,0.0,0.0,0.0,0.0,0.0,0.0,0.0,0.0,0.0,0.0,0.0,0.0,0.0,0.0,0.0,0.0,0.0,0.0,0.0,0.0,0.0,0.0,0.0,0.0,0.0,0.0,0.0,0.0,0.0,0.0,0.0,0.0,0.0,0.0,0.0,0.0,0.0,0.0,0.0,0.0,0.0,0.0,0.0,0.0,0.0,0.0,0.0,0.0,0.0,0.0,0.0,0.0,0.0,0.0,0.0,0.0,0.0,0.0,0.0,0.0,0.0,0.0,0.0,0.0,0.0,0.0,0.0,0.0,0.0,0.0,0.0,0.0,0.0,0.0,0.0,0.0,0.0,0.0,0.0,0.0,0.0,0.0,0.0,0.0,0.0,0.0,0.0,0.0,0.0,0.0,0.0,0.0,0.0,0.0,0.0,0.0,0.0,0.0,0.0,0.0,0.0,0.0,0.0,0.0,0.0,0.0,0.0,0.0,0.0,0.0,0.0,0.0,0.0,0.0,0.0,0.0,0.0,0.0,0.0,0.0,0.0,0.0,0.0,0.0,0.0,0.0,0.0,0.0,0.0,0.0,0.0,0.0,0.0,0.0,0.0,0.0,0.0,0.0,0.0,0.0,0.0,0.0,0.0,0.0,0.0,0.0,0.0,0.0,0.0,0.0,0.0,0.0,0.0,0.0,0.0,0.0,0.0,0.0,0.0,0.0,0.0,0.0,0.0,0.0,0.0,-0.4462,0.0,0.0,0.0,0.0,0.0,0.0,0.0,0.0,0.0,0.0,0.0,0.0,0.0,0.0,0.0,0.0,0.0,0.0,0.0,0.0,0.0,0.0,0.0,0.0,0.0,0.0,0.0,0.0,0.0,0.0,0.0,0.0,0.0,0.0,0.0,0.0,0.0,0.0,0.0,0.0,0.0,0.0,0.0,0.0,0.0,0.0,0.0,0.0,0.0,0.0,0.0,0.0,0.0,0.0,0.0,0.0,0.0,0.0,0.0,0.0,0.0,0.0,0.0,0.0,0.0,0.0,0.0,0.0,0.0,0.0,0.0,0.0,0.0,0.0,0.0,0.0,0.0,0.0,0.0,0.0,0.0,0.0,0.0,0.0,0.0,0.0,0.0,0.0,0.0,0.0,0.0,0.0,0.0,0.0,0.0,0.0,0.0,0.0,0.0,0.0,0.0,0.0,0.0,0.0,0.0,0.0,0.0,0.0,0.0,0.0,-0.2471,-0.2467,-0.2974,-0.3254,-0.3249,0.0,0.0,0.0,0.0,0.0,0.0,0.0,0.0,0.0,0.0,0.0,0.0,0.0,0.0,0.0,0.0,0.0,0.0,0.0,0.0,0.0,0.0,0.0,0.0,0.0,0.0,0.0,0.0,0.0,0.0,0.0,0.0,0.0,0.0,0.0,0.0,0.0,0.0,0.0,0.0,0.0,0.0,0.0,0.0,0.0,0.0,0.0,0.0,0.0,0.0,0.0,0.0,0.0,0.0,0.0,0.0,0.0,0.0,0.0,0.0,0.0,0.0,0.0,0.0,0.0,0.0,0.0,0.0,0.0,0.0,0.0,0.0,0.0,0.0,0.0,0.0,0.0,0.0,0.0,0.0,0.0,0.0,0.0,0.0,0.0,0.0,0.0,0.0,0.0,0.0,0.0,0.0,0.0,0.0,0.0,0.0,0.0,0.0,0.0,0.0,0.0,0.0,0.0,0.0,0.0,0.0,0.0,0.0,0.0,0.0,0.0,0.0,-0.3375,-0.2726,-0.2705,0.0,0.0,0.0,0.0,0.0,0.0,0.0,0.0,0.0,0.0,0.0,0.0,0.0,0.0,0.0,0.0,0.0,0.0,0.0,0.0,0.0,0.0,0.0,0.0,0.0,0.0,0.0,0.0,0.0,0.0,0.0,0.0,0.0,0.0,0.0,0.0,0.0,0.0,0.0,0.0,0.0,0.0,0.0,0.0,0.0,0.0,0.0,0.0,0.0,0.0,0.0,0.0,0.0,0.0,0.0,0.0,0.0,0.0,0.0,0.0,0.0,0.0,0.0,0.0,0.0,0.0,0.0,0.0,0.0,0.0,0.0,0.0,0.0,0.0,0.0,0.0,0.0,0.0,0.0,0.0,0.0,0.0,0.0,0.0,0.0,0.0,0.0,0.0,0.0,0.0,0.0,0.0,0.0,0.0,0.0,0.0,0.0,0.0,0.0,0.0,0.0,0.0,0.0,0.0,0.0,0.0,0.0,0.0,0.0,0.0,-0.4459,-0.4461,-0.4332,0.0,-0.4034,0.0,0.0,0.0,0.0,0.0,0.0,0.0,0.0,0.0,0.0,0.0,0.0,0.0,0.0,0.0,0.0,0.0,0.0,0.0,0.0,0.0,0.0,0.0,0.0,0.0,0.0,0.0,0.0,0.0,0.0,0.0,0.0,0.0,0.0,0.0,0.0,0.0,0.0,0.0,0.0,0.0,0.0,0.0,0.0,0.0,0.0,0.0,0.0,0.0,0.0,0.0,0.0,0.0,0.0,0.0,0.0,0.0,0.0,0.0,0.0,0.0,0.0,0.0,0.0,0.0,0.0,0.0,0.0,0.0,0.0,0.0,0.0,0.0,0.0,0.0,0.0,0.0,0.0,0.0,0.0,0.0,0.0,0.0,0.0,0.0,0.0,0.0,0.0,0.0,0.0,0.0,0.0,0.0,0.0,0.0,0.0,0.0,0.0,0.0,0.0,0.0,0.0,0.0,0.0,0.0,0.0,0.0,0.0,0.0,0.0,0.0,-0.4465,-0.4375,-0.4267,0.0,0.0,0.0,0.0,0.0,0.0,0.0,0.0,0.0,0.0,0.0,0.0,0.0,0.0,0.0,0.0,0.0,0.0,0.0,0.0,0.0,0.0,0.0,0.0,0.0,0.0,0.0,0.0,0.0,0.0,0.0,0.0,0.0,0.0,0.0,0.0,0.0,0.0,0.0,0.0,0.0,0.0,0.0,0.0,0.0,0.0,0.0,0.0,0.0,0.0,0.0,0.0,0.0,0.0,0.0,0.0,0.0,0.0,0.0,0.0,0.0,0.0,0.0,0.0,0.0,0.0,0.0,0.0,0.0,0.0,0.0,0.0,0.0,0.0,0.0,0.0,0.0,0.0,0.0,0.0,0.0,0.0,0.0,0.0,0.0,0.0,0.0,0.0,0.0,0.0,0.0,0.0,0.0,0.0,0.0,0.0,0.0,0.0,0.0,0.0,0.0,0.0,0.0,0.0,0.0,0.0,0.0,0.0,0.0,0.0,-0.4104,0.0,-0.4477,-0.4368,-0.4214,-0.4133,0.0,0.0,0.0,0.0,0.0,0.0,0.0,0.0,0.0,0.0,0.0,0.0,0.0,0.0,0.0,0.0,0.0,0.0,0.0,0.0,0.0,0.0,0.0,0.0,0.0,0.0,0.0,0.0,0.0,0.0,0.0,0.0,0.0,0.0,0.0,0.0,0.0,0.0,0.0,0.0,0.0,0.0,0.0,0.0,0.0,0.0,0.0,0.0,0.0,0.0,0.0,0.0,0.0,0.0,0.0,0.0,0.0,0.0,0.0,0.0,0.0,0.0,0.0,0.0,0.0,0.0,0.0,0.0,0.0,0.0,0.0,0.0,0.0,0.0,0.0,0.0,0.0,0.0,0.0,0.0,0.0,0.0,0.0,0.0,0.0,0.0,0.0,0.0,0.0,0.0,0.0,0.0,0.0,0.0,0.0,0.0,0.0,0.0,0.0,0.0,0.0,0.0,0.0,0.0,0.0,0.0,0.0,0.0,0.0,-0.4697,-0.4484,-0.4525,-0.4512,-0.4321,0.0,0.0,0.0,0.0,0.0,0.0,0.0,0.0,0.0,0.0,0.0,0.0,0.0,0.0,0.0,0.0,0.0,0.0,0.0,0.0,0.0,0.0,0.0,0.0,0.0,0.0,0.0,0.0,0.0,0.0,0.0,0.0,0.0,0.0,0.0,0.0,0.0,0.0,0.0,0.0,0.0,0.0,0.0,0.0,0.0,0.0,0.0,0.0,0.0,0.0,0.0,0.0,0.0,0.0,0.0,0.0,0.0,0.0,0.0,0.0,0.0,0.0,0.0,0.0,0.0,0.0,0.0,0.0,0.0,0.0,0.0,0.0,0.0,0.0,0.0,0.0,0.0,0.0,0.0,0.0,0.0,0.0,0.0,0.0,0.0,0.0,0.0,0.0,0.0,0.0,0.0,0.0,0.0,0.0,0.0,0.0,0.0,0.0,0.0,0.0,0.0,0.0,0.0,0.0,0.0,0.0,0.0,0.0,0.0,-0.4683,-0.458,-0.4511,-0.4592,-0.4328,-0.4124,0.0,0.0,0.0,0.0,0.0,0.0,0.0,0.0,0.0,0.0,0.0,0.0,0.0,0.0,0.0,0.0,0.0,0.0,0.0,0.0,0.0,0.0,0.0,0.0,0.0,0.0,0.0,0.0,0.0,0.0,0.0,0.0,0.0,0.0,0.0,0.0,0.0,0.0,0.0,0.0,0.0,0.0,0.0,0.0,0.0,0.0,0.0,0.0,0.0,0.0,0.0,0.0,0.0,0.0,0.0,0.0,0.0,0.0,0.0,0.0,0.0,0.0,0.0,0.0,0.0,0.0,0.0,0.0,0.0,0.0,0.0,0.0,0.0,0.0,0.0,0.0,0.0,0.0,0.0,0.0,0.0,0.0,0.0,0.0,0.0,0.0,0.0,0.0,0.0,0.0,0.0,0.0,0.0,0.0,0.0,0.0,0.0,0.0,0.0,0.0,0.0,0.0,0.0,0.0,0.0,0.0,0.0,0.0,0.0,-0.4519,0.0,-0.4565,0.0,-0.4328,-0.4117,0.0,0.0,0.0,0.0,0.0,0.0,0.0,0.0,0.0,0.0,0.0,0.0,0.0,0.0,0.0,0.0,0.0,0.0,0.0,0.0,0.0,0.0,0.0,0.0,0.0,0.0,0.0,0.0,0.0,0.0,0.0,0.0,0.0,0.0,0.0,0.0,0.0,0.0,0.0,0.0,0.0,0.0,0.0,0.0,0.0,0.0,0.0,0.0,0.0,0.0,0.0,0.0,0.0,0.0,0.0,0.0,0.0,0.0,0.0,0.0,0.0,0.0,0.0,0.0,0.0,0.0,0.0,0.0,0.0,0.0,0.0,0.0,0.0,0.0,0.0,0.0,0.0,0.0,0.0,0.0,0.0,0.0,0.0,0.0,0.0,0.0,0.0,0.0,0.0,0.0,0.0,0.0,0.0,0.0,0.0,0.0,0.0,0.0,0.0,0.0,0.0,0.0,0.0,0.0,0.0,0.0,0.0,0.0,-0.4463,-0.4525,-0.4606,-0.4613,-0.4525,-0.4512,-0.4314,0.0,0.0,0.0,0.0,0.0,0.0,0.0,0.0,0.0,0.0,0.0,0.0,0.0,0.0,0.0,0.0,0.0,0.0,0.0,0.0,0.0,0.0,0.0,0.0,0.0,0.0,0.0,0.0,0.0,0.0,0.0,0.0,0.0,0.0,0.0,0.0,0.0,0.0,0.0,0.0,0.0,0.0,0.0,0.0,0.0,0.0,0.0,0.0,0.0,0.0,0.0,0.0,0.0,0.0,0.0,0.0,0.0,0.0,0.0,0.0,0.0,0.0,0.0,0.0,0.0,0.0,0.0,0.0,0.0,0.0,0.0,0.0,0.0,0.0,0.0,0.0,0.0,0.0,0.0,0.0,0.0,0.0,0.0,0.0,0.0,0.0,0.0,0.0,0.0,0.0,0.0,0.0,0.0,0.0,0.0,0.0,0.0,0.0,0.0,0.0,0.0,0.0,0.0,0.0,0.0,0.0,0.0,0.0,0.0,-0.4519,-0.4567,-0.4565,-0.4613,-0.4423,-0.4314,0.0,0.0,0.0,0.0,0.0,0.0,0.0,0.0,0.0,0.0,0.0,0.0,0.0,0.0,0.0,0.0,0.0,0.0,0.0,0.0,0.0,0.0,0.0,0.0,0.0,0.0,0.0,0.0,0.0,0.0,0.0,0.0,0.0,0.0,0.0,0.0,0.0,0.0,0.0,0.0,0.0,0.0,0.0,0.0,0.0,0.0,0.0,0.0,0.0,0.0,0.0,0.0,0.0,0.0,0.0,0.0,0.0,0.0,0.0,0.0,0.0,0.0,0.0,0.0,0.0,0.0,0.0,0.0,0.0,0.0,0.0,0.0,0.0,0.0,0.0,0.0,0.0,0.0,0.0,0.0,0.0,0.0,0.0,0.0,0.0,0.0,0.0,0.0,0.0,0.0,0.0,0.0,0.0,0.0,0.0,0.0,0.0,0.0,0.0,0.0,0.0,0.0,0.0,0.0,0.0,0.0,0.0,0.0,0.0,-0.4545,-0.4545,-0.4565,-0.4663,-0.4477,-0.4402,-0.4375,0.0,0.0,0.0,0.0,0.0,0.0,0.0,0.0,0.0,0.0,0.0,0.0,0.0,0.0,0.0,0.0,0.0,0.0,0.0,0.0,0.0,0.0,0.0,0.0,0.0,0.0,0.0,0.0,0.0,0.0,0.0,0.0,0.0,0.0,0.0,0.0,0.0,0.0,0.0,0.0,0.0,0.0,0.0,0.0,0.0,0.0,0.0,0.0,0.0,0.0,0.0,0.0,0.0,0.0,0.0,0.0,0.0,0.0,0.0,0.0,0.0,0.0,0.0,0.0,0.0,0.0,0.0,0.0,0.0,0.0,0.0,0.0,0.0,0.0,0.0,0.0,0.0,0.0,0.0,0.0,0.0,0.0,0.0,0.0,0.0,0.0,0.0,0.0,0.0,0.0,0.0,0.0,0.0,0.0,0.0,0.0,0.0,0.0,0.0,0.0,0.0,0.0,0.0,0.0,0.0,0.0,0.0,0.0,-0.4694,-0.4701,-0.464,-0.456,-0.4619,-0.4558,0.0,0.0,0.0,0.0,0.0,0.0,0.0,0.0,0.0,0.0,0.0,0.0,0.0,0.0,0.0,0.0,0.0,0.0,0.0,0.0,0.0,0.0,0.0,0.0,0.0,0.0,0.0,0.0,0.0,0.0,0.0,0.0,0.0,0.0,0.0,0.0,0.0,0.0,0.0,0.0,0.0,0.0,0.0,0.0,0.0,0.0,0.0,0.0,0.0,0.0,0.0,0.0,0.0,0.0,0.0,0.0,0.0,0.0,0.0,0.0,0.0,0.0,0.0,0.0,0.0,0.0,0.0,0.0,0.0,0.0,0.0,0.0,0.0,0.0,0.0,0.0,0.0,0.0,0.0,0.0,0.0,0.0,0.0,0.0,0.0,0.0,0.0,0.0,0.0,0.0,0.0,0.0,0.0,0.0,0.0,0.0,0.0,0.0,0.0,0.0,0.0,0.0,0.0,0.0,0.0,0.0,0.0,0.0,0.0,-0.4694,-0.4802,-0.4843,-0.4796,-0.4728,-0.4653,0.0,0.0,0.0,0.0,0.0,0.0,0.0,0.0,0.0,0.0,0.0,0.0,0.0,0.0,0.0,0.0,0.0,0.0,0.0,0.0,0.0,0.0,0.0,0.0,0.0,0.0,0.0,0.0,0.0,0.0,0.0,0.0,0.0,0.0,0.0,0.0,0.0,0.0,0.0,0.0,0.0,0.0,0.0,0.0,0.0,0.0,0.0,0.0,0.0,0.0,0.0,0.0,0.0,0.0,0.0,0.0,0.0,0.0,0.0,0.0,0.0,0.0,0.0,0.0,0.0,0.0,0.0,0.0,0.0,0.0,0.0,0.0,0.0,0.0,0.0,0.0,0.0,0.0,0.0,0.0,0.0,0.0,0.0,0.0,0.0,0.0,0.0,0.0,0.0,0.0,0.0,0.0,0.0,0.0,0.0,0.0,0.0,0.0,0.0,0.0,0.0,0.0,0.0,0.0,0.0,0.0,0.0,0.0,-0.4789,-0.4789,-0.4931,-0.513,-0.5501,-0.5397,-0.5238,0.0,0.0,0.0,0.0,0.0,0.0,0.0,0.0,0.0,0.0,0.0,0.0,0.0,0.0,0.0,0.0,0.0,0.0,0.0,0.0,0.0,0.0,0.0,0.0,0.0,0.0,0.0,0.0,0.0,0.0,0.0,0.0,0.0,0.0,0.0,0.0,0.0,0.0,0.0,0.0,0.0,0.0,0.0,0.0,0.0,0.0,0.0,0.0,0.0,0.0,0.0,0.0,0.0,0.0,0.0,0.0,0.0,0.0,0.0,0.0,0.0,0.0,0.0,0.0,0.0,0.0,0.0,0.0,0.0,0.0,0.0,0.0,0.0,0.0,0.0,0.0,0.0,0.0,0.0,0.0,0.0,0.0,0.0,0.0,0.0,0.0,0.0,0.0,0.0,0.0,0.0,0.0,0.0,0.0,0.0,0.0,0.0,0.0,0.0,0.0,0.0,0.0,0.0,0.0,0.0,0.0,0.0,0.0,-0.4925,-0.4938,-0.4984,-0.5486,-0.6287,-0.6233,-0.6035,0.0,0.0,0.0,0.0,0.0,0.0,0.0,0.0,0.0,0.0,0.0,0.0,0.0,0.0,0.0,0.0,0.0,0.0,0.0,0.0,0.0,0.0,0.0,0.0,0.0,0.0,0.0,0.0,0.0,0.0,0.0,0.0,0.0,0.0,0.0,0.0,0.0,0.0,0.0,0.0,0.0,0.0,0.0,0.0,0.0,0.0,0.0,0.0,0.0,0.0,0.0,0.0,0.0,0.0,0.0,0.0,0.0,0.0,0.0,0.0,0.0,0.0,0.0,0.0,0.0,0.0,0.0,0.0,0.0,0.0,0.0,0.0,0.0,0.0,0.0,0.0,0.0,0.0,0.0,0.0,0.0,0.0,0.0,0.0,0.0,0.0,0.0,0.0,0.0,0.0,0.0,0.0,0.0,0.0,0.0,0.0,0.0,0.0,0.0,0.0,0.0,0.0,0.0,0.0,0.0,0.0,0.0,0.0,-0.4972,-0.5081,-0.5006,-0.5326,-0.605,-0.5927,-0.6196,0.0,0.0,0.0,0.0,0.0,0.0,0.0,0.0,0.0,0.0,0.0,0.0,0.0,0.0,0.0,0.0,0.0,0.0,0.0,0.0,0.0,0.0,0.0,0.0,0.0,0.0,0.0,0.0,0.0,0.0,0.0,0.0,0.0,0.0,0.0,0.0,0.0,0.0,0.0,0.0,0.0,0.0,0.0,0.0,0.0,0.0,0.0,0.0,-1.4806,0.0,0.0,0.0,0.0,0.0,0.0,0.0,0.0,0.0,0.0,0.0,0.0,0.0,0.0,0.0,0.0,0.0,0.0,0.0,0.0,0.0,0.0,0.0,0.0,0.0,0.0,0.0,0.0,0.0,0.0,0.0,0.0,0.0,0.0,0.0,0.0,0.0,0.0,0.0,0.0,0.0,0.0,0.0,0.0,0.0,0.0,0.0,0.0,0.0,0.0,0.0,0.0,0.0,0.0,0.0,0.0,0.0,0.0,0.0,-0.5495,-0.5516,-0.5495,-0.6053,-0.7052,-0.653,-0.6369,0.0,0.0,0.0,0.0,0.0,0.0,0.0,0.0,0.0,0.0,0.0,0.0,0.0,0.0,0.0,0.0,0.0,0.0,0.0,0.0,0.0,0.0,0.0,0.0,0.0,0.0,0.0,0.0,0.0,0.0,0.0,0.0,0.0,0.0,0.0,0.0,0.0,0.0,0.0,0.0,0.0,0.0,0.0,0.0,0.0,0.0,0.0,0.0,0.0,0.0,0.0,0.0,0.0,0.0,0.0,0.0,0.0,0.0,0.0,0.0,0.0,0.0,0.0,0.0,0.0,0.0,0.0,0.0,0.0,0.0,0.0,0.0,0.0,0.0,0.0,0.0,0.0,0.0,0.0,0.0,0.0,0.0,0.0,0.0,0.0,0.0,0.0,0.0,0.0,0.0,0.0,0.0,0.0,0.0,0.0,0.0,0.0,0.0,0.0,0.0,0.0,0.0,0.0,0.0,0.0,0.0,0.0,-0.5783,-0.6147,-0.6207,-0.6267,-0.6885,-0.8119,-0.7245,-0.6804,-0.6815,0.0,0.0,0.0,0.0,0.0,0.0,0.0,0.0,0.0,0.0,0.0,0.0,0.0,0.0,0.0,0.0,0.0,0.0,0.0,0.0,0.0,0.0,0.0,0.0,0.0,0.0,0.0,0.0,0.0,0.0,0.0,0.0,0.0,0.0,0.0,0.0,0.0,0.0,-1.3053,-1.5105,0.0,0.0,0.0,0.0,0.0,0.0,0.0,0.0,-1.6219,0.0,0.0,0.0,0.0,0.0,0.0,0.0,0.0,0.0,0.0,0.0,0.0,0.0,0.0,0.0,0.0,0.0,0.0,0.0,0.0,0.0,0.0,0.0,0.0,0.0,0.0,0.0,0.0,0.0,0.0,0.0,0.0,0.0,0.0,0.0,0.0,0.0,0.0,0.0,0.0,0.0,0.0,0.0,0.0,0.0,0.0,0.0,0.0,0.0,0.0,0.0,0.0,0.0,0.0,0.0,0.0,-0.6835,-0.6227,-0.6324,-0.7183,-0.6973,-0.6902,-0.712,-0.7378,-0.7503,-0.7557,0.0,0.0,0.0,0.0,0.0,0.0,0.0,0.0,0.0,0.0,0.0,0.0,0.0,0.0,0.0,0.0,0.0,0.0,0.0,0.0,0.0,0.0,0.0,0.0,0.0,0.0,0.0,0.0,0.0,0.0,0.0,0.0,0.0,0.0,0.0,0.0,0.0,0.0,0.0,-1.5591,-1.626,0.0,0.0,0.0,0.0,0.0,0.0,0.0,0.0,-1.6625,0.0,0.0,0.0,0.0,0.0,0.0,0.0,0.0,0.0,0.0,0.0,0.0,0.0,0.0,0.0,0.0,0.0,0.0,0.0,0.0,0.0,0.0,0.0,0.0,0.0,0.0,0.0,0.0,0.0,0.0,0.0,0.0,0.0,0.0,0.0,0.0,0.0,0.0,0.0,0.0,0.0,0.0,0.0,0.0,0.0,0.0,0.0,0.0,0.0,0.0,0.0,0.0,0.0,0.0,0.0,-0.6688,-0.6952,-0.7359,-0.7914,-0.7717,-0.77,-0.7851,-0.7788,-0.7877,0.0,0.0,0.0,0.0,0.0,0.0,0.0,0.0,0.0,0.0,0.0,0.0,0.0,0.0,0.0,0.0,0.0,0.0,0.0,0.0,0.0,0.0,0.0,0.0,0.0,0.0,0.0,0.0,0.0,0.0,0.0,0.0,0.0,0.0,0.0,0.0,0.0,0.0,0.0,0.0,-1.6113,-1.6495,-1.6497,0.0,0.0,0.0,0.0,0.0,0.0,-1.712,-1.7312,0.0,0.0,0.0,0.0,0.0,0.0,0.0,0.0,0.0,0.0,0.0,0.0,0.0,0.0,0.0,0.0,0.0,0.0,0.0,0.0,0.0,0.0,0.0,0.0,0.0,0.0,0.0,0.0,0.0,0.0,0.0,0.0,0.0,0.0,0.0,0.0,0.0,0.0,0.0,0.0,0.0,0.0,0.0,0.0,0.0,0.0,0.0,0.0,0.0,0.0,0.0,0.0,0.0,0.0,0.0,-0.6615,-0.7599,-0.8265,-0.8549,-0.8389,-0.8488,-0.8765,-0.8209,-0.8209,0.0,0.0,0.0,0.0,0.0,0.0,0.0,0.0,0.0,0.0,0.0,0.0,0.0,0.0,0.0,0.0,0.0,0.0,0.0,0.0,0.0,0.0,0.0,0.0,0.0,0.0,0.0,0.0,0.0,0.0,0.0,0.0,0.0,0.0,0.0,0.0,0.0,0.0,0.0,0.0,0.0,-1.6928,-1.724,-1.6964,0.0,0.0,0.0,0.0,-1.7011,-1.7626,0.0,0.0,0.0,0.0,0.0,0.0,0.0,0.0,0.0,0.0,0.0,0.0,0.0,0.0,0.0,0.0,0.0,0.0,0.0,0.0,0.0,0.0,0.0,0.0,0.0,0.0,0.0,0.0,0.0,0.0,0.0,0.0,0.0,0.0,0.0,0.0,0.0,0.0,0.0,0.0,0.0,0.0,0.0,0.0,0.0,0.0,0.0,0.0,0.0,0.0,0.0,0.0,0.0,0.0,0.0,0.0,-0.7913,-0.7818,-0.8166,-0.9036,-0.8843,-0.8738,-0.8804,-0.8699,-0.8699,0.0,0.0,0.0,0.0,0.0,0.0,0.0,0.0,0.0,0.0,0.0,0.0,0.0,0.0,0.0,0.0,0.0,0.0,0.0,0.0,0.0,0.0,0.0,0.0,0.0,0.0,0.0,0.0,0.0,0.0,0.0,0.0,0.0,0.0,0.0,0.0,0.0,0.0,0.0,0.0,0.0,-1.7748,-1.735,-1.7229,-1.7387,0.0,0.0,-1.7612,-1.8473,-1.8341,0.0,0.0,0.0,0.0,0.0,0.0,0.0,0.0,0.0,0.0,0.0,0.0,0.0,0.0,0.0,0.0,0.0,0.0,0.0,0.0,0.0,0.0,0.0,0.0,0.0,0.0,0.0,0.0,0.0,0.0,0.0,0.0,0.0,0.0,0.0,0.0,0.0,0.0,0.0,0.0,0.0,0.0,0.0,0.0,0.0,0.0,0.0,0.0,0.0,0.0,0.0,0.0,0.0,0.0,0.0,-0.7081,-0.8159,-0.8302,-0.8616,-0.9163,-0.8951,-0.8804,-0.8804,-0.8804,-0.8724,0.0,0.0,0.0,0.0,0.0,0.0,0.0,0.0,0.0,0.0,0.0,0.0,0.0,0.0,0.0,0.0,0.0,0.0,0.0,0.0,0.0,0.0,0.0,0.0,0.0,0.0,0.0,0.0,0.0,0.0,0.0,0.0,0.0,0.0,0.0,0.0,0.0,0.0,0.0,0.0,0.0,0.0,-1.7787,-1.7517,0.0,0.0,0.0,-1.7915,-1.8361,0.0,0.0,0.0,0.0,0.0,0.0,0.0,0.0,0.0,0.0,0.0,0.0,0.0,0.0,0.0,0.0,0.0,0.0,0.0,0.0,0.0,0.0,0.0,0.0,0.0,0.0,0.0,0.0,0.0,0.0,0.0,0.0,0.0,0.0,0.0,0.0,0.0,0.0,0.0,0.0,0.0,0.0,0.0,0.0,0.0,0.0,0.0,0.0,0.0,0.0,0.0,0.0,0.0,0.0,0.0,0.0,0.0,-0.833,-0.8633,-0.8911,-0.9112,-0.8925,-0.8804,-0.8804,-0.8804,0.0,0.0,0.0,0.0,0.0,0.0,0.0,0.0,0.0,0.0,0.0,0.0,0.0,0.0,0.0,0.0,0.0,0.0,0.0,0.0,0.0,0.0,0.0,0.0,0.0,0.0,0.0,-0.896,0.0,0.0,0.0,0.0,0.0,0.0,0.0,0.0,0.0,0.0,0.0,0.0,0.0,0.0,-1.8536,-1.8333,-1.811,-1.8235,0.0,0.0,-1.8541,-1.8632,-1.9406,-1.9874,0.0,0.0,0.0,0.0,0.0,0.0,0.0,0.0,0.0,0.0,0.0,0.0,0.0,0.0,0.0,0.0,0.0,0.0,0.0,0.0,0.0,0.0,0.0,0.0,0.0,0.0,0.0,0.0,0.0,0.0,0.0,0.0,0.0,0.0,0.0,0.0,0.0,0.0,0.0,0.0,0.0,0.0,0.0,0.0,0.0,0.0,0.0,0.0,0.0,0.0,0.0,0.0,0.0,0.0,0.0,-0.8738,-0.8804,-0.8818,-0.8831,-0.8818,-0.8804,-0.8804,-0.8804,-0.8671,0.0,0.0,0.0,0.0,0.0,0.0,0.0,0.0,0.0,0.0,0.0,0.0,0.0,0.0,0.0,0.0,0.0,0.0,0.0,0.0,0.0,0.0,0.0,0.0,0.0,0.0,0.0,0.0,0.0,0.0,0.0,0.0,0.0,0.0,0.0,0.0,0.0,0.0,0.0,0.0,0.0,-1.9698,-1.8951,-1.9333,-1.9706,0.0,0.0,-1.9657,-2.0094,-2.0575,-2.0764,-2.0265,0.0,0.0,0.0,0.0,0.0,0.0,0.0,0.0,0.0,0.0,0.0,0.0,0.0,0.0,0.0,0.0,0.0,0.0,0.0,0.0,0.0,0.0,0.0,0.0,0.0,0.0,0.0,0.0,0.0,0.0,0.0,0.0,0.0,0.0,0.0,0.0,0.0,0.0,0.0,0.0,0.0,0.0,0.0,0.0,0.0,0.0,0.0,0.0,0.0,0.0,0.0,0.0,0.0,-0.8023,-0.8791,-0.8804,-0.8804,-0.8804,-0.8804,-0.8804,-0.8804,-0.9211,-0.9263,0.0,0.0,0.0,0.0,0.0,0.0,0.0,0.0,0.0,0.0,0.0,0.0,0.0,0.0,0.0,0.0,0.0,0.0,0.0,0.0,0.0,0.0,0.0,0.0,0.0,0.0,0.0,0.0,-1.2104,-1.2433,-1.3352,0.0,0.0,0.0,0.0,0.0,0.0,0.0,0.0,0.0,0.0,-2.0698,-1.9681,-1.9728,0.0,0.0,-2.0035,-2.0273,-2.0281,-2.0862,-2.1067,-2.0426,-1.9977,0.0,0.0,0.0,0.0,0.0,0.0,0.0,0.0,0.0,0.0,0.0,0.0,0.0,0.0,0.0,0.0,0.0,0.0,0.0,0.0,0.0,0.0,0.0,0.0,0.0,0.0,0.0,0.0,0.0,0.0,0.0,0.0,0.0,0.0,0.0,0.0,0.0,0.0,0.0,0.0,0.0,0.0,0.0,0.0,0.0,0.0,0.0,0.0,0.0,0.0,0.0,0.0,-0.834,-0.8936,-0.8844,-0.8844,-0.8938,-0.8844,-0.891,-0.9106,-0.9562,-0.9758,0.0,0.0,0.0,0.0,0.0,0.0,0.0,0.0,0.0,0.0,0.0,0.0,0.0,0.0,0.0,0.0,0.0,0.0,0.0,0.0,0.0,0.0,0.0,0.0,0.0,0.0,0.0,0.0,-1.3368,-1.3594,-1.4785,0.0,0.0,0.0,0.0,0.0,0.0,0.0,0.0,0.0,0.0,-2.1794,-2.0528,-2.0401,-2.0382,-2.0228,-2.0382,-2.0566,-2.0604,-2.1311,-2.165,-2.0944,0.0,0.0,0.0,0.0,0.0,0.0,0.0,0.0,0.0,0.0,0.0,0.0,0.0,0.0,0.0,0.0,0.0,0.0,0.0,0.0,0.0,0.0,0.0,0.0,0.0,0.0,0.0,0.0,0.0,0.0,-0.3626,0.0,0.0,0.0,0.0,0.0,0.0,0.0,0.0,0.0,0.0,0.0,0.0,0.0,0.0,0.0,0.0,0.0,0.0,0.0,0.0,0.0,0.0,-0.8659,-0.9176,-0.8908,-0.8951,-0.915,-0.8951,-0.9106,-0.9718,-0.9821,-1.0012,-1.0381,0.0,0.0,0.0,0.0,0.0,0.0,0.0,0.0,0.0,0.0,0.0,0.0,0.0,0.0,0.0,0.0,0.0,0.0,0.0,0.0,0.0,0.0,0.0,0.0,0.0,0.0,-1.4676,-1.4398,-1.43,0.0,0.0,0.0,0.0,0.0,0.0,0.0,0.0,0.0,0.0,-2.2772,-2.2998,-2.1516,-2.1523,-2.1594,-2.131,-2.0793,-2.0578,-2.1237,-2.2083,-2.2539,0.0,0.0,0.0,0.0,0.0,0.0,0.0,0.0,0.0,0.0,0.0,0.0,0.0,0.0,0.0,0.0,0.0,0.0,0.0,0.0,0.0,0.0,0.0,0.0,0.0,0.0,0.0,-0.548,-0.5366,0.0,0.0,0.0,0.0,0.0,0.0,0.0,0.0,0.0,0.0,0.0,-0.7911,-0.7945,0.0,0.0,0.0,0.0,0.0,0.0,0.0,0.0,0.0,0.0,0.0,0.0,-0.8633,-0.9151,-0.8921,-0.8951,-0.9163,-0.8898,-0.9106,-0.9755,-1.0218,-1.0648,-1.1048,0.0,0.0,0.0,0.0,0.0,0.0,0.0,0.0,0.0,0.0,0.0,0.0,0.0,0.0,0.0,0.0,0.0,0.0,0.0,0.0,0.0,0.0,0.0,0.0,0.0,-1.509,0.0,0.0,0.0,0.0,0.0,0.0,0.0,0.0,0.0,0.0,0.0,-1.9156,-2.3488,-2.4378,-2.4327,-2.3364,-2.3317,-2.3174,0.0,0.0,0.0,0.0,0.0,0.0,0.0,0.0,0.0,0.0,0.0,0.0,0.0,0.0,-2.8612,-2.6061,-2.5313,-2.5155,-2.5532,0.0,0.0,0.0,0.0,0.0,0.0,0.0,0.0,0.0,0.0,0.0,0.0,0.0,0.0,-0.6474,0.0,-0.6028,0.0,0.0,0.0,0.0,0.0,0.0,0.0,0.0,-0.8241,-0.859,-0.9112,-0.9112,-0.9112,0.0,-0.9112,-0.8751,0.0,0.0,0.0,0.0,0.0,0.0,0.0,0.0,-0.8897,-0.9305,-0.9081,-0.9207,-0.9688,-0.9314,-0.9562,-1.0474,-1.1183,-1.1554,-1.1696,-1.1822,-1.1541,0.0,0.0,0.0,0.0,0.0,0.0,0.0,0.0,0.0,0.0,0.0,0.0,0.0,0.0,0.0,0.0,0.0,0.0,0.0,0.0,0.0,0.0,0.0,-1.6284,0.0,0.0,0.0,0.0,0.0,0.0,0.0,0.0,0.0,-1.7909,-1.8365,-2.0385,-2.4655,-2.5528,-2.5406,-2.4543,0.0,0.0,0.0,0.0,0.0,0.0,0.0,-2.5473,-2.5704,-2.5443,-2.5916,-2.798,-2.9359,-3.0071,-2.9745,0.0,0.0,-2.7861,-2.7169,-2.7082,-2.7327,-2.8004,-2.8398,-2.7727,-2.9292,-3.139,0.0,0.0,0.0,0.0,0.0,0.0,0.0,0.0,-0.7019,-0.6936,0.0,-0.65,0.0,0.0,0.0,0.0,0.0,-0.85,0.0,0.0,-0.9658,-0.9699,-0.9713,-0.9686,-0.9744,-0.9744,-0.9731,-0.9775,-0.9735,-0.8923,0.0,0.0,0.0,0.0,0.0,0.0,-0.9406,-0.9744,-0.9462,-0.9771,-1.0706,-1.0165,-1.0474,-1.1715,-1.2461,-1.2676,-1.2239,-1.1759,-1.148,-1.1602,-1.07,0.0,0.0,0.0,0.0,0.0,0.0,0.0,0.0,0.0,0.0,0.0,0.0,0.0,0.0,0.0,0.0,0.0,0.0,0.0,0.0,-1.4723,0.0,0.0,0.0,0.0,0.0,0.0,0.0,0.0,0.0,0.0,-2.0159,-2.0147,-2.1452,-2.4697,0.0,0.0,0.0,0.0,-2.4446,-2.487,-2.4037,-2.3858,-2.5148,-2.5779,-2.6435,-2.7168,0.0,0.0,-3.2103,-3.2338,-3.1701,-3.0176,-3.0867,-3.1311,-3.0759,-3.0108,-2.9886,-3.0392,-3.0145,-3.0195,-3.1094,-3.1661,-3.2902,-0.9405,0.0,0.0,0.0,0.0,-0.8947,-0.9073,-0.9241,-0.8961,-0.8895,-0.8827,-0.853,0.0,0.0,0.0,0.0,0.0,0.0,-0.9502,-0.9699,-0.9735,-0.9695,-0.9729,-0.9682,-1.002,-1.0508,-1.058,-1.085,-1.1359,-1.113,-1.0332,-0.8871,0.0,0.0,0.0,0.0,-1.0538,-1.0854,-1.1111,-1.1376,-1.1567,-1.1172,-1.1284,-1.1765,-1.251,-1.2832,-1.2695,-1.2561,-1.2349,-1.2051,-1.1738,0.0,0.0,0.0,0.0,0.0,0.0,0.0,0.0,0.0,0.0,0.0,0.0,0.0,0.0,0.0,0.0,0.0,0.0,0.0,-1.6086,-1.7103,-1.7638,0.0,0.0,0.0,0.0,0.0,0.0,0.0,0.0,0.0,-2.0326,-2.16,-2.2957,0.0,0.0,-2.6814,-2.7201,-2.6978,-2.6816,-2.6957,-2.6686,0.0,-2.628,-2.6889,-2.7563,-2.8373,-2.9638,-3.1177,-3.3123,-3.3064,-3.2745,-3.2602,-3.2873,-3.3073,-3.2863,-3.181,-3.1199,-3.1593,-3.1737,-3.1649,-3.1556,-3.2717,-3.4262,-1.0354,-1.002,-0.99,-0.9927,-1.0067,-0.991,-0.9978,-1.0114,-0.9926,-0.9834,-0.9833,-0.9539,-0.9379,-0.9325,-0.9392,0.0,0.0,0.0,-1.0137,-1.0531,-1.0545,-1.0532,-1.0546,-1.0866,-1.1078,-1.1299,-1.1577,-1.2001,-1.248,-1.2809,-1.211,-1.0605,0.0,0.0,-1.0379,-1.1189,-1.1635,-1.1813,-1.2117,-1.236,-1.2569,-1.2395,-1.2353,-1.2488,-1.2753,-1.2891,-1.2891,-1.2891,-1.2754,-1.25,-1.2282,-1.195,0.0,0.0,0.0,0.0,0.0,0.0,0.0,0.0,0.0,0.0,0.0,-1.2747,-1.2413,0.0,0.0,0.0,-1.3988,-1.5223,-1.8416,-1.8831,0.0,0.0,0.0,0.0,0.0,0.0,0.0,-2.2406,-2.36,-2.3807,-2.2526,-2.4237,-2.5113,-2.3782,-2.5541,-2.7245,-2.8085,0.0,-2.818,-2.784,-2.7806,-2.7637,-2.7232,-2.7537,-2.8284,-2.9657,-3.0587,-3.1636,-3.2983,-3.327,-3.3406,-3.3735,-3.3807,-3.3807,-3.3807,-3.2999,-3.2438,-3.2757,-3.2952,-3.29,-3.2444,-3.3604,-3.4864,-1.0685,-1.0698,-1.0301,-1.0314,-1.0564,-1.0246,-1.0105,-1.0167,-1.0207,-1.0243,-1.0188,-1.005,-1.0137,-1.0309,-1.005,0.0,-1.0322,-1.0322,-1.0873,-1.1889,-1.1873,-1.192,-1.1936,-1.2671,-1.2626,-1.2012,-1.2765,-1.313,-1.3235,-1.3957,-1.3797,-1.2805,-1.2524,-1.2287,-1.2158,-1.2506,-1.273,-1.2718,-1.2772,-1.3136,-1.3675,-1.3556,-1.3516,-1.3496,-1.3105,-1.2891,-1.2891,-1.2891,-1.2891,-1.2891,-1.2483,-1.2292,-1.2227,0.0,0.0,0.0,0.0,0.0,0.0,0.0,0.0,0.0,0.0,0.0,0.0,0.0,0.0,0.0,-1.5343,0.0,-1.9689,-2.0309,0.0,0.0,0.0,-2.1296,-2.145,-2.2885,-2.4115,-2.4768,0.0,0.0,-2.5979,-2.7557,-2.7624,-2.4618,-2.6178,-2.7807,-2.8367,-2.8817,-2.8822,-2.818,-2.7941,-2.7874,-2.7739,-2.7874,-2.866,-3.0663,-3.1184,-3.1557,-3.2491,-3.3263,-3.3726,-3.3807,-3.3807,-3.3807,-3.3807,-3.3733,-3.3807,-3.3733,-3.377,-3.377,-3.3723,-3.4223,-3.4864,-1.1156,-1.149,-1.0755,-1.0564,-1.0604,-1.0483,-1.0456,-1.051,-1.1152,-1.1385,-1.1399,-1.195,-1.2253,-1.2316,-1.2253,-1.2253,-1.2332,-1.2332,-1.2456,-1.2707,-1.272,-1.2716,-1.2756,-1.2899,-1.3252,-1.3597,-1.3837,-1.4213,-1.4805,-1.504,-1.5002,-1.4713,-1.4677,-1.3917,-1.2592,-1.3368,-1.3856,-1.3843,-1.4461,-1.4697,-1.4486,-1.384,-1.3516,-1.3516,-1.3105,-1.2891,-1.2891,-1.2891,-1.2891,-1.2891,-1.2803,-1.278,-1.2872,-1.1943,0.0,0.0,0.0,0.0,0.0,0.0,0.0,0.0,0.0,-1.4764,-1.4001,0.0,-1.6046,0.0,-1.6254,-1.7693,-2.2204,-2.3662,0.0,0.0,-2.2441,-2.3017,-2.4355,-2.45,-2.4936,-2.6009,-2.681,-2.7561,-2.8399,-2.8906,-2.9303,-2.9343,-2.9215,-2.946,-3.0353,-3.0099,-2.977,-2.9533,-2.9059,-2.8484,-2.801,-2.8315,-2.9268,-3.0908,-3.121,-3.1708,-3.3229,-3.364,-3.3822,-3.3826,-3.3807,-3.3807,-3.3807,-3.3807,-3.3807,-3.3807,-3.3807,-3.3807,-3.3834,-3.426,-3.4864,-1.2639,-1.2922,-1.2452,-1.2138,-1.1862,-1.0989,-1.0807,-1.1156,-1.1584,-1.2027,-1.2381,-1.2826,-1.3009,-1.3009,-1.3009,-1.3009,-1.3009,-1.3009,-1.3208,-1.3545,-1.3571,-1.352,-1.3528,-1.3879,-1.4154,-1.4213,-1.4569,-1.5001,-1.541,-1.541,-1.541,-1.541,-1.5605,-1.5214,-1.4231,-1.4554,-1.4768,-1.4732,-1.5177,-1.5293,-1.5059,-1.4238,-1.3789,-1.3769,-1.3203,-1.2891,-1.2891,-1.2891,-1.2891,-1.2891,-1.2891,-1.3042,-1.3345,-1.2683,-1.2463,0.0,0.0,0.0,0.0,0.0,0.0,0.0,0.0,0.0,0.0,0.0,-1.7508,-1.9875,-1.8644,-1.9581,-2.4104,-2.5167,-2.5177,-2.419,-2.4374,-2.5033,-2.632,-2.6434,-2.6849,-2.8121,-2.8545,-2.9134,-3.0041,-3.022,-3.0403,-3.1117,-3.074,-3.0561,-3.1038,-3.0847,-3.048,-3.0142,-2.977,-2.9228,-2.845,-2.8958,-2.9776,-3.068,-3.1077,-3.1776,-3.3466,-3.3798,-3.3797,-3.3817,-3.3807,-3.3807,-3.3807,-3.3807,-3.3807,-3.3807,-3.3807,-3.3807,-3.3807,-3.4476,-3.5259,-1.438,-1.4413,-1.4313,-1.4063,-1.3572,-1.1848,-1.1435,-1.195,-1.2057,-1.2591,-1.338,-1.338,-1.3414,-1.3447,-1.3447,-1.3447,-1.3447,-1.3397,-1.3744,-1.4405,-1.435,-1.4332,-1.4392,-1.5059,-1.5059,-1.4392,-1.5059,-1.541,-1.541,-1.541,-1.543,-1.5508,-1.5939,-1.6154,-1.6133,-1.5762,-1.5547,-1.5488,-1.543,-1.541,-1.541,-1.4629,-1.4199,-1.4048,-1.3379,-1.2949,-1.2891,-1.3027,-1.3096,-1.3144,-1.3193,-1.3511,-1.4089,-1.3598,-1.352,0.0,-1.3762,0.0,0.0,0.0,0.0,0.0,0.0,0.0,0.0,-1.6902,-1.8913,-2.3232,-2.152,-2.1671,-2.5243,-2.5758,-2.5803,-2.5781,-2.6333,-2.697,-2.7456,-2.8015,-2.8778,-2.9824,-3.0079,-3.0393,-3.0797,-3.1072,-3.119,-3.119,-3.1157,-3.1157,-3.119,-3.1157,-3.092,-3.0311,-3.0176,-2.977,-2.933,-2.9668,-3.0224,-3.0697,-3.1184,-3.1966,-3.3496,-3.3806,-3.3807,-3.3807,-3.3807,-3.3807,-3.3807,-3.388,-3.4027,-3.4201,-3.4274,-3.4174,-3.3954,-3.4548,-3.5727,-1.4745,-1.496,-1.453,-1.4347,-1.4413,-1.387,-1.3308,-1.281,-1.3501,-1.4428,-1.5495,-1.5495,-1.5685,-1.5965,-1.5965,-1.6046,-1.5946,-1.5666,-1.5616,-1.5737,-1.533,-1.5177,-1.5177,-1.5352,-1.5294,-1.5177,-1.5352,-1.541,-1.541,-1.541,-1.5586,-1.5937,-1.6076,-1.625,-1.6582,0.0,0.0,0.0,-1.5605,-1.541,-1.5391,-1.4922,-1.4492,-1.4087,-1.3652,0.0,-1.2959,-1.3777,-1.4286,-1.4286,-1.4725,0.0,0.0,0.0,0.0,0.0,0.0,0.0,0.0,0.0,0.0,0.0,-1.7731,-1.7609,-1.7396,-1.9195,-2.1269,-2.3327,-2.3113,-2.3629,-2.5425,-2.6609,-2.6983,-2.6531,-2.6991,-2.745,-2.7569,-2.7689,-2.7849,-2.8082,-2.8979,-2.9629,-2.9848,-3.0559,-3.119,-3.119,-3.119,-3.119,-3.119,-3.119,-3.1123,-3.0954,-3.0514,-3.0108,-2.9905,-3.004,-3.0568,-3.1458,-3.2055,-3.2631,-3.3557,-3.3834,-3.3807,-3.3807,-3.3807,-3.3844,-3.3844,-3.4321,-3.4981,-3.569,-3.5809,-3.543,-3.4101,-3.4249,-3.5343,-1.6464,0.0,-1.6296,-1.6066,0.0,-1.5881,-1.5478,-1.479,-1.4812,-1.5388,-1.6387,-1.6387,-1.6523,-1.6655,-1.6655,-1.6655,-1.6655,-1.6504,-1.6387,-1.6367,-1.5937,-1.5859,-1.6055,-1.584,-1.584,-1.6055,-1.6055,-1.6055,-1.6074,-1.5994,-1.6172,-1.6387,-1.6602,-1.6816,-1.7051,-1.7051,-1.6738,-1.6135,-1.584,-1.5625,-1.541,-1.5,-1.4687,-1.4453,-1.4043,0.0,0.0,0.0,0.0,0.0,0.0,0.0,0.0,0.0,0.0,-1.65,-1.6298,-1.6372,-1.6913,-1.7215,-1.7713,-1.857,-1.952,-1.9682,-1.8835,-2.1026,-2.2761,-2.3496,-2.4193,-2.5149,-2.6425,-2.72,-2.7436,-2.716,-2.743,-2.771,-2.7978,-2.8319,-2.8622,-2.895,-2.9761,-3.0309,-3.0309,-3.0797,-3.119,-3.119,-3.119,-3.119,-3.119,-3.119,-3.119,-3.119,-3.092,-3.0649,-3.0649,-3.0649,-3.1022,-3.2021,-3.2403,-3.2866,-3.3655,-3.3808,-3.3807,-3.3844,-3.41,-3.4431,-3.4679,-3.5202,-3.5854,-3.6462,-3.647,-3.6091,-3.5198,-3.5441,-3.635,-1.8008,-1.8008,-1.8008,-1.7812,-1.7519,-1.7504,-1.7273,-1.687,0.0,0.0,0.0,-1.6855,-1.6831,-1.6889,-1.6953,-1.6953,-1.6889,-1.6811,-1.6855,-1.6836,-1.6387,-1.6387,-1.6699,-1.6348,-1.6367,-1.6655,-1.6655,-1.6655,-1.6655,-1.6655,-1.6777,-1.6875,-1.7207,-1.7422,-1.748,-1.75,-1.709,-1.639,-1.623,-1.5957,-1.5527,-1.5195,-1.4941,-1.4785,-1.4434,-1.4253,-1.4281,-1.506,-1.5571,-1.5704,-1.6463,-1.7088,-1.7557,-1.7533,-1.7677,-1.8157,-1.8204,-1.8254,-1.8329,-1.8425,-1.8827,-1.9501,-2.1119,-2.1672,-2.0783,-2.26,-2.3985,-2.4282,-2.5299,-2.6387,-2.7516,-2.7606,-2.7569,-2.758,-2.756,-2.781,-2.8271,-2.8857,-2.9316,-2.9935,-3.0477,-3.0965,-3.0818,-3.1004,-3.119,-3.1224,-3.1393,-3.1393,-3.136,-3.1292,-3.119,-3.119,-3.1123,-3.1157,-3.119,-3.1157,-3.1579,-3.2298,-3.2502,-3.2791,-3.355,-3.4027,-3.4174,-3.41,-3.4688,-3.5312,-3.5707,-3.6185,-3.6699,-3.7272,-3.7059,-3.6714,-3.6765,-3.7088,-3.7808,-1.8008,-1.8008,-1.8008,-1.7969,-1.793,-1.7901,-1.7862,-1.7773,-1.6883,-1.685,-1.7285,-1.7285,-1.75,-1.7832,-1.7832,-1.7832,-1.7793,-1.7461,-1.7285,-1.7285,-1.6836,-1.666,-1.6655,-1.666,-1.666,-1.6655,-1.6675,-1.6655,-1.6675,-1.6675,-1.6914,-1.7266,-1.7363,-1.7559,-1.791,-1.791,-1.7676,-1.7207,-1.6836,-1.6426,-1.6056,-1.5978,-1.5586,-1.4824,-1.4727,-1.4819,-1.505,-1.609,-1.7013,-1.7682,-1.8286,-1.871,-1.8734,-1.8336,-1.8109,-1.8204,-1.8204,-1.8405,-1.8882,-1.9416,-2.0193,-2.1266,-2.213,-2.2745,-2.3082,-2.4148,-2.544,-2.6841,-2.7126,-2.7406,-2.757,-2.76,-2.76,-2.761,-2.756,-2.761,-2.776,-2.8271,-2.8748,-2.892,-2.9761,-3.0261,-3.0063,-3.0664,-3.1292,-3.1326,-3.2083,-3.2422,-3.2144,-3.1596,-3.1224,-3.119,-3.119,-3.119,-3.136,-3.119,-3.1682,-3.2332,-3.2537,-3.2798,-3.3826,-3.4936,-3.5441,-3.4945,-3.5532,-3.6221,-3.6757,-3.7132,-3.761,-3.8184,-3.8198,-3.8212,-3.8181,-3.8322,-3.8685,-1.8008,-1.8008,-1.8008,-1.8008,-1.8008,-1.8008,-1.8008,-1.7969,-1.7598,-1.7539,-1.7715,-1.7715,-1.7832,-1.8008,-1.8008,-1.8008,-1.8008,-1.7812,-1.7734,-1.7695,-1.7285,-1.7207,-1.7383,-1.7207,-1.7207,-1.7422,-1.7422,-1.7422,-1.7422,-1.7422,-1.7519,-1.7715,-1.7715,-1.7812,-1.8008,-1.8008,-1.791,-1.7734,-1.7305,-1.6875,-1.6445,-1.6426,-1.6133,-1.5488,-1.5469,-1.5656,-1.5909,-1.6808,-1.7672,-1.8434,-1.9078,-1.9459,-1.9434,-1.9208,-1.9058,-1.9083,-1.9083,-1.9183,-1.9434,-2.0373,-2.1485,-2.2704,-2.3363,-2.3655,-2.3593,-2.4473,-2.5708,-2.7405,-2.7576,-2.759,-2.761,-2.756,-2.756,-2.756,-2.756,-2.756,-2.766,-2.8125,-2.8809,-2.9516,-3.0312,-3.0738,-3.045,-3.1366,-3.1739,-3.1489,-3.2855,-3.3877,-3.3059,-3.2611,-3.2239,-3.1901,-3.2104,-3.2374,-3.2374,-3.2408,-3.2662,-3.3276,-3.2897,-3.3202,-3.4335,-3.5681,-3.6038,-3.5862,-3.6376,-3.6956,-3.7316,-3.7764,-3.8279,-3.8499,-3.8683,-3.8689,-3.8719,-3.895,-3.941,-1.8105,-1.8008,-1.8008,-1.8008,-1.8008,-1.8008,-1.8008,-1.8008,-1.8008,-1.8008,-1.8008,-1.8008,-1.8008,-1.8008,-1.8008,-1.8008,-1.8008,-1.8008,-1.8008,-1.7969,-1.7676,-1.7695,-1.7949,-1.7676,-1.7695,-1.7988,-1.8008,-1.8008,-1.8008,-1.8008,-1.8008,-1.8008,-1.8008,-1.8008,-1.8008,-1.8008,-1.8008,-1.7988,-1.7695,-1.7324,-1.6894,-1.6875,-1.666,-1.625,-1.6435,-1.6697,-1.7105,-1.7801,-1.851,-1.9119,-1.9726,-1.9936,-1.9811,-1.9811,-1.9811,-1.9811,-1.9811,-2.0016,-2.0476,-2.1518,-2.2715,-2.4009,-2.4574,-2.4604,-2.4211,-2.4721,-2.5819,-2.7285,-2.7579,-2.761,-2.756,-2.756,-2.756,-2.764,-2.776,-2.7829,-2.785,-2.8492,-2.9373,-3.0511,-3.1283,-3.1616,-3.185,-3.2396,-3.2715,-3.2774,-3.4194,-3.4942,-3.3982,-3.3761,-3.3592,-3.3085,-3.3152,-3.3288,-3.3389,-3.3355,-3.3577,-3.4129,-3.3419,-3.3737,-3.5115,-3.6266,-3.667,-3.6736,-3.7221,-3.7698,-3.7808,-3.8212,-3.8615,-3.8689,-3.8689,-3.8726,-3.8726,-3.977,-4.0424,-1.8359,-1.8027,-1.8047,-1.8008,-1.8027,-1.8027,-1.8047,-1.8027,-1.8008,-1.8008,-1.8008,-1.8008,-1.8008,-1.8008,-1.8008,-1.8008,-1.8008,-1.8008,-1.8008,-1.8008,-1.7969,-1.7969,-1.8008,-1.7949,-1.7969,-1.8008,-1.8008,-1.8008,-1.8008,-1.8008,-1.8008,-1.8008,-1.8008,-1.8008,-1.8008,-1.8008,-1.8008,-1.8008,-1.7969,-1.7754,-1.7344,-1.7324,-1.7109,-1.668,-1.7451,-1.8144,-1.8792,-1.968,-2.0234,-2.0532,-2.0536,-2.0363,-1.9886,-1.9811,-1.9811,-1.9836,-1.9836,-2.0552,-2.2237,-2.3102,-2.4043,-2.5242,-2.5435,-2.5497,-2.545,-2.5482,-2.6128,-2.7297,-2.756,-2.761,-2.756,-2.767,-2.776,-2.7799,-2.8188,-2.8517,-2.8651,-2.9623,-3.0623,-3.131,-3.1987,-3.2531,-3.3076,-3.3381,-3.3829,-3.466,-3.512,-3.5334,-3.4651,-3.4844,-3.4945,-3.4312,-3.3872,-3.3525,-3.3525,-3.3423,-3.3932,-3.4506,-3.4023,-3.4442,-3.5928,-3.7314,-3.8295,-3.7581,-3.7955,-3.8432,-3.8505,-3.8689,-3.8689,-3.8689,-3.8726,-3.8695,-3.9019,-4.0783,-4.2222,-1.8926,-1.8769,-1.8769,-1.8762,-1.8734,-1.8782,-1.8582,-1.8337,-1.8329,-1.8242,-1.8027,-1.8008,-1.8008,-1.8008,-1.8008,-1.8008,-1.8008,-1.8008,-1.8008,-1.8008,-1.8008,-1.8008,-1.8008,-1.8008,-1.8008,-1.8008,-1.8008,-1.8008,-1.8008,-1.8008,-1.8008,-1.8008,-1.8008,-1.8008,-1.8008,-1.8008,-1.8267,-1.8771,-1.8783,-1.8961,-1.9188,-1.8775,-1.8308,-1.7963,-1.8635,-1.9342,-1.9866,-2.025,-2.0613,-2.1112,-2.1142,-2.1041,-2.0815,-2.079,-2.079,-2.0844,-2.1194,-2.1956,-2.3151,-2.39,-2.4838,-2.6129,-2.6171,-2.6355,-2.6722,-2.6792,-2.7031,-2.745,-2.76,-2.7709,-2.8098,-2.8553,-2.8785,-2.8809,-2.9026,-2.9175,-2.9205,-2.999,-3.0955,-3.1949,-3.2718,-3.3504,-3.4398,-3.4709,-3.4989,-3.5508,-3.561,-3.544,-3.5216,-3.5419,-3.5453,-3.5182,-3.4878,-3.4742,-3.4675,-3.4709,-3.49,-3.5208,-3.5556,-3.615,-3.6644,-3.7812,-3.8536,-3.8212,-3.8469,-3.8689,-3.8652,-3.8689,-3.8689,-3.8799,-3.87,-3.87,-3.8707,-4.1539,-4.3491,-1.9394,-1.9297,-1.9277,-1.9272,-1.9298,-1.9291,-1.9088,-1.8802,-1.8776,-1.8633,-1.8379,-1.8359,-1.8281,-1.8184,-1.8066,-1.8008,-1.8008,-1.8008,-1.8008,-1.8008,-1.8008,-1.8008,-1.8008,-1.8008,-1.8008,-1.8008,-1.8008,-1.8008,-1.8008,-1.8008,-1.8008,-1.8008,-1.8212,-1.8367,-1.8359,-1.8569,-1.9048,-1.9576,-1.9684,-1.9944,-2.0462,-2.0204,-1.9727,-1.9276,-1.999,-2.0572,-2.0819,-2.1029,-2.1329,-2.1719,-2.1719,-2.1644,-2.1493,-2.1493,-2.1493,-2.1579,-2.2376,-2.3122,-2.381,-2.4676,-2.5688,-2.6703,-2.6871,-2.7051,-2.755,-2.782,-2.8021,-2.8192,-2.7838,-2.7832,-2.8263,-2.9411,-3.0114,-3.0135,-2.9973,-2.9888,-3.0159,-3.0738,-3.1717,-3.2915,-3.3597,-3.4267,-3.5273,-3.5554,-3.5588,-3.5588,-3.5622,-3.5757,-3.5893,-3.596,-3.5926,-3.5904,-3.5938,-3.5791,-3.569,-3.552,-3.5622,-3.5864,-3.6296,-3.6594,-3.7248,-3.8207,-3.87,-3.848,-3.8658,-3.8872,-3.9129,-3.9093,-3.9239,-3.9318,-3.9323,-3.936,-3.9595,-4.2435,-4.4386,-1.9648,-1.9316,-1.9297,-1.9336,-1.9297,-1.9316,-1.9297,-1.9277,-1.9258,-1.9238,-1.916,-1.918,-1.8984,-1.8594,-1.8242,-1.8008,-1.8008,-1.8008,-1.8008,-1.8008,-1.8008,-1.8008,-1.8008,-1.8008,-1.8008,-1.8008,-1.8066,-1.8047,-1.8076,-1.8076,-1.8008,-1.8076,-1.8844,-1.9235,-1.9313,-1.9921,-2.0486,-2.0531,-2.0506,-2.059,-2.0782,-2.1416,-2.133,-2.0715,-2.1369,-2.1782,-2.1882,-2.2542,-2.2739,-2.2297,-2.2272,-2.2071,-2.1594,-2.1599,-2.1625,-2.1711,-2.2858,-2.3865,-2.4546,-2.5741,-2.6762,-2.735,-2.744,-2.753,-2.764,-2.821,-2.8824,-2.9425,-2.8545,-2.7959,-2.8083,-2.9924,-3.1182,-3.1219,-3.083,-3.0849,-3.1389,-3.205,-3.3091,-3.4103,-3.4478,-3.483,-3.5532,-3.5622,-3.5656,-3.569,-3.569,-3.596,-3.6569,-3.6738,-3.6763,-3.6741,-3.6661,-3.6502,-3.5859,-3.5622,-3.581,-3.6105,-3.6215,-3.6352,-3.7361,-3.8285,-3.8591,-3.8821,-3.903,-3.9313,-3.968,-3.9974,-4.0267,-4.0451,-4.0602,-4.0671,-4.0941,-4.2932,-4.4562,-2.0234,-2.0098,-2.0098,-2.0098,-2.0098,-2.0098,-1.9941,-1.9707,-1.9687,-1.9531,-1.9316,-1.9277,-1.9199,-1.9043,-1.8906,-1.8516,-1.8047,-1.8008,-1.8008,-1.8008,-1.8008,-1.8008,-1.8047,-1.827,-1.8251,-1.8086,-1.8281,-1.8537,-1.8798,-1.8844,-1.911,-1.9617,-1.9944,-2.014,-2.0205,-2.0464,-2.0864,-2.1339,-2.1409,-2.169,-2.2101,-2.2494,-2.2494,-2.2249,-2.2519,-2.2641,-2.2641,-2.2944,-2.2965,-2.2849,-2.2765,-2.2749,-2.2631,-2.3045,-2.3275,-2.3446,-2.464,-2.5554,-2.583,-2.6667,-2.732,-2.758,-2.756,-2.759,-2.7649,-2.7935,-2.8832,-3.0212,-3.0431,-2.9839,-2.9377,-3.0478,-3.148,-3.152,-3.1713,-3.1873,-3.24,-3.3171,-3.4092,-3.4561,-3.4944,-3.535,-3.5554,-3.5622,-3.5825,-3.6299,-3.6763,-3.7182,-3.7394,-3.7516,-3.753,-3.7496,-3.7496,-3.7415,-3.7178,-3.6129,-3.5745,-3.6117,-3.6414,-3.7172,-3.8096,-3.959,-4.0235,-4.0061,-3.9978,-4.012,-4.0598,-4.0818,-4.1148,-4.1552,-4.1702,-4.1899,-4.2432,-4.3765,-4.4739,-2.0566,-2.0566,-2.0566,-2.0566,-2.0566,-2.0566,-2.0391,-2.0137,-2.0117,-1.9961,-1.9727,-1.9707,-1.9629,-1.9512,-1.9492,-1.9121,-1.8457,-1.8418,-1.8418,-1.8418,-1.8429,-1.8547,-1.8874,-1.8872,-1.9063,-1.9356,-1.963,-1.9975,-2.0175,-2.02,-2.0533,-2.1083,-2.1187,-2.1376,-2.155,-2.1632,-2.2035,-2.2482,-2.2555,-2.2776,-2.3115,-2.3125,-2.3125,-2.3065,-2.3125,-2.3125,-2.3125,-2.3125,-2.3125,-2.3125,-2.3125,-2.3185,-2.3484,-2.3989,-2.4394,-2.4738,-2.5797,-2.6496,-2.6549,-2.7203,-2.761,-2.764,-2.7799,-2.7859,-2.7697,-2.8077,-2.9432,-3.0945,-3.15,-3.1084,-3.0619,-3.0998,-3.1471,-3.1537,-3.1966,-3.2461,-3.2895,-3.3713,-3.4399,-3.4897,-3.5585,-3.5949,-3.6028,-3.5756,-3.6241,-3.7191,-3.8091,-3.8547,-3.8309,-3.8261,-3.8246,-3.828,-3.8246,-3.8063,-3.7889,-3.717,-3.7011,-3.7281,-3.712,-3.7895,-3.9191,-4.0739,-4.1469,-4.1272,-4.1222,-4.1295,-4.1442,-4.1662,-4.2066,-4.2506,-4.2562,-4.2606,-4.3357,-4.4175,-4.499,-2.0566,-2.0566,-2.0566,-2.0566,-2.0566,-2.0566,-2.0644,-2.0527,-2.0527,-2.0469,-2.0391,-2.0488,-2.0234,-1.998,-1.9922,-1.9687,-1.9355,-1.9442,-1.9364,-1.9357,-1.9402,-1.99,-2.0639,-1.9971,-2.0435,-2.1842,-2.2024,-2.2093,-2.2071,-2.2049,-2.2117,-2.232,-2.2592,-2.2943,-2.3433,-2.3603,-2.3853,-2.3912,-2.3841,-2.3691,-2.3165,-2.3215,-2.324,-2.319,-2.3226,-2.3201,-2.3175,-2.315,-2.3125,-2.3125,-2.3125,-2.3484,-2.4047,-2.4337,-2.4681,-2.5384,-2.6122,-2.6496,-2.6602,-2.7203,-2.764,-2.779,-2.8218,-2.8293,-2.8218,-2.9139,-3.0398,-3.1218,-3.1498,-3.1392,-3.1392,-3.1625,-3.1655,-3.1509,-3.1739,-3.2351,-3.3235,-3.3649,-3.4185,-3.5425,-3.6287,-3.6852,-3.684,-3.6451,-3.6625,-3.8072,-3.9242,-3.9617,-3.9137,-3.9005,-3.9023,-3.8991,-3.8974,-3.8888,-3.8594,-3.8342,-3.8584,-3.8729,-3.8279,-3.8501,-4.0295,-4.1795,-4.2159,-4.2075,-4.1882,-4.1956,-4.2249,-4.2506,-4.2901,-4.3229,-4.3272,-4.3297,-4.3895,-4.4575,-4.5133,-2.0566,-2.0566,-2.0566,-2.0566,-2.0566,-2.0566,-2.0566,-2.0566,-2.0566,-2.0566,-2.0566,-2.0566,-2.0488,-2.0391,-2.0371,-2.037,-2.0252,-2.0797,-2.0864,-2.0555,-2.0958,-2.1418,-2.1721,-2.1768,-2.2084,-2.2542,-2.2342,-2.2548,-2.3045,-2.3112,-2.3356,-2.3862,-2.4116,-2.4267,-2.4391,-2.4482,-2.4553,-2.4526,-2.4514,-2.4456,-2.4305,-2.428,-2.428,-2.4255,-2.3929,-2.3728,-2.3728,-2.3351,-2.309,-2.3125,-2.3125,-2.3484,-2.4247,-2.4794,-2.5412,-2.6122,-2.6864,-2.7255,-2.7255,-2.7437,-2.7799,-2.8188,-2.8487,-2.8929,-2.9295,-2.9869,-3.0638,-3.1369,-3.1531,-3.1482,-3.1627,-3.2466,-3.2522,-3.1627,-3.2351,-3.3024,-3.3662,-3.4857,-3.5885,-3.639,-3.7084,-3.755,-3.7584,-3.7225,-3.7643,-3.8633,-3.9623,-3.9929,-3.9815,-3.9681,-3.9749,-3.9767,-3.9715,-3.9695,-3.9494,-3.9755,-4.0254,-4.0264,-3.9868,-3.9825,-4.143,-4.2377,-4.2704,-4.2809,-4.2619,-4.2653,-4.2983,-4.3238,-4.349,-4.3684,-4.3578,-4.3821,-4.426,-4.4753,-4.5354,-2.0566,-2.0566,-2.0566,-2.0566,-2.0566,-2.0566,-2.0566,-2.0566,-2.0566,-2.0566,-2.0566,-2.0566,-2.0566,-2.0566,-2.0566,-2.0779,-2.1221,-2.2113,-2.2461,-2.2364,-2.2462,-2.2894,-2.3283,-2.3906,-2.4002,-2.3769,-2.3746,-2.4086,-2.4584,-2.4652,-2.4878,-2.5344,-2.5209,-2.5189,-2.5383,-2.5203,-2.512,-2.5061,-2.5095,-2.5008,-2.4858,-2.4833,-2.4833,-2.4782,-2.4481,-2.4305,-2.428,-2.3954,-2.3577,-2.3286,-2.3365,-2.4047,-2.4993,-2.555,-2.6122,-2.6811,-2.7306,-2.756,-2.759,-2.7829,-2.8098,-2.8577,-2.9026,-2.9505,-3.0128,-3.0406,-3.1054,-3.1805,-3.1693,-3.152,-3.1708,-3.2742,-3.3294,-3.3177,-3.3319,-3.3745,-3.4161,-3.5627,-3.6673,-3.6961,-3.7696,-3.8145,-3.8328,-3.8633,-3.8836,-3.9427,-3.9781,-4.0068,-4.0104,-4.0054,-4.0138,-4.0204,-4.03,-4.0357,-4.0491,-4.1086,-4.1949,-4.1832,-4.1561,-4.1793,-4.2668,-4.2996,-4.3284,-4.3245,-4.3094,-4.3057,-4.3314,-4.3385,-4.3563,-4.3712,-4.3901,-4.4218,-4.4545,-4.5065,-4.5554,-2.0605,-2.0586,-2.0566,-2.0566,-2.0566,-2.0566,-2.0566,-2.0566,-2.0566,-2.0566,-2.0566,-2.0799,-2.0799,-2.0722,-2.1011,-2.1451,-2.2113,-2.3136,-2.394,-2.4304,-2.4207,-2.4209,-2.4991,-2.5689,-2.5669,-2.5204,-2.5832,-2.6202,-2.6102,-2.6195,-2.6533,-2.6264,-2.5862,-2.5887,-2.6173,-2.5862,-2.5677,-2.5673,-2.5652,-2.5435,-2.5059,-2.5008,-2.5008,-2.5008,-2.4908,-2.4858,-2.4858,-2.4682,-2.423,-2.3462,-2.4053,-2.5073,-2.621,-2.6558,-2.6992,-2.7705,-2.7709,-2.7799,-2.7859,-2.8338,-2.8727,-2.8966,-2.9774,-3.0436,-3.0496,-3.1114,-3.1845,-3.2578,-3.216,-3.1751,-3.1967,-3.3335,-3.4497,-3.5342,-3.4651,-3.4258,-3.472,-3.6119,-3.7028,-3.7336,-3.817,-3.9039,-3.9073,-3.9546,-3.9851,-4.0002,-4.007,-4.0104,-4.0154,-4.0154,-4.0154,-4.0368,-4.0685,-4.092,-4.106,-4.1626,-4.2382,-4.2393,-4.2371,-4.2778,-4.3176,-4.3358,-4.3503,-4.3499,-4.3497,-4.3497,-4.3495,-4.3563,-4.3726,-4.4028,-4.4261,-4.4537,-4.4919,-4.5361,-4.5552,-2.1055,-2.1016,-2.0703,-2.0566,-2.0566,-2.0566,-2.0566,-2.0566,-2.0566,-2.0566,-2.0722,-2.1375,-2.1527,-2.1735,-2.2339,-2.2936,-2.3283,-2.4108,-2.4707,-2.5063,-2.5581,-2.5791,-2.6094,-2.6302,-2.6371,-2.6164,-2.6302,-2.6533,-2.6533,-2.6533,-2.6533,-2.6533,-2.6289,-2.6264,-2.6483,-2.6289,-2.6264,-2.6271,-2.6221,-2.6163,-2.6013,-2.5988,-2.6038,-2.5988,-2.5611,-2.541,-2.5335,-2.4987,-2.4709,-2.4507,-2.5149,-2.6045,-2.6974,-2.7569,-2.8148,-2.88,-2.8996,-2.9026,-2.9056,-2.9205,-2.9505,-2.9953,-3.0313,-3.0702,-3.1153,-3.187,-3.2382,-3.2711,-3.2823,-3.3077,-3.3423,-3.5245,-3.6754,-3.7002,-3.6009,-3.5449,-3.6214,-3.7475,-3.8434,-3.8539,-3.9227,-3.9648,-3.9783,-3.9884,-4.0087,-4.0087,-4.0087,-4.0154,-4.0254,-4.0466,-4.0577,-4.0851,-4.1146,-4.14,-4.1736,-4.2275,-4.2619,-4.2732,-4.2886,-4.3176,-4.3355,-4.3463,-4.3463,-4.3497,-4.3497,-4.3497,-4.3597,-4.3693,-4.4004,-4.4318,-4.4562,-4.4813,-4.5186,-4.5568,-4.5568,-2.123,-2.1191,-2.0742,-2.0566,-2.0566,-2.0566,-2.0566,-2.0566,-2.0566,-2.0566,-2.0722,-2.1145,-2.1659,-2.2017,-2.2638,-2.3379,-2.4108,-2.4707,-2.5229,-2.5721,-2.6164,-2.6465,-2.6465,-2.6533,-2.6533,-2.6533,-2.6533,-2.6533,-2.6533,-2.6533,-2.6533,-2.6533,-2.6533,-2.6533,-2.6533,-2.6533,-2.6533,-2.644,-2.6533,-2.6533,-2.6533,-2.6533,-2.6508,-2.6483,-2.6181,-2.6072,-2.6355,-2.6517,-2.6362,-2.6054,-2.631,-2.7051,-2.814,-2.8594,-2.9153,-2.9594,-2.9594,-2.9564,-2.9654,-2.9804,-3.0133,-3.0492,-3.0731,-3.1261,-3.1875,-3.2468,-3.2858,-3.391,-3.4272,-3.4424,-3.4919,-3.707,-3.8265,-3.7894,-3.7382,-3.7114,-3.7318,-3.8241,-3.8922,-3.916,-3.9615,-4.0087,-4.0087,-4.0087,-4.0087,-4.0087,-4.0087,-4.0254,-4.0466,-4.0733,-4.108,-4.1332,-4.1718,-4.2051,-4.2255,-4.2702,-4.2995,-4.3032,-4.3105,-4.3461,-4.3497,-4.3497,-4.3495,-4.3495,-4.3495,-4.3563,-4.3758,-4.3974,-4.4204,-4.4523,-4.4805,-4.5086,-4.54,-4.5586,-4.5586,-2.1367,-2.1328,-2.0898,-2.0742,-2.0664,-2.0683,-2.0664,-2.0566,-2.0566,-2.0566,-2.0722,-2.0857,-2.168,-2.2188,-2.2988,-2.3576,-2.5158,-2.53,-2.5721,-2.6164,-2.6465,-2.6533,-2.6533,-2.6533,-2.6533,-2.6533,-2.6533,-2.6533,-2.6533,-2.6533,-2.6533,-2.6533,-2.6533,-2.6533,-2.6533,-2.6533,-2.6533,-2.6533,-2.6533,-2.6533,-2.6533,-2.6533,-2.6533,-2.6508,-2.6663,-2.7059,-2.7749,-2.8279,-2.8395,-2.7603,-2.7489,-2.8302,-2.9474,-2.9669,-2.9864,-2.9924,-2.9983,-2.9953,-2.9924,-3.0402,-3.0612,-3.0791,-3.1357,-3.1944,-3.2653,-3.3185,-3.408,-3.5444,-3.5679,-3.5712,-3.6619,-3.8628,-3.92,-3.8681,-3.8719,-3.87,-3.8464,-3.87,-3.9125,-3.9143,-3.9767,-4.002,-4.0087,-4.0087,-4.0087,-4.0138,-4.0272,-4.07,-4.0931,-4.1241,-4.1576,-4.1889,-4.2286,-4.2702,-4.2923,-4.3137,-4.3283,-4.3356,-4.3356,-4.3497,-4.3497,-4.3495,-4.3529,-4.3563,-4.366,-4.3818,-4.4095,-4.429,-4.4535,-4.4762,-4.5061,-4.5265,-4.5494,-4.5568,-4.5586,-2.2246,-2.2207,-2.1777,-2.1406,-2.1074,-2.1036,-2.0878,-2.0566,-2.0644,-2.0702,-2.0934,-2.2113,-2.2936,-2.3283,-2.4541,-2.5791,-2.6025,-2.6094,-2.6396,-2.6371,-2.6533,-2.6533,-2.6533,-2.6533,-2.6533,-2.6533,-2.6533,-2.6533,-2.6533,-2.6533,-2.6533,-2.6533,-2.6533,-2.6533,-2.6533,-2.6533,-2.6533,-2.6533,-2.6533,-2.6533,-2.6533,-2.6533,-2.6533,-2.6577,-2.7162,-2.7907,-2.8556,-2.8912,-2.9219,-2.9501,-2.9576,-2.9725,-3.0192,-3.0686,-3.0914,-3.0971,-3.1031,-3.1061,-3.112,-3.115,-3.133,-3.1474,-3.241,-3.3264,-3.3488,-3.4484,-3.5435,-3.629,-3.6075,-3.6552,-3.855,-3.9578,-3.9781,-3.9596,-3.9614,-3.9715,-3.9648,-3.9715,-3.9783,-3.9884,-3.9952,-4.0087,-4.0087,-4.007,-4.0154,-4.0222,-4.0603,-4.1138,-4.1461,-4.1768,-4.2073,-4.2438,-4.274,-4.3105,-4.3176,-4.3351,-4.3387,-4.3497,-4.3497,-4.3671,-4.3671,-4.3597,-4.3697,-4.3791,-4.3912,-4.4117,-4.4373,-4.4638,-4.4919,-4.5099,-4.5283,-4.5438,-4.553,-4.5586,-4.5988,-2.2519,-2.2441,-2.1836,-2.1445,-2.1191,-2.0977,-2.0781,-2.0682,-2.108,-2.1253,-2.1583,-2.2861,-2.3745,-2.4253,-2.53,-2.5955,-2.6465,-2.6533,-2.6465,-2.6533,-2.6533,-2.6533,-2.6533,-2.6533,-2.6533,-2.6533,-2.6533,-2.6533,-2.6533,-2.6533,-2.6533,-2.6533,-2.6533,-2.6533,-2.6533,-2.6533,-2.6533,-2.6533,-2.6533,-2.6533,-2.6533,-2.6533,-2.6782,-2.7297,-2.8195,-2.9192,-2.9566,-3.0025,-3.0418,-3.0719,-3.0866,-3.0836,-3.0896,-3.1219,-3.1452,-3.1482,-3.1482,-3.1482,-3.1509,-3.1826,-3.217,-3.2505,-3.355,-3.4438,-3.4899,-3.5643,-3.6448,-3.7103,-3.6837,-3.6801,-3.963,-4.0086,-4.0138,-4.0087,-4.0087,-4.0087,-4.0087,-4.0087,-4.0087,-4.0087,-4.0054,-4.0087,-4.0104,-4.0118,-4.0651,-4.0948,-4.1174,-4.1639,-4.2037,-4.2342,-4.2657,-4.2959,-4.3249,-4.3426,-4.3426,-4.3461,-4.3461,-4.3497,-4.3497,-4.3845,-4.4119,-4.3971,-4.3892,-4.4042,-4.4204,-4.4482,-4.4751,-4.4988,-4.5201,-4.5342,-4.5475,-4.5568,-4.5624,-4.568,-4.639,-2.2617,-2.2539,-2.1816,-2.1484,-2.1367,-2.1075,-2.1016,-2.1091,-2.1765,-2.2105,-2.2446,-2.3283,-2.4276,-2.485,-2.5229,-2.5816,-2.6302,-2.6533,-2.6533,-2.6533,-2.6533,-2.6533,-2.6533,-2.6533,-2.6533,-2.6533,-2.6533,-2.6533,-2.6533,-2.6533,-2.6533,-2.6533,-2.6533,-2.6533,-2.6533,-2.6533,-2.6533,-2.6533,-2.6533,-2.6645,-2.6782,-2.6782,-2.7229,-2.8363,-2.9254,-3.0208,-3.051,-3.0955,-3.1394,-3.1482,-3.1482,-3.1482,-3.1482,-3.1482,-3.1482,-3.1482,-3.1482,-3.1625,-3.1913,-3.2369,-3.3036,-3.3786,-3.4854,-3.5699,-3.6509,-3.6927,-3.7683,-3.797,-3.7968,-3.7619,-3.9767,-4.0087,-4.0087,-4.0087,-4.0087,-4.0087,-4.0138,-4.0154,-4.0254,-4.0087,-4.0104,-4.0104,-4.0065,-4.0138,-4.0931,-4.166,-4.1894,-4.2098,-4.2462,-4.2846,-4.3105,-4.3214,-4.3391,-4.3497,-4.3497,-4.3529,-4.3495,-4.3483,-4.3487,-4.3966,-4.4431,-4.4599,-4.4533,-4.4383,-4.4535,-4.4825,-4.5049,-4.5222,-4.54,-4.5568,-4.5586,-4.5586,-4.5642,-4.5757,-4.6775,-2.3027,-2.3027,-2.2871,-2.2617,-2.2266,-2.2182,-2.2211,-2.233,-2.2595,-2.2834,-2.3379,-2.4348,-2.485,-2.5229,-2.5955,-2.6371,-2.644,-2.6533,-2.649,-2.6515,-2.654,-2.654,-2.6666,-2.659,-2.654,-2.6533,-2.6559,-2.6609,-2.6584,-2.6533,-2.6615,-2.6584,-2.6584,-2.6584,-2.6533,-2.6533,-2.6508,-2.662,-2.6645,-2.6918,-2.7404,-2.767,-2.826,-2.9504,-3.0147,-3.0629,-3.1131,-3.1394,-3.1482,-3.1482,-3.1482,-3.1482,-3.1539,-3.1539,-3.1657,-3.1629,-3.1687,-3.2004,-3.2517,-3.316,-3.3818,-3.4749,-3.6247,-3.7281,-3.7945,-3.862,-3.911,-3.9345,-3.953,-3.948,-3.9986,-4.0087,-4.0087,-4.0087,-4.0087,-4.0087,-4.0188,-4.0417,-4.0528,-4.0319,-4.0186,-4.0133,-4.013,-4.0516,-4.149,-4.2278,-4.2696,-4.2609,-4.2623,-4.2996,-4.3321,-4.3391,-4.3497,-4.3497,-4.3497,-4.3529,-4.3523,-4.3526,-4.3652,-4.4109,-4.4578,-4.5103,-4.5223,-4.4948,-4.4919,-4.5137,-4.5321,-4.5458,-4.5629,-4.5855,-4.574,-4.5624,-4.5778,-4.6086,-4.737,-2.3144,-2.3105,-2.291,-2.2715,-2.2585,-2.2852,-2.3063,-2.3218,-2.3903,-2.4469,-2.4823,-2.542,-2.5816,-2.5886,-2.6233,-2.6533,-2.6533,-2.6533,-2.664,-2.6866,-2.6917,-2.7072,-2.7222,-2.7022,-2.7118,-2.7143,-2.7067,-2.6892,-2.6942,-2.7218,-2.7092,-2.6917,-2.6892,-2.6766,-2.6584,-2.6533,-2.6824,-2.6976,-2.7204,-2.7537,-2.8363,-2.8748,-2.9628,-3.0086,-3.0718,-3.1102,-3.1336,-3.1482,-3.1482,-3.1482,-3.1482,-3.1482,-3.1745,-3.2155,-3.2452,-3.2223,-3.2425,-3.292,-3.3755,-3.4636,-3.5647,-3.6417,-3.7765,-3.8622,-3.9092,-3.9665,-4.0054,-4.0087,-4.0087,-4.0087,-4.0087,-4.0087,-4.0087,-4.0087,-4.0138,-4.0138,-4.0254,-4.0625,-4.0733,-4.0698,-4.0978,-4.0871,-4.0269,-4.0918,-4.1973,-4.2745,-4.3391,-4.3213,-4.2886,-4.3141,-4.3497,-4.3497,-4.3497,-4.3529,-4.3563,-4.366,-4.3706,-4.3729,-4.3933,-4.4369,-4.4978,-4.5643,-4.5625,-4.536,-4.54,-4.5707,-4.5477,-4.5589,-4.5837,-4.6163,-4.6278,-4.6355,-4.6201,-4.6642,-4.8039,-2.3144,-2.3105,-2.2773,-2.2637,-2.2722,-2.3426,-2.3804,-2.4198,-2.5274,-2.5944,-2.6166,-2.6466,-2.6666,-2.6666,-2.6741,-2.6861,-2.6735,-2.6741,-2.7067,-2.7172,-2.7444,-2.7723,-2.7851,-2.7751,-2.762,-2.7821,-2.7871,-2.7544,-2.7519,-2.777,-2.777,-2.757,-2.7444,-2.7455,-2.7265,-2.725,-2.7468,-2.7894,-2.7984,-2.8427,-2.9254,-3.0086,-3.0539,-3.0569,-3.1161,-3.1482,-3.1482,-3.1482,-3.1482,-3.1627,-3.1829,-3.2004,-3.2182,-3.3295,-3.3779,-3.3414,-3.381,-3.4404,-3.5244,-3.6196,-3.7143,-3.7882,-3.8756,-3.946,-3.9833,-3.9969,-4.0087,-4.0087,-4.0087,-4.0087,-4.0087,-4.0087,-4.0087,-4.0104,-4.0204,-4.0353,-4.0563,-4.092,-4.1438,-4.1568,-4.1824,-4.1618,-4.1079,-4.1085,-4.2127,-4.2878,-4.3506,-4.3506,-4.3212,-4.3284,-4.3497,-4.3497,-4.3495,-4.3563,-4.366,-4.3849,-4.3908,-4.3987,-4.4386,-4.4825,-4.5605,-4.6373,-4.6244,-4.6301,-4.6377,-4.657,-4.6163,-4.5932,-4.6509,-4.6894,-4.7048,-4.7086,-4.7048,-4.7725,-4.9025,-2.3144,-2.3144,-2.3086,-2.3066,-2.3173,-2.4155,-2.4956,-2.5383,-2.6178,-2.6697,-2.7108,-2.7172,-2.7193,-2.7268,-2.7645,-2.757,-2.7444,-2.7544,-2.7645,-2.7595,-2.7846,-2.8122,-2.8124,-2.8097,-2.8122,-2.8323,-2.8549,-2.8398,-2.8369,-2.8344,-2.822,-2.8167,-2.8333,-2.8329,-2.8864,-2.8523,-2.8786,-2.9405,-2.9187,-2.9317,-3.0176,-3.0984,-3.1308,-3.1455,-3.1543,-3.1661,-3.1779,-3.1779,-3.1719,-3.1862,-3.2869,-3.3333,-3.3668,-3.4786,-3.5363,-3.5379,-3.5514,-3.5851,-3.66,-3.7425,-3.8151,-3.8875,-3.9512,-3.9935,-4.007,-4.0087,-4.0087,-4.0087,-4.0087,-4.0087,-4.0138,-4.0138,-4.0138,-4.0353,-4.0577,-4.0767,-4.0967,-4.1464,-4.1985,-4.2271,-4.2505,-4.2289,-4.1893,-4.1967,-4.2226,-4.2923,-4.3499,-4.3497,-4.3497,-4.3497,-4.3497,-4.3497,-4.3631,-4.3693,-4.3881,-4.4065,-4.4195,-4.4297,-4.4791,-4.5404,-4.6508,-4.7319,-4.7626,-4.7702,-4.7625,-4.724,-4.6645,-4.6683,-4.7299,-4.7645,-4.7855,-4.7932,-4.7951,-4.8948,-5.0026,-2.3144,-2.3144,-2.3144,-2.3144,-2.3378,-2.4959,-2.5872,-2.6332,-2.7329,-2.8002,-2.8099,-2.7871,-2.7745,-2.7846,-2.8047,-2.7971,-2.7846,-2.8047,-2.8197,-2.8197,-2.8448,-2.875,-2.895,-2.8775,-2.8674,-2.9001,-2.9051,-2.9451,-2.9471,-2.9792,-2.9766,-2.9502,-2.9855,-3.0207,-3.0487,-3.0079,-3.019,-3.0475,-3.0582,-3.0802,-3.1396,-3.1872,-3.2258,-3.2587,-3.2617,-3.2587,-3.2557,-3.2646,-3.2912,-3.3233,-3.4079,-3.4478,-3.5086,-3.6109,-3.6971,-3.6615,-3.7702,-3.811,-3.8005,-3.8702,-3.9143,-3.948,-3.9884,-4.002,-4.0087,-4.0087,-4.0087,-4.0087,-4.0087,-4.0138,-4.0272,-4.0705,-4.0783,-4.0871,-4.1059,-4.1286,-4.1595,-4.2144,-4.2616,-4.2884,-4.3069,-4.2814,-4.2632,-4.2705,-4.2741,-4.3067,-4.3497,-4.3497,-4.3497,-4.3497,-4.3497,-4.3497,-4.366,-4.3849,-4.4117,-4.4346,-4.4525,-4.4699,-4.5163,-4.5994,-4.7588,-4.8394,-4.872,-4.872,-4.8509,-4.7952,-4.7203,-4.7452,-4.8125,-4.8394,-4.8663,-4.8874,-4.9162,-4.9812,-5.0734,-2.3973,-2.3887,-2.3387,-2.3212,-2.3707,-2.5717,-2.6623,-2.7058,-2.8264,-2.8897,-2.8825,-2.8499,-2.8373,-2.8524,-2.8574,-2.8549,-2.8323,-2.8448,-2.8649,-2.89,-2.9126,-2.9352,-2.9504,-2.9479,-2.9757,-3.0139,-3.028,-3.0551,-3.1276,-3.1648,-3.1577,-3.0994,-3.1439,-3.1875,-3.1786,-3.164,-3.1659,-3.182,-3.1929,-3.2199,-3.2617,-3.2706,-3.3036,-3.3305,-3.3484,-3.3514,-3.3546,-3.3758,-3.4143,-3.4465,-3.5387,-3.5947,-3.6465,-3.7636,-3.8314,-3.828,-3.9159,-3.9428,-3.9257,-3.9546,-4.0003,-4.0087,-4.0087,-4.0087,-4.0087,-4.0087,-4.0087,-4.0087,-4.0087,-4.0188,-4.0504,-4.1229,-4.136,-4.1461,-4.1682,-4.1853,-4.2103,-4.2619,-4.2995,-4.3142,-4.3286,-4.3356,-4.3283,-4.3389,-4.3426,-4.3461,-4.3497,-4.3497,-4.3495,-4.3529,-4.3631,-4.3664,-4.386,-4.4237,-4.4923,-4.5041,-4.5125,-4.5295,-4.5745,-4.6877,-4.8586,-4.9452,-4.9778,-4.9644,-4.9356,-4.924,-4.8837,-4.8856,-4.8894,-4.9394,-4.9856,-5.0106,-5.0471,-5.1043,-5.1523,-2.6235,-2.6069,-2.3973,-2.38,-2.4744,-2.5978,-2.7133,-2.7844,-2.8651,-2.8971,-2.895,-2.89,-2.9151,-2.9478,-2.9428,-2.9252,-2.89,-2.9428,-2.9302,-2.9252,-2.9428,-2.9807,-3.0139,-3.0543,-3.1014,-3.1241,-3.1422,-3.1983,-3.2593,-3.3087,-3.2989,-3.268,-3.2821,-3.3155,-3.3243,-3.3091,-3.2984,-3.3084,-3.3095,-3.3215,-3.3365,-3.3425,-3.3514,-3.3574,-3.3574,-3.3514,-3.3576,-3.439,-3.5007,-3.53,-3.6615,-3.7538,-3.7992,-3.8905,-3.9429,-3.9632,-3.975,-3.9952,-3.9919,-3.9919,-4.0054,-4.0087,-4.0087,-4.0087,-4.0087,-4.0138,-4.0138,-4.0322,-4.0436,-4.048,-4.0905,-4.1522,-4.193,-4.1952,-4.2149,-4.2501,-4.2696,-4.2995,-4.3321,-4.3428,-4.3463,-4.3497,-4.3681,-4.3718,-4.3571,-4.3534,-4.3532,-4.3495,-4.3597,-4.3627,-4.3823,-4.3918,-4.4109,-4.4721,-4.587,-4.6151,-4.6275,-4.649,-4.6839,-4.826,-4.9913,-5.0433,-5.0471,-5.0414,-5.0125,-5.0317,-5.0433,-5.0087,-5.0048,-5.0645,-5.0972,-5.0853,-5.1125,-5.1629,-5.2187,-2.6483,-2.64,-2.5568,-2.5462,-2.5924,-2.6998,-2.7764,-2.8211,-2.9032,-2.9449,-2.9428,-2.9478,-2.9578,-2.9754,-2.9779,-2.9704,-2.9503,-2.9654,-2.9603,-2.9859,-3.019,-3.062,-3.097,-3.1489,-3.2092,-3.2164,-3.2522,-3.3017,-3.3533,-3.3945,-3.4341,-3.4274,-3.4206,-3.4543,-3.4633,-3.428,-3.4065,-3.3925,-3.3784,-3.3664,-3.4083,-3.4113,-3.4292,-3.4711,-3.5278,-3.537,-3.5584,-3.6213,-3.6762,-3.7326,-3.8109,-3.8612,-3.9108,-3.9817,-4.0054,-4.0087,-4.0087,-4.0087,-4.0087,-4.0087,-4.0087,-4.0087,-4.0087,-4.0104,-4.0136,-4.0417,-4.1271,-4.1415,-4.0839,-4.0676,-4.149,-4.2285,-4.2803,-4.2534,-4.2623,-4.2995,-4.3214,-4.3428,-4.3609,-4.3718,-4.3573,-4.3463,-4.3719,-4.3976,-4.3791,-4.3608,-4.3569,-4.36,-4.3771,-4.4035,-4.4326,-4.4749,-4.503,-4.5417,-4.6565,-4.7044,-4.7414,-4.7742,-4.7972,-4.9163,-5.0452,-5.0606,-5.0645,-5.0702,-5.076,-5.0702,-5.0741,-5.0875,-5.0991,-5.1068,-5.1159,-5.1138,-5.1579,-5.2109,-5.293,-2.7464,-2.7464,-2.7464,-2.7302,-2.7103,-2.7777,-2.8302,-2.8736,-2.9443,-2.9779,-2.9779,-2.9779,-2.9779,-2.9779,-2.9779,-2.9779,-2.9729,-2.9779,-2.9985,-3.0317,-3.0794,-3.1315,-3.1829,-3.2451,-3.3017,-3.3045,-3.3463,-3.3973,-3.4409,-3.4476,-3.4773,-3.5198,-3.5489,-3.5424,-3.5305,-3.507,-3.4771,-3.4651,-3.4472,-3.4262,-3.4771,-3.5087,-3.5273,-3.5885,-3.6445,-3.6779,-3.6955,-3.7508,-3.8107,-3.8526,-3.911,-3.9492,-3.9868,-4.0087,-4.0087,-4.0087,-4.0087,-4.0087,-4.0087,-4.0087,-4.0087,-4.0087,-4.0319,-4.028,-4.0302,-4.0782,-4.1775,-4.2889,-4.1736,-4.0983,-4.2021,-4.2745,-4.3204,-4.2956,-4.3032,-4.3356,-4.3356,-4.3497,-4.3754,-4.3938,-4.383,-4.3903,-4.4375,-4.4741,-4.4955,-4.462,-4.4066,-4.4202,-4.4506,-4.4797,-4.5153,-4.5696,-4.6239,-4.6733,-4.7253,-4.7854,-4.8529,-4.9125,-4.9375,-4.9567,-5.0394,-5.0587,-5.0741,-5.0779,-5.0856,-5.0951,-5.1026,-5.1099,-5.1143,-5.1183,-5.1231,-5.1289,-5.1758,-5.2383,-5.375,-2.9624,-2.9702,-2.9624,-2.9028,-2.8131,-2.8105,-2.8706,-2.9546,-2.9702,-2.9779,-2.9779,-2.9779,-2.9779,-2.9779,-2.9779,-2.9779,-2.9779,-2.9856,-3.0216,-3.0895,-3.1315,-3.1802,-3.2593,-3.3394,-3.3973,-3.4245,-3.4543,-3.5001,-3.5359,-3.5198,-3.5424,-3.5424,-3.5489,-3.5489,-3.5489,-3.5489,-3.5459,-3.5459,-3.534,-3.5439,-3.5601,-3.6106,-3.6476,-3.6751,-3.7322,-3.7732,-3.7905,-3.8525,-3.8962,-3.9156,-3.961,-3.9952,-4.0087,-4.0087,-4.0087,-4.0087,-4.0087,-4.0087,-4.0087,-4.0138,-4.0204,-4.0269,-4.0542,-4.0597,-4.0526,-4.1153,-4.2172,-4.3273,-4.2454,-4.2007,-4.2534,-4.3132,-4.3506,-4.3761,-4.3903,-4.3938,-4.4011,-4.4048,-4.4415,-4.4599,-4.4563,-4.4635,-4.5107,-4.5614,-4.6045,-4.5815,-4.4888,-4.4861,-4.5335,-4.5669,-4.6114,-4.6639,-4.7302,-4.7809,-4.8296,-4.8952,-4.9586,-5.024,-5.051,-5.0471,-5.0548,-5.0779,-5.0914,-5.0875,-5.101,-5.1125,-5.1211,-5.1285,-5.1695,-5.208,-5.1452,-5.1484,-5.1914,-5.2891,-5.4453,-2.9779,-2.9779,-2.9779,-2.9624,-2.9209,-2.9253,-2.9489,-2.9727,-2.9779,-2.9779,-2.9779,-2.9779,-2.9779,-2.9779,-2.9779,-2.9779,-2.9779,-2.9856,-3.0266,-3.1193,-3.1802,-3.2664,-3.3533,-3.4341,-3.4935,-3.5067,-3.5424,-3.5489,-3.5424,-3.5489,-3.5489,-3.5489,-3.5489,-3.5489,-3.5489,-3.5489,-3.5489,-3.5619,-3.5849,-3.6259,-3.6352,-3.6935,-3.7381,-3.744,-3.8133,-3.8525,-3.858,-3.9262,-3.9558,-3.961,-4.0037,-4.0087,-4.0087,-4.0087,-4.0087,-4.0138,-4.0138,-4.0087,-4.0204,-4.0368,-4.0603,-4.0711,-4.0863,-4.1095,-4.1257,-4.194,-4.2745,-4.3264,-4.3057,-4.2921,-4.3251,-4.4419,-4.5002,-4.5149,-4.5257,-4.5223,-4.5259,-4.5259,-4.5369,-4.5443,-4.5443,-4.6057,-4.6561,-4.7074,-4.7529,-4.747,-4.6732,-4.6458,-4.6796,-4.6922,-4.719,-4.7695,-4.826,-4.8779,-4.9337,-4.974,-5.001,-5.0433,-5.0664,-5.0664,-5.0818,-5.0991,-5.1043,-5.1013,-5.1159,-5.1318,-5.1811,-5.2331,-5.288,-5.3026,-5.2422,-5.2305,-5.2891,-5.4101,-5.5703,-2.9779,-2.9779,-2.9779,-2.9779,-2.9779,-2.9779,-2.9779,-2.9779,-2.9779,-2.9779,-2.9779,-2.9779,-2.9779,-2.9779,-2.9779,-2.9779,-2.9856,-3.0216,-3.0771,-3.1756,-3.2692,-3.3602,-3.4476,-3.5133,-3.5294,-3.5489,-3.5489,-3.5489,-3.5489,-3.5489,-3.5489,-3.5489,-3.5489,-3.5674,-3.5834,-3.5933,-3.5943,-3.6165,-3.6569,-3.7055,-3.7263,-3.7674,-3.8189,-3.8358,-3.8832,-3.9315,-3.9454,-3.9714,-4.0087,-4.0087,-4.0087,-4.0087,-4.0087,-4.0087,-4.0087,-4.0138,-4.0573,-4.0504,-4.0597,-4.092,-4.1261,-4.1576,-4.1525,-4.1576,-4.1962,-4.2484,-4.2995,-4.3397,-4.3504,-4.3539,-4.3793,-4.5111,-4.6065,-4.6176,-4.614,-4.6103,-4.592,-4.5883,-4.6103,-4.6177,-4.6609,-4.7256,-4.7996,-4.8625,-4.9105,-4.8882,-4.8606,-4.8386,-4.8136,-4.8165,-4.8307,-4.8835,-4.9202,-4.9606,-4.9952,-5.024,-5.0471,-5.0664,-5.0702,-5.0741,-5.0914,-5.1068,-5.109,-5.1296,-5.1707,-5.2169,-5.2858,-5.3437,-5.3828,-5.3789,-5.3359,-5.3476,-5.3984,-5.5117,-5.6484,-2.9779,-2.9779,-2.9779,-2.9779,-2.9779,-2.9779,-2.9779,-2.9779,-2.9779,-2.9779,-2.9779,-2.9779,-2.9779,-2.9779,-2.9856,-2.9934,-3.0216,-3.0921,-3.1756,-3.2621,-3.3394,-3.4409,-3.5067,-3.5424,-3.5489,-3.5489,-3.5489,-3.5489,-3.5489,-3.5489,-3.5489,-3.5619,-3.5718,-3.6091,-3.6438,-3.6786,-3.6722,-3.693,-3.735,-3.779,-3.7962,-3.8525,-3.8854,-3.9156,-3.9506,-3.985,-3.9952,-4.0087,-4.0087,-4.0087,-4.0087,-4.0087,-4.0087,-4.0087,-4.0087,-4.0406,-4.1181,-4.1197,-4.1128,-4.1508,-4.1937,-4.2306,-4.258,-4.234,-4.2377,-4.2885,-4.3467,-4.3687,-4.3831,-4.3759,-4.3979,-4.5406,-4.6801,-4.6765,-4.6728,-4.6544,-4.6324,-4.6397,-4.6691,-4.7019,-4.7541,-4.8234,-4.9089,-4.977,-4.9896,-4.9877,-4.9618,-4.9488,-4.9269,-4.9255,-4.945,-4.9951,-5.024,-5.0433,-5.0664,-5.0625,-5.0664,-5.0741,-5.0741,-5.0779,-5.0952,-5.1452,-5.192,-5.2297,-5.2562,-5.3047,-5.3789,-5.4297,-5.4609,-5.4453,-5.4414,-5.4492,-5.4961,-5.5547,-5.6601,-2.9779,-2.9779,-2.9779,-2.9779,-2.9779,-2.9779,-2.9779,-2.9779,-2.9779,-2.9779,-2.9779,-2.9779,-2.9934,-2.9856,-3.0495,-3.0771,-3.1193,-3.1729,-3.2664,-3.3463,-3.3973,-3.4706,-3.5198,-3.5489,-3.5489,-3.5489,-3.5489,-3.5489,-3.5519,-3.5489,-3.5879,-3.6228,-3.6228,-3.6786,-3.7369,-3.7924,-3.7783,-3.7826,-3.8261,-3.8492,-3.8778,-3.9262,-3.9558,-3.9799,-3.9901,-4.0087,-4.0087,-4.0087,-4.0087,-4.0087,-4.0087,-4.0087,-4.0087,-4.0138,-4.0204,-4.072,-4.13,-4.1701,-4.1682,-4.2103,-4.2541,-4.277,-4.3032,-4.3213,-4.3171,-4.3353,-4.4009,-4.4305,-4.4234,-4.4198,-4.4931,-4.625,-4.7279,-4.75,-4.75,-4.7463,-4.7279,-4.7426,-4.772,-4.8096,-4.8596,-4.8985,-4.9886,-5.0221,-5.0363,-5.0504,-5.0507,-5.0353,-5.0238,-5.0144,-5.0164,-5.0587,-5.0702,-5.0702,-5.0702,-5.0664,-5.0741,-5.0779,-5.0818,-5.1203,-5.2011,-5.2563,-5.3014,-5.3359,-5.3672,-5.418,-5.4805,-5.5195,-5.5469,-5.5859,-5.5898,-5.5859,-5.5976,-5.6523,-5.6831,-2.9779,-2.9779,-2.9779,-2.9779,-2.9779,-2.9779,-3.0011,-3.0216,-2.9934,-2.9934,-3.0368,-3.0343,-3.057,-3.1044,-3.1536,-3.1756,-3.1829,-3.2664,-3.3435,-3.3808,-3.438,-3.4905,-3.5359,-3.5489,-3.5489,-3.5489,-3.5489,-3.5489,-3.5554,-3.591,-3.629,-3.6569,-3.6843,-3.7515,-3.8115,-3.8529,-3.8788,-3.8884,-3.911,-3.9282,-3.9558,-3.985,-4.0003,-4.0087,-4.0087,-4.0087,-4.0087,-4.0087,-4.0087,-4.0087,-4.0087,-4.0087,-4.012,-4.0118,-4.0569,-4.1171,-4.2065,-4.2282,-4.2333,-4.2696,-4.2921,-4.3105,-4.3322,-4.3393,-4.3646,-4.383,-4.4671,-4.5257,-4.493,-4.4894,-4.6067,-4.7168,-4.772,-4.8272,-4.8384,-4.8495,-4.8568,-4.8677,-4.8915,-4.9258,-4.9559,-4.9834,-5.0221,-5.0507,-5.0702,-5.0644,-5.0644,-5.0606,-5.0529,-5.049,-5.0471,-5.0625,-5.0702,-5.0702,-5.076,-5.0933,-5.1183,-5.1203,-5.1068,-5.1588,-5.2742,-5.3867,-5.4531,-5.4726,-5.4844,-5.5234,-5.5586,-5.6015,-5.6367,-5.6601,-5.6592,-5.6406,-5.6523,-5.7265,-5.7441,-2.9779,-2.9779,-2.9779,-2.9779,-2.9804,-2.9934,-3.0419,-3.1093,-3.0495,-3.0495,-3.1241,-3.1341,-3.1756,-3.2164,-3.2522,-3.2664,-3.2947,-3.3671,-3.4177,-3.4177,-3.4905,-3.5424,-3.5424,-3.5489,-3.5489,-3.5489,-3.5554,-3.5619,-3.5846,-3.6165,-3.6569,-3.6783,-3.7499,-3.827,-3.8949,-3.9106,-3.9335,-3.968,-3.9783,-3.9901,-3.9952,-4.0087,-4.0087,-4.0087,-4.0087,-4.0087,-4.0087,-4.0087,-4.0087,-4.0087,-4.0154,-4.0204,-4.0412,-4.0435,-4.0981,-4.1704,-4.2713,-4.2912,-4.2918,-4.3142,-4.3321,-4.3428,-4.3534,-4.3573,-4.3758,-4.416,-4.4965,-4.6066,-4.592,-4.592,-4.68,-4.7832,-4.8495,-4.8787,-4.8818,-4.8919,-4.8982,-4.9182,-4.9512,-4.9781,-5.0011,-5.0265,-5.0406,-5.0702,-5.0702,-5.0702,-5.0702,-5.0702,-5.0779,-5.0779,-5.0818,-5.0818,-5.0779,-5.0875,-5.1202,-5.1413,-5.174,-5.1722,-5.1644,-5.2369,-5.3754,-5.4961,-5.6172,-5.5937,-5.5664,-5.5898,-5.625,-5.6523,-5.6601,-5.6562,-5.6562,-5.6599,-5.7054,-5.7852,-5.8568,-2.9779,-2.9779,-2.9779,-2.9779,-2.9934,-3.0545,-3.097,-3.1241,-3.1756,-3.2046,-3.2236,-3.2307,-3.2451,-3.2806,-3.3463,-3.3671,-3.3876,-3.4476,-3.5067,-3.5067,-3.5424,-3.5489,-3.5489,-3.5489,-3.5489,-3.5489,-3.5554,-3.5846,-3.6228,-3.6631,-3.7291,-3.8213,-3.8635,-3.9018,-3.9634,-3.9696,-3.985,-4.0087,-4.0087,-4.0087,-4.0087,-4.0087,-4.0087,-4.0087,-4.0087,-4.0087,-4.0138,-4.0104,-4.0138,-4.0138,-4.0528,-4.092,-4.1375,-4.135,-4.1752,-4.2469,-4.3104,-4.3287,-4.3359,-4.3393,-4.3499,-4.3754,-4.3901,-4.3831,-4.4014,-4.4416,-4.5223,-4.6397,-4.7095,-4.713,-4.7463,-4.842,-4.9187,-4.9247,-4.9295,-4.9309,-4.9386,-4.97,-4.9986,-5.0191,-5.0347,-5.0507,-5.0682,-5.0702,-5.0702,-5.0702,-5.0702,-5.0741,-5.0933,-5.1029,-5.1222,-5.1183,-5.0952,-5.1049,-5.1524,-5.2061,-5.2498,-5.2879,-5.2933,-5.3751,-5.4726,-5.5586,-5.6445,-5.6484,-5.6406,-5.6445,-5.6445,-5.6562,-5.6601,-5.6675,-5.6536,-5.6571,-5.7505,-5.8424,-5.9468,-2.9779,-2.9779,-2.9779,-3.0088,-3.0495,-3.097,-3.1683,-3.2451,-3.3017,-3.3463,-3.3739,-3.3463,-3.3463,-3.3768,-3.4476,-3.461,-3.4677,-3.5198,-3.5359,-3.5424,-3.5489,-3.5489,-3.5489,-3.5489,-3.5489,-3.5489,-3.5879,-3.629,-3.6722,-3.7526,-3.827,-3.8908,-3.9176,-3.961,-4.0087,-4.0087,-4.0087,-4.0087,-4.0087,-4.0087,-4.0087,-4.0087,-4.0087,-4.0087,-4.0087,-4.0138,-4.0204,-4.0269,-4.0466,-4.0625,-4.1013,-4.156,-4.1914,-4.1837,-4.226,-4.285,-4.3286,-4.3497,-4.3497,-4.3534,-4.3681,-4.4048,-4.4342,-4.4307,-4.5041,-4.5553,-4.6397,-4.7463,-4.7645,-4.7754,-4.8015,-4.8789,-4.9557,-4.9911,-4.9822,-4.9819,-4.9974,-5.023,-5.0402,-5.0445,-5.0663,-5.0893,-5.0971,-5.0836,-5.1029,-5.2049,-5.1856,-5.1799,-5.1799,-5.1644,-5.1703,-5.1819,-5.178,-5.2003,-5.2697,-5.3125,-5.3427,-5.3765,-5.4141,-5.4726,-5.539,-5.6055,-5.6601,-5.6601,-5.6562,-5.6562,-5.6601,-5.6836,-5.7001,-5.7137,-5.6886,-5.6598,-5.7735,-5.8912,-5.9903,-2.9856,-3.0011,-3.0011,-3.057,-3.1315,-3.1563,-3.2478,-3.3808,-3.4148,-3.461,-3.5133,-3.4476,-3.4839,-3.5198,-3.5519,-3.5489,-3.5489,-3.5424,-3.5489,-3.5489,-3.5489,-3.5489,-3.5489,-3.5489,-3.5619,-3.5879,-3.6228,-3.6753,-3.7172,-3.8044,-3.8745,-3.9123,-3.961,-4.0087,-4.0087,-4.0087,-4.0087,-4.0087,-4.0087,-4.0087,-4.0087,-4.0087,-4.0087,-4.0087,-4.0138,-4.0104,-4.0319,-4.0577,-4.0874,-4.1286,-4.1595,-4.2185,-4.2508,-4.2482,-4.2741,-4.3211,-4.3391,-4.3497,-4.3534,-4.3718,-4.4085,-4.4488,-4.4782,-4.5297,-4.5993,-4.669,-4.7573,-4.7941,-4.8161,-4.8273,-4.8569,-4.9041,-4.9836,-5.0422,-5.0339,-5.0268,-5.0483,-5.0682,-5.0682,-5.0702,-5.101,-5.1241,-5.1279,-5.1182,-5.1836,-5.2856,-5.3433,-5.3415,-5.3321,-5.2988,-5.2862,-5.3068,-5.3167,-5.3508,-5.392,-5.4101,-5.4297,-5.4844,-5.5273,-5.5664,-5.6015,-5.6406,-5.664,-5.664,-5.664,-5.6914,-5.7148,-5.7422,-5.7564,-5.7735,-5.7597,-5.7482,-5.8081,-5.9181,-6.0204,-3.0292,-3.0895,-3.097,-3.1462,-3.2335,-3.3114,-3.3716,-3.4109,-3.4905,-3.5359,-3.5424,-3.5424,-3.5359,-3.5489,-3.5489,-3.5489,-3.5489,-3.5489,-3.5489,-3.5489,-3.5489,-3.5489,-3.5554,-3.5653,-3.5879,-3.629,-3.6722,-3.7291,-3.793,-3.8603,-3.9262,-3.9765,-3.985,-4.0087,-4.0087,-4.0087,-4.0087,-4.0087,-4.0087,-4.0087,-4.0138,-4.0138,-4.0087,-4.0087,-4.0087,-4.0368,-4.0672,-4.0827,-4.1161,-4.1603,-4.2185,-4.2734,-4.2996,-4.3068,-4.3211,-4.3318,-4.3497,-4.3571,-4.3681,-4.4048,-4.4562,-4.5076,-4.5516,-4.6324,-4.6946,-4.7424,-4.8014,-4.8199,-4.8347,-4.8274,-4.8561,-4.9214,-4.9897,-5.0377,-5.0543,-5.056,-5.0624,-5.0779,-5.0856,-5.1125,-5.1433,-5.1741,-5.2049,-5.2182,-5.2644,-5.3703,-5.4821,-5.4765,-5.4033,-5.395,-5.397,-5.4233,-5.4458,-5.463,-5.4844,-5.4961,-5.5234,-5.582,-5.625,-5.6484,-5.6562,-5.6484,-5.668,-5.707,-5.7344,-5.7617,-5.7851,-5.8044,-5.8273,-5.8427,-5.8466,-5.8543,-5.8965,-5.945,-6.0396]}]]